<?xml version="1.0" encoding="UTF-8" standalone="no" ?>
<gpx xmlns="http://www.topografix.com/GPX/1/1" xmlns:xsi="http://www.w3.org/2001/XMLSchema-instance" xsi:schemaLocation="http://www.topografix.com/GPX/1/1 http://www.topografix.com/GPX/1/1/gpx.xsd" version="1.1" creator="VisuGPX - https://www.visugpx.com">
  <metadata>
    <name>Barraux - Saint Hilaire</name>
    <desc><![CDATA[Barraux - La Flachère - Saint Vincent - Belle Chambre - Col de Marcieu - Saint Hilaire]]></desc>
  </metadata>
  <trk>
    <name><![CDATA[et hil]]></name>
    <desc><![CDATA[<h1>OruxMaps</h1><br /><hr align="center" width="480" style="height: 2px; width: 517px"/><h2>Nom: et hil</h2><br /><p>Temps de départ: 10/30/2014 09:34</p><p>Temps d'arrivée: 10/30/2014 16:23</p><p>Distance: 54,7 km (06:49)</p><p>Temps déplacement: 04:23</p><p>Vitesse moyenne: 8 km/h</p><p>Vitesse moyenne: 12,5 km/h</p><p>Vitess Max.: 52,5 km/h</p><p>Altitude minimale: 169 m</p><p>Altitude maximale: 1253 m</p><p>Vitesse d'élévation: 680,8 m/h</p><p>Vitesse de descente: -564,8 m/h</p><p>Gain Altitude: 1962 m</p><p>Perte Altitude: -1931 m</p><p>Temps d'élévation: 02:52</p><p>Temps de descente: 03:25</p><hr align="center" width="480" style="height: 2px; width: 517px"/>]]></desc>
    <trkseg>
      <trkpt lat="45.42862" lon="5.98344">
        <ele>329</ele>
        <time>2014-10-30T08:34:33Z</time>
      </trkpt>
      <trkpt lat="45.42906" lon="5.9839">
        <ele>329</ele>
        <time>2014-10-30T08:34:39Z</time>
      </trkpt>
      <trkpt lat="45.42923" lon="5.98399">
        <ele>330</ele>
        <time>2014-10-30T08:37:33Z</time>
      </trkpt>
      <trkpt lat="45.42927" lon="5.98373">
        <ele>330</ele>
        <time>2014-10-30T08:38:01Z</time>
      </trkpt>
      <trkpt lat="45.42935" lon="5.98349">
        <ele>330</ele>
        <time>2014-10-30T08:38:08Z</time>
      </trkpt>
      <trkpt lat="45.42944" lon="5.98322">
        <ele>330</ele>
        <time>2014-10-30T08:38:13Z</time>
      </trkpt>
      <trkpt lat="45.42959" lon="5.98302">
        <ele>330</ele>
        <time>2014-10-30T08:38:17Z</time>
      </trkpt>
      <trkpt lat="45.42973" lon="5.98284">
        <ele>330</ele>
        <time>2014-10-30T08:38:21Z</time>
      </trkpt>
      <trkpt lat="45.42987" lon="5.98262">
        <ele>329</ele>
        <time>2014-10-30T08:38:27Z</time>
      </trkpt>
      <trkpt lat="45.43001" lon="5.98239">
        <ele>329</ele>
        <time>2014-10-30T08:38:32Z</time>
      </trkpt>
      <trkpt lat="45.43012" lon="5.98216">
        <ele>329</ele>
        <time>2014-10-30T08:38:39Z</time>
      </trkpt>
      <trkpt lat="45.43024" lon="5.98195">
        <ele>329</ele>
        <time>2014-10-30T08:38:45Z</time>
      </trkpt>
      <trkpt lat="45.43035" lon="5.98174">
        <ele>330</ele>
        <time>2014-10-30T08:38:51Z</time>
      </trkpt>
      <trkpt lat="45.4302" lon="5.98159">
        <ele>330</ele>
        <time>2014-10-30T08:38:59Z</time>
      </trkpt>
      <trkpt lat="45.42999" lon="5.98162">
        <ele>329</ele>
        <time>2014-10-30T08:39:17Z</time>
      </trkpt>
      <trkpt lat="45.42976" lon="5.98159">
        <ele>330</ele>
        <time>2014-10-30T08:39:24Z</time>
      </trkpt>
      <trkpt lat="45.42956" lon="5.98154">
        <ele>330</ele>
        <time>2014-10-30T08:39:28Z</time>
      </trkpt>
      <trkpt lat="45.42936" lon="5.98143">
        <ele>331</ele>
        <time>2014-10-30T08:39:32Z</time>
      </trkpt>
      <trkpt lat="45.4292" lon="5.98131">
        <ele>331</ele>
        <time>2014-10-30T08:39:36Z</time>
      </trkpt>
      <trkpt lat="45.42906" lon="5.98115">
        <ele>332</ele>
        <time>2014-10-30T08:39:41Z</time>
      </trkpt>
      <trkpt lat="45.42891" lon="5.98099">
        <ele>332</ele>
        <time>2014-10-30T08:39:45Z</time>
      </trkpt>
      <trkpt lat="45.42876" lon="5.98081">
        <ele>334</ele>
        <time>2014-10-30T08:39:49Z</time>
      </trkpt>
      <trkpt lat="45.4286" lon="5.98063">
        <ele>334</ele>
        <time>2014-10-30T08:39:53Z</time>
      </trkpt>
      <trkpt lat="45.42841" lon="5.98048">
        <ele>334</ele>
        <time>2014-10-30T08:39:56Z</time>
      </trkpt>
      <trkpt lat="45.42825" lon="5.98036">
        <ele>333</ele>
        <time>2014-10-30T08:39:59Z</time>
      </trkpt>
      <trkpt lat="45.42806" lon="5.98022">
        <ele>333</ele>
        <time>2014-10-30T08:40:03Z</time>
      </trkpt>
      <trkpt lat="45.42786" lon="5.98007">
        <ele>333</ele>
        <time>2014-10-30T08:40:08Z</time>
      </trkpt>
      <trkpt lat="45.42767" lon="5.97993">
        <ele>337</ele>
        <time>2014-10-30T08:40:13Z</time>
      </trkpt>
      <trkpt lat="45.42748" lon="5.9798">
        <ele>335</ele>
        <time>2014-10-30T08:40:18Z</time>
      </trkpt>
      <trkpt lat="45.4273" lon="5.97966">
        <ele>336</ele>
        <time>2014-10-30T08:40:23Z</time>
      </trkpt>
      <trkpt lat="45.42713" lon="5.97953">
        <ele>336</ele>
        <time>2014-10-30T08:40:28Z</time>
      </trkpt>
      <trkpt lat="45.42696" lon="5.97939">
        <ele>336</ele>
        <time>2014-10-30T08:40:34Z</time>
      </trkpt>
      <trkpt lat="45.42677" lon="5.97923">
        <ele>337</ele>
        <time>2014-10-30T08:40:40Z</time>
      </trkpt>
      <trkpt lat="45.4266" lon="5.97908">
        <ele>339</ele>
        <time>2014-10-30T08:40:46Z</time>
      </trkpt>
      <trkpt lat="45.42641" lon="5.97895">
        <ele>340</ele>
        <time>2014-10-30T08:40:52Z</time>
      </trkpt>
      <trkpt lat="45.42622" lon="5.97886">
        <ele>341</ele>
        <time>2014-10-30T08:40:56Z</time>
      </trkpt>
      <trkpt lat="45.42602" lon="5.97877">
        <ele>341</ele>
        <time>2014-10-30T08:41:01Z</time>
      </trkpt>
      <trkpt lat="45.42583" lon="5.9787">
        <ele>338</ele>
        <time>2014-10-30T08:41:06Z</time>
      </trkpt>
      <trkpt lat="45.42564" lon="5.97863">
        <ele>339</ele>
        <time>2014-10-30T08:41:12Z</time>
      </trkpt>
      <trkpt lat="45.42545" lon="5.97858">
        <ele>338</ele>
        <time>2014-10-30T08:41:20Z</time>
      </trkpt>
      <trkpt lat="45.42526" lon="5.97853">
        <ele>338</ele>
        <time>2014-10-30T08:41:25Z</time>
      </trkpt>
      <trkpt lat="45.42507" lon="5.97843">
        <ele>339</ele>
        <time>2014-10-30T08:41:30Z</time>
      </trkpt>
      <trkpt lat="45.42489" lon="5.97836">
        <ele>338</ele>
        <time>2014-10-30T08:41:37Z</time>
      </trkpt>
      <trkpt lat="45.42472" lon="5.97827">
        <ele>343</ele>
        <time>2014-10-30T08:41:44Z</time>
      </trkpt>
      <trkpt lat="45.42452" lon="5.97817">
        <ele>343</ele>
        <time>2014-10-30T08:41:50Z</time>
      </trkpt>
      <trkpt lat="45.42433" lon="5.9781">
        <ele>343</ele>
        <time>2014-10-30T08:41:55Z</time>
      </trkpt>
      <trkpt lat="45.42413" lon="5.97803">
        <ele>341</ele>
        <time>2014-10-30T08:41:59Z</time>
      </trkpt>
      <trkpt lat="45.42394" lon="5.97796">
        <ele>342</ele>
        <time>2014-10-30T08:42:04Z</time>
      </trkpt>
      <trkpt lat="45.42376" lon="5.97781">
        <ele>343</ele>
        <time>2014-10-30T08:42:11Z</time>
      </trkpt>
      <trkpt lat="45.42357" lon="5.97767">
        <ele>343</ele>
        <time>2014-10-30T08:42:17Z</time>
      </trkpt>
      <trkpt lat="45.4234" lon="5.97753">
        <ele>345</ele>
        <time>2014-10-30T08:42:23Z</time>
      </trkpt>
      <trkpt lat="45.42324" lon="5.9774">
        <ele>347</ele>
        <time>2014-10-30T08:42:28Z</time>
      </trkpt>
      <trkpt lat="45.42305" lon="5.97728">
        <ele>348</ele>
        <time>2014-10-30T08:42:33Z</time>
      </trkpt>
      <trkpt lat="45.42288" lon="5.97714">
        <ele>349</ele>
        <time>2014-10-30T08:42:39Z</time>
      </trkpt>
      <trkpt lat="45.42272" lon="5.97702">
        <ele>349</ele>
        <time>2014-10-30T08:42:45Z</time>
      </trkpt>
      <trkpt lat="45.42257" lon="5.97688">
        <ele>351</ele>
        <time>2014-10-30T08:42:53Z</time>
      </trkpt>
      <trkpt lat="45.42239" lon="5.97677">
        <ele>350</ele>
        <time>2014-10-30T08:43:00Z</time>
      </trkpt>
      <trkpt lat="45.42221" lon="5.97667">
        <ele>349</ele>
        <time>2014-10-30T08:43:06Z</time>
      </trkpt>
      <trkpt lat="45.42202" lon="5.97655">
        <ele>356</ele>
        <time>2014-10-30T08:43:12Z</time>
      </trkpt>
      <trkpt lat="45.42182" lon="5.97643">
        <ele>356</ele>
        <time>2014-10-30T08:43:17Z</time>
      </trkpt>
      <trkpt lat="45.42164" lon="5.97631">
        <ele>354</ele>
        <time>2014-10-30T08:43:22Z</time>
      </trkpt>
      <trkpt lat="45.42144" lon="5.97619">
        <ele>354</ele>
        <time>2014-10-30T08:43:27Z</time>
      </trkpt>
      <trkpt lat="45.42123" lon="5.97606">
        <ele>354</ele>
        <time>2014-10-30T08:43:32Z</time>
      </trkpt>
      <trkpt lat="45.42106" lon="5.97596">
        <ele>354</ele>
        <time>2014-10-30T08:43:36Z</time>
      </trkpt>
      <trkpt lat="45.42084" lon="5.97586">
        <ele>354</ele>
        <time>2014-10-30T08:43:40Z</time>
      </trkpt>
      <trkpt lat="45.42065" lon="5.97579">
        <ele>356</ele>
        <time>2014-10-30T08:43:44Z</time>
      </trkpt>
      <trkpt lat="45.42045" lon="5.97568">
        <ele>356</ele>
        <time>2014-10-30T08:43:50Z</time>
      </trkpt>
      <trkpt lat="45.42025" lon="5.97558">
        <ele>356</ele>
        <time>2014-10-30T08:43:56Z</time>
      </trkpt>
      <trkpt lat="45.42006" lon="5.97551">
        <ele>357</ele>
        <time>2014-10-30T08:44:02Z</time>
      </trkpt>
      <trkpt lat="45.41988" lon="5.97544">
        <ele>357</ele>
        <time>2014-10-30T08:44:07Z</time>
      </trkpt>
      <trkpt lat="45.4197" lon="5.97533">
        <ele>358</ele>
        <time>2014-10-30T08:44:14Z</time>
      </trkpt>
      <trkpt lat="45.41953" lon="5.97522">
        <ele>359</ele>
        <time>2014-10-30T08:44:20Z</time>
      </trkpt>
      <trkpt lat="45.41936" lon="5.9751">
        <ele>360</ele>
        <time>2014-10-30T08:44:27Z</time>
      </trkpt>
      <trkpt lat="45.41917" lon="5.97499">
        <ele>363</ele>
        <time>2014-10-30T08:44:34Z</time>
      </trkpt>
      <trkpt lat="45.41897" lon="5.97492">
        <ele>366</ele>
        <time>2014-10-30T08:44:41Z</time>
      </trkpt>
      <trkpt lat="45.41877" lon="5.97488">
        <ele>366</ele>
        <time>2014-10-30T08:44:49Z</time>
      </trkpt>
      <trkpt lat="45.41856" lon="5.97485">
        <ele>366</ele>
        <time>2014-10-30T08:44:57Z</time>
      </trkpt>
      <trkpt lat="45.41837" lon="5.97479">
        <ele>366</ele>
        <time>2014-10-30T08:45:04Z</time>
      </trkpt>
      <trkpt lat="45.4182" lon="5.97471">
        <ele>366</ele>
        <time>2014-10-30T08:45:10Z</time>
      </trkpt>
      <trkpt lat="45.41802" lon="5.97465">
        <ele>366</ele>
        <time>2014-10-30T08:45:16Z</time>
      </trkpt>
      <trkpt lat="45.41786" lon="5.97451">
        <ele>367</ele>
        <time>2014-10-30T08:45:25Z</time>
      </trkpt>
      <trkpt lat="45.4177" lon="5.97437">
        <ele>367</ele>
        <time>2014-10-30T08:45:32Z</time>
      </trkpt>
      <trkpt lat="45.41751" lon="5.97426">
        <ele>368</ele>
        <time>2014-10-30T08:45:39Z</time>
      </trkpt>
      <trkpt lat="45.41733" lon="5.97416">
        <ele>372</ele>
        <time>2014-10-30T08:45:45Z</time>
      </trkpt>
      <trkpt lat="45.41715" lon="5.97407">
        <ele>373</ele>
        <time>2014-10-30T08:45:52Z</time>
      </trkpt>
      <trkpt lat="45.41699" lon="5.97396">
        <ele>374</ele>
        <time>2014-10-30T08:46:01Z</time>
      </trkpt>
      <trkpt lat="45.41682" lon="5.97386">
        <ele>375</ele>
        <time>2014-10-30T08:46:10Z</time>
      </trkpt>
      <trkpt lat="45.41663" lon="5.97378">
        <ele>376</ele>
        <time>2014-10-30T08:46:18Z</time>
      </trkpt>
      <trkpt lat="45.41646" lon="5.97368">
        <ele>377</ele>
        <time>2014-10-30T08:46:31Z</time>
      </trkpt>
      <trkpt lat="45.41628" lon="5.97357">
        <ele>378</ele>
        <time>2014-10-30T08:46:42Z</time>
      </trkpt>
      <trkpt lat="45.41612" lon="5.97342">
        <ele>379</ele>
        <time>2014-10-30T08:46:49Z</time>
      </trkpt>
      <trkpt lat="45.41595" lon="5.9733">
        <ele>386</ele>
        <time>2014-10-30T08:46:57Z</time>
      </trkpt>
      <trkpt lat="45.41575" lon="5.97318">
        <ele>386</ele>
        <time>2014-10-30T08:47:04Z</time>
      </trkpt>
      <trkpt lat="45.41557" lon="5.97306">
        <ele>387</ele>
        <time>2014-10-30T08:47:10Z</time>
      </trkpt>
      <trkpt lat="45.41541" lon="5.97295">
        <ele>388</ele>
        <time>2014-10-30T08:47:15Z</time>
      </trkpt>
      <trkpt lat="45.41526" lon="5.9728">
        <ele>388</ele>
        <time>2014-10-30T08:47:21Z</time>
      </trkpt>
      <trkpt lat="45.41509" lon="5.97266">
        <ele>389</ele>
        <time>2014-10-30T08:47:26Z</time>
      </trkpt>
      <trkpt lat="45.41493" lon="5.97255">
        <ele>389</ele>
        <time>2014-10-30T08:47:31Z</time>
      </trkpt>
      <trkpt lat="45.41477" lon="5.97242">
        <ele>390</ele>
        <time>2014-10-30T08:47:37Z</time>
      </trkpt>
      <trkpt lat="45.41458" lon="5.9723">
        <ele>390</ele>
        <time>2014-10-30T08:47:42Z</time>
      </trkpt>
      <trkpt lat="45.41441" lon="5.97218">
        <ele>390</ele>
        <time>2014-10-30T08:47:47Z</time>
      </trkpt>
      <trkpt lat="45.41422" lon="5.97207">
        <ele>390</ele>
        <time>2014-10-30T08:47:52Z</time>
      </trkpt>
      <trkpt lat="45.41404" lon="5.97195">
        <ele>388</ele>
        <time>2014-10-30T08:47:57Z</time>
      </trkpt>
      <trkpt lat="45.41385" lon="5.97186">
        <ele>388</ele>
        <time>2014-10-30T08:48:01Z</time>
      </trkpt>
      <trkpt lat="45.41368" lon="5.97176">
        <ele>388</ele>
        <time>2014-10-30T08:48:05Z</time>
      </trkpt>
      <trkpt lat="45.4135" lon="5.97165">
        <ele>390</ele>
        <time>2014-10-30T08:48:09Z</time>
      </trkpt>
      <trkpt lat="45.4133" lon="5.97151">
        <ele>388</ele>
        <time>2014-10-30T08:48:14Z</time>
      </trkpt>
      <trkpt lat="45.41311" lon="5.97138">
        <ele>388</ele>
        <time>2014-10-30T08:48:19Z</time>
      </trkpt>
      <trkpt lat="45.41295" lon="5.97126">
        <ele>388</ele>
        <time>2014-10-30T08:48:23Z</time>
      </trkpt>
      <trkpt lat="45.41275" lon="5.97111">
        <ele>388</ele>
        <time>2014-10-30T08:48:28Z</time>
      </trkpt>
      <trkpt lat="45.41255" lon="5.97098">
        <ele>389</ele>
        <time>2014-10-30T08:48:33Z</time>
      </trkpt>
      <trkpt lat="45.41237" lon="5.97084">
        <ele>388</ele>
        <time>2014-10-30T08:48:38Z</time>
      </trkpt>
      <trkpt lat="45.4122" lon="5.9707">
        <ele>392</ele>
        <time>2014-10-30T08:48:43Z</time>
      </trkpt>
      <trkpt lat="45.41203" lon="5.97056">
        <ele>392</ele>
        <time>2014-10-30T08:48:48Z</time>
      </trkpt>
      <trkpt lat="45.41187" lon="5.97042">
        <ele>393</ele>
        <time>2014-10-30T08:48:53Z</time>
      </trkpt>
      <trkpt lat="45.4117" lon="5.97029">
        <ele>394</ele>
        <time>2014-10-30T08:48:58Z</time>
      </trkpt>
      <trkpt lat="45.41157" lon="5.97008">
        <ele>394</ele>
        <time>2014-10-30T08:49:06Z</time>
      </trkpt>
      <trkpt lat="45.41144" lon="5.96989">
        <ele>398</ele>
        <time>2014-10-30T08:49:12Z</time>
      </trkpt>
      <trkpt lat="45.41127" lon="5.96973">
        <ele>399</ele>
        <time>2014-10-30T08:49:18Z</time>
      </trkpt>
      <trkpt lat="45.41111" lon="5.96962">
        <ele>400</ele>
        <time>2014-10-30T08:49:24Z</time>
      </trkpt>
      <trkpt lat="45.41094" lon="5.9695">
        <ele>400</ele>
        <time>2014-10-30T08:49:29Z</time>
      </trkpt>
      <trkpt lat="45.41081" lon="5.96931">
        <ele>400</ele>
        <time>2014-10-30T08:49:33Z</time>
      </trkpt>
      <trkpt lat="45.41066" lon="5.96912">
        <ele>404</ele>
        <time>2014-10-30T08:49:38Z</time>
      </trkpt>
      <trkpt lat="45.41052" lon="5.96896">
        <ele>404</ele>
        <time>2014-10-30T08:49:43Z</time>
      </trkpt>
      <trkpt lat="45.41037" lon="5.9688">
        <ele>405</ele>
        <time>2014-10-30T08:49:49Z</time>
      </trkpt>
      <trkpt lat="45.41022" lon="5.96864">
        <ele>405</ele>
        <time>2014-10-30T08:49:54Z</time>
      </trkpt>
      <trkpt lat="45.41007" lon="5.96846">
        <ele>406</ele>
        <time>2014-10-30T08:50:00Z</time>
      </trkpt>
      <trkpt lat="45.4099" lon="5.96829">
        <ele>408</ele>
        <time>2014-10-30T08:50:06Z</time>
      </trkpt>
      <trkpt lat="45.40975" lon="5.96813">
        <ele>409</ele>
        <time>2014-10-30T08:50:12Z</time>
      </trkpt>
      <trkpt lat="45.4096" lon="5.96794">
        <ele>410</ele>
        <time>2014-10-30T08:50:19Z</time>
      </trkpt>
      <trkpt lat="45.40945" lon="5.96776">
        <ele>410</ele>
        <time>2014-10-30T08:50:26Z</time>
      </trkpt>
      <trkpt lat="45.4093" lon="5.96759">
        <ele>408</ele>
        <time>2014-10-30T08:50:33Z</time>
      </trkpt>
      <trkpt lat="45.40913" lon="5.96745">
        <ele>407</ele>
        <time>2014-10-30T08:50:39Z</time>
      </trkpt>
      <trkpt lat="45.40896" lon="5.96732">
        <ele>413</ele>
        <time>2014-10-30T08:50:47Z</time>
      </trkpt>
      <trkpt lat="45.40877" lon="5.96722">
        <ele>415</ele>
        <time>2014-10-30T08:50:55Z</time>
      </trkpt>
      <trkpt lat="45.40859" lon="5.96718">
        <ele>416</ele>
        <time>2014-10-30T08:51:02Z</time>
      </trkpt>
      <trkpt lat="45.40838" lon="5.96717">
        <ele>416</ele>
        <time>2014-10-30T08:51:09Z</time>
      </trkpt>
      <trkpt lat="45.40818" lon="5.96718">
        <ele>416</ele>
        <time>2014-10-30T08:51:16Z</time>
      </trkpt>
      <trkpt lat="45.408" lon="5.96713">
        <ele>416</ele>
        <time>2014-10-30T08:51:24Z</time>
      </trkpt>
      <trkpt lat="45.40783" lon="5.967">
        <ele>416</ele>
        <time>2014-10-30T08:51:33Z</time>
      </trkpt>
      <trkpt lat="45.40765" lon="5.9669">
        <ele>417</ele>
        <time>2014-10-30T08:51:39Z</time>
      </trkpt>
      <trkpt lat="45.40751" lon="5.96673">
        <ele>420</ele>
        <time>2014-10-30T08:51:47Z</time>
      </trkpt>
      <trkpt lat="45.40743" lon="5.9665">
        <ele>421</ele>
        <time>2014-10-30T08:51:55Z</time>
      </trkpt>
      <trkpt lat="45.40737" lon="5.96625">
        <ele>421</ele>
        <time>2014-10-30T08:52:02Z</time>
      </trkpt>
      <trkpt lat="45.40728" lon="5.96598">
        <ele>423</ele>
        <time>2014-10-30T08:52:08Z</time>
      </trkpt>
      <trkpt lat="45.40716" lon="5.96574">
        <ele>429</ele>
        <time>2014-10-30T08:52:14Z</time>
      </trkpt>
      <trkpt lat="45.40697" lon="5.96561">
        <ele>428</ele>
        <time>2014-10-30T08:52:21Z</time>
      </trkpt>
      <trkpt lat="45.40677" lon="5.96559">
        <ele>427</ele>
        <time>2014-10-30T08:52:26Z</time>
      </trkpt>
      <trkpt lat="45.40659" lon="5.96559">
        <ele>425</ele>
        <time>2014-10-30T08:52:30Z</time>
      </trkpt>
      <trkpt lat="45.40638" lon="5.96557">
        <ele>425</ele>
        <time>2014-10-30T08:52:34Z</time>
      </trkpt>
      <trkpt lat="45.40617" lon="5.96551">
        <ele>425</ele>
        <time>2014-10-30T08:52:38Z</time>
      </trkpt>
      <trkpt lat="45.40596" lon="5.96541">
        <ele>425</ele>
        <time>2014-10-30T08:52:42Z</time>
      </trkpt>
      <trkpt lat="45.40576" lon="5.9653">
        <ele>423</ele>
        <time>2014-10-30T08:52:46Z</time>
      </trkpt>
      <trkpt lat="45.40558" lon="5.9652">
        <ele>422</ele>
        <time>2014-10-30T08:52:50Z</time>
      </trkpt>
      <trkpt lat="45.40537" lon="5.96511">
        <ele>421</ele>
        <time>2014-10-30T08:52:53Z</time>
      </trkpt>
      <trkpt lat="45.4052" lon="5.96503">
        <ele>420</ele>
        <time>2014-10-30T08:52:56Z</time>
      </trkpt>
      <trkpt lat="45.40498" lon="5.96492">
        <ele>421</ele>
        <time>2014-10-30T08:53:00Z</time>
      </trkpt>
      <trkpt lat="45.40479" lon="5.96482">
        <ele>423</ele>
        <time>2014-10-30T08:53:04Z</time>
      </trkpt>
      <trkpt lat="45.40459" lon="5.96472">
        <ele>423</ele>
        <time>2014-10-30T08:53:08Z</time>
      </trkpt>
      <trkpt lat="45.40441" lon="5.96464">
        <ele>423</ele>
        <time>2014-10-30T08:53:11Z</time>
      </trkpt>
      <trkpt lat="45.40419" lon="5.96455">
        <ele>424</ele>
        <time>2014-10-30T08:53:15Z</time>
      </trkpt>
      <trkpt lat="45.40401" lon="5.96451">
        <ele>422</ele>
        <time>2014-10-30T08:53:19Z</time>
      </trkpt>
      <trkpt lat="45.40382" lon="5.96444">
        <ele>422</ele>
        <time>2014-10-30T08:53:23Z</time>
      </trkpt>
      <trkpt lat="45.40364" lon="5.96438">
        <ele>422</ele>
        <time>2014-10-30T08:53:26Z</time>
      </trkpt>
      <trkpt lat="45.40342" lon="5.9643">
        <ele>423</ele>
        <time>2014-10-30T08:53:30Z</time>
      </trkpt>
      <trkpt lat="45.40324" lon="5.96426">
        <ele>423</ele>
        <time>2014-10-30T08:53:33Z</time>
      </trkpt>
      <trkpt lat="45.40302" lon="5.9642">
        <ele>422</ele>
        <time>2014-10-30T08:53:37Z</time>
      </trkpt>
      <trkpt lat="45.4028" lon="5.96416">
        <ele>432</ele>
        <time>2014-10-30T08:53:41Z</time>
      </trkpt>
      <trkpt lat="45.40258" lon="5.96413">
        <ele>429</ele>
        <time>2014-10-30T08:53:45Z</time>
      </trkpt>
      <trkpt lat="45.40236" lon="5.9641">
        <ele>430</ele>
        <time>2014-10-30T08:53:49Z</time>
      </trkpt>
      <trkpt lat="45.40215" lon="5.96408">
        <ele>431</ele>
        <time>2014-10-30T08:53:53Z</time>
      </trkpt>
      <trkpt lat="45.40193" lon="5.96402">
        <ele>431</ele>
        <time>2014-10-30T08:53:57Z</time>
      </trkpt>
      <trkpt lat="45.40172" lon="5.96401">
        <ele>430</ele>
        <time>2014-10-30T08:54:01Z</time>
      </trkpt>
      <trkpt lat="45.40151" lon="5.96396">
        <ele>430</ele>
        <time>2014-10-30T08:54:06Z</time>
      </trkpt>
      <trkpt lat="45.40129" lon="5.96393">
        <ele>431</ele>
        <time>2014-10-30T08:54:10Z</time>
      </trkpt>
      <trkpt lat="45.40106" lon="5.96387">
        <ele>431</ele>
        <time>2014-10-30T08:54:14Z</time>
      </trkpt>
      <trkpt lat="45.40088" lon="5.96383">
        <ele>431</ele>
        <time>2014-10-30T08:54:17Z</time>
      </trkpt>
      <trkpt lat="45.40068" lon="5.96379">
        <ele>429</ele>
        <time>2014-10-30T08:54:21Z</time>
      </trkpt>
      <trkpt lat="45.40048" lon="5.96375">
        <ele>429</ele>
        <time>2014-10-30T08:54:25Z</time>
      </trkpt>
      <trkpt lat="45.4003" lon="5.96371">
        <ele>429</ele>
        <time>2014-10-30T08:54:29Z</time>
      </trkpt>
      <trkpt lat="45.40011" lon="5.96368">
        <ele>429</ele>
        <time>2014-10-30T08:54:33Z</time>
      </trkpt>
      <trkpt lat="45.39992" lon="5.96364">
        <ele>428</ele>
        <time>2014-10-30T08:54:38Z</time>
      </trkpt>
      <trkpt lat="45.39974" lon="5.96356">
        <ele>428</ele>
        <time>2014-10-30T08:54:42Z</time>
      </trkpt>
      <trkpt lat="45.39954" lon="5.96348">
        <ele>427</ele>
        <time>2014-10-30T08:54:47Z</time>
      </trkpt>
      <trkpt lat="45.39937" lon="5.96336">
        <ele>427</ele>
        <time>2014-10-30T08:54:50Z</time>
      </trkpt>
      <trkpt lat="45.39922" lon="5.96315">
        <ele>429</ele>
        <time>2014-10-30T08:54:54Z</time>
      </trkpt>
      <trkpt lat="45.399" lon="5.96302">
        <ele>425</ele>
        <time>2014-10-30T08:54:57Z</time>
      </trkpt>
      <trkpt lat="45.39878" lon="5.96289">
        <ele>424</ele>
        <time>2014-10-30T08:55:00Z</time>
      </trkpt>
      <trkpt lat="45.39859" lon="5.96282">
        <ele>424</ele>
        <time>2014-10-30T08:55:02Z</time>
      </trkpt>
      <trkpt lat="45.3984" lon="5.96275">
        <ele>423</ele>
        <time>2014-10-30T08:55:04Z</time>
      </trkpt>
      <trkpt lat="45.39821" lon="5.9627">
        <ele>419</ele>
        <time>2014-10-30T08:55:06Z</time>
      </trkpt>
      <trkpt lat="45.39801" lon="5.9627">
        <ele>419</ele>
        <time>2014-10-30T08:55:08Z</time>
      </trkpt>
      <trkpt lat="45.39781" lon="5.96274">
        <ele>418</ele>
        <time>2014-10-30T08:55:10Z</time>
      </trkpt>
      <trkpt lat="45.39755" lon="5.96276">
        <ele>418</ele>
        <time>2014-10-30T08:55:13Z</time>
      </trkpt>
      <trkpt lat="45.39731" lon="5.96265">
        <ele>416</ele>
        <time>2014-10-30T08:55:16Z</time>
      </trkpt>
      <trkpt lat="45.39708" lon="5.96252">
        <ele>416</ele>
        <time>2014-10-30T08:55:19Z</time>
      </trkpt>
      <trkpt lat="45.39683" lon="5.9624">
        <ele>414</ele>
        <time>2014-10-30T08:55:22Z</time>
      </trkpt>
      <trkpt lat="45.3966" lon="5.96227">
        <ele>412</ele>
        <time>2014-10-30T08:55:25Z</time>
      </trkpt>
      <trkpt lat="45.39638" lon="5.96215">
        <ele>411</ele>
        <time>2014-10-30T08:55:28Z</time>
      </trkpt>
      <trkpt lat="45.39616" lon="5.96205">
        <ele>410</ele>
        <time>2014-10-30T08:55:31Z</time>
      </trkpt>
      <trkpt lat="45.39594" lon="5.96198">
        <ele>409</ele>
        <time>2014-10-30T08:55:34Z</time>
      </trkpt>
      <trkpt lat="45.39574" lon="5.9618">
        <ele>407</ele>
        <time>2014-10-30T08:55:37Z</time>
      </trkpt>
      <trkpt lat="45.39565" lon="5.96154">
        <ele>407</ele>
        <time>2014-10-30T08:55:40Z</time>
      </trkpt>
      <trkpt lat="45.3955" lon="5.96133">
        <ele>408</ele>
        <time>2014-10-30T08:55:44Z</time>
      </trkpt>
      <trkpt lat="45.39533" lon="5.96123">
        <ele>408</ele>
        <time>2014-10-30T08:55:47Z</time>
      </trkpt>
      <trkpt lat="45.39516" lon="5.96107">
        <ele>408</ele>
        <time>2014-10-30T08:55:52Z</time>
      </trkpt>
      <trkpt lat="45.39498" lon="5.96094">
        <ele>408</ele>
        <time>2014-10-30T08:55:58Z</time>
      </trkpt>
      <trkpt lat="45.3948" lon="5.9608">
        <ele>412</ele>
        <time>2014-10-30T08:56:06Z</time>
      </trkpt>
      <trkpt lat="45.39463" lon="5.96064">
        <ele>413</ele>
        <time>2014-10-30T08:56:13Z</time>
      </trkpt>
      <trkpt lat="45.39447" lon="5.9605">
        <ele>413</ele>
        <time>2014-10-30T08:56:22Z</time>
      </trkpt>
      <trkpt lat="45.3943" lon="5.96043">
        <ele>413</ele>
        <time>2014-10-30T08:56:27Z</time>
      </trkpt>
      <trkpt lat="45.3941" lon="5.96033">
        <ele>412</ele>
        <time>2014-10-30T08:56:33Z</time>
      </trkpt>
      <trkpt lat="45.39402" lon="5.96007">
        <ele>413</ele>
        <time>2014-10-30T08:56:39Z</time>
      </trkpt>
      <trkpt lat="45.39398" lon="5.95982">
        <ele>419</ele>
        <time>2014-10-30T08:56:47Z</time>
      </trkpt>
      <trkpt lat="45.39378" lon="5.95968">
        <ele>420</ele>
        <time>2014-10-30T08:56:52Z</time>
      </trkpt>
      <trkpt lat="45.3936" lon="5.95957">
        <ele>420</ele>
        <time>2014-10-30T08:56:59Z</time>
      </trkpt>
      <trkpt lat="45.3934" lon="5.95946">
        <ele>421</ele>
        <time>2014-10-30T08:57:06Z</time>
      </trkpt>
      <trkpt lat="45.39322" lon="5.95936">
        <ele>419</ele>
        <time>2014-10-30T08:57:13Z</time>
      </trkpt>
      <trkpt lat="45.39304" lon="5.95927">
        <ele>418</ele>
        <time>2014-10-30T08:57:19Z</time>
      </trkpt>
      <trkpt lat="45.39287" lon="5.95913">
        <ele>426</ele>
        <time>2014-10-30T08:57:31Z</time>
      </trkpt>
      <trkpt lat="45.39269" lon="5.95901">
        <ele>425</ele>
        <time>2014-10-30T08:57:40Z</time>
      </trkpt>
      <trkpt lat="45.39251" lon="5.9589">
        <ele>425</ele>
        <time>2014-10-30T08:57:47Z</time>
      </trkpt>
      <trkpt lat="45.39232" lon="5.95882">
        <ele>421</ele>
        <time>2014-10-30T08:57:52Z</time>
      </trkpt>
      <trkpt lat="45.39213" lon="5.95875">
        <ele>421</ele>
        <time>2014-10-30T08:57:57Z</time>
      </trkpt>
      <trkpt lat="45.39196" lon="5.95866">
        <ele>421</ele>
        <time>2014-10-30T08:58:03Z</time>
      </trkpt>
      <trkpt lat="45.39177" lon="5.95855">
        <ele>421</ele>
        <time>2014-10-30T08:58:08Z</time>
      </trkpt>
      <trkpt lat="45.3916" lon="5.95845">
        <ele>419</ele>
        <time>2014-10-30T08:58:12Z</time>
      </trkpt>
      <trkpt lat="45.39141" lon="5.95831">
        <ele>421</ele>
        <time>2014-10-30T08:58:16Z</time>
      </trkpt>
      <trkpt lat="45.39123" lon="5.95823">
        <ele>421</ele>
        <time>2014-10-30T08:58:19Z</time>
      </trkpt>
      <trkpt lat="45.39106" lon="5.95813">
        <ele>420</ele>
        <time>2014-10-30T08:58:22Z</time>
      </trkpt>
      <trkpt lat="45.39088" lon="5.95807">
        <ele>420</ele>
        <time>2014-10-30T08:58:25Z</time>
      </trkpt>
      <trkpt lat="45.3907" lon="5.95806">
        <ele>416</ele>
        <time>2014-10-30T08:58:28Z</time>
      </trkpt>
      <trkpt lat="45.39045" lon="5.95803">
        <ele>416</ele>
        <time>2014-10-30T08:58:32Z</time>
      </trkpt>
      <trkpt lat="45.39022" lon="5.95797">
        <ele>415</ele>
        <time>2014-10-30T08:58:36Z</time>
      </trkpt>
      <trkpt lat="45.38997" lon="5.95792">
        <ele>408</ele>
        <time>2014-10-30T08:58:40Z</time>
      </trkpt>
      <trkpt lat="45.38978" lon="5.95791">
        <ele>407</ele>
        <time>2014-10-30T08:58:42Z</time>
      </trkpt>
      <trkpt lat="45.3896" lon="5.95789">
        <ele>406</ele>
        <time>2014-10-30T08:58:44Z</time>
      </trkpt>
      <trkpt lat="45.38944" lon="5.95773">
        <ele>405</ele>
        <time>2014-10-30T08:58:47Z</time>
      </trkpt>
      <trkpt lat="45.38931" lon="5.95748">
        <ele>405</ele>
        <time>2014-10-30T08:58:50Z</time>
      </trkpt>
      <trkpt lat="45.38918" lon="5.95723">
        <ele>407</ele>
        <time>2014-10-30T08:58:53Z</time>
      </trkpt>
      <trkpt lat="45.38903" lon="5.95697">
        <ele>401</ele>
        <time>2014-10-30T08:58:56Z</time>
      </trkpt>
      <trkpt lat="45.38886" lon="5.95674">
        <ele>400</ele>
        <time>2014-10-30T08:58:59Z</time>
      </trkpt>
      <trkpt lat="45.38868" lon="5.95654">
        <ele>402</ele>
        <time>2014-10-30T08:59:02Z</time>
      </trkpt>
      <trkpt lat="45.38851" lon="5.95639">
        <ele>402</ele>
        <time>2014-10-30T08:59:05Z</time>
      </trkpt>
      <trkpt lat="45.38836" lon="5.95623">
        <ele>402</ele>
        <time>2014-10-30T08:59:08Z</time>
      </trkpt>
      <trkpt lat="45.3882" lon="5.95605">
        <ele>396</ele>
        <time>2014-10-30T08:59:11Z</time>
      </trkpt>
      <trkpt lat="45.38804" lon="5.95583">
        <ele>398</ele>
        <time>2014-10-30T08:59:14Z</time>
      </trkpt>
      <trkpt lat="45.38789" lon="5.95556">
        <ele>397</ele>
        <time>2014-10-30T08:59:17Z</time>
      </trkpt>
      <trkpt lat="45.38777" lon="5.95524">
        <ele>396</ele>
        <time>2014-10-30T08:59:20Z</time>
      </trkpt>
      <trkpt lat="45.38765" lon="5.95504">
        <ele>395</ele>
        <time>2014-10-30T08:59:22Z</time>
      </trkpt>
      <trkpt lat="45.38746" lon="5.95487">
        <ele>390</ele>
        <time>2014-10-30T08:59:25Z</time>
      </trkpt>
      <trkpt lat="45.38722" lon="5.95477">
        <ele>388</ele>
        <time>2014-10-30T08:59:29Z</time>
      </trkpt>
      <trkpt lat="45.38709" lon="5.95458">
        <ele>387</ele>
        <time>2014-10-30T08:59:32Z</time>
      </trkpt>
      <trkpt lat="45.387" lon="5.95435">
        <ele>386</ele>
        <time>2014-10-30T08:59:37Z</time>
      </trkpt>
      <trkpt lat="45.38677" lon="5.95425">
        <ele>383</ele>
        <time>2014-10-30T09:00:23Z</time>
      </trkpt>
      <trkpt lat="45.38674" lon="5.95398">
        <ele>384</ele>
        <time>2014-10-30T09:00:30Z</time>
      </trkpt>
      <trkpt lat="45.38671" lon="5.95371">
        <ele>384</ele>
        <time>2014-10-30T09:00:34Z</time>
      </trkpt>
      <trkpt lat="45.38652" lon="5.95367">
        <ele>373</ele>
        <time>2014-10-30T09:00:37Z</time>
      </trkpt>
      <trkpt lat="45.38637" lon="5.95381">
        <ele>372</ele>
        <time>2014-10-30T09:00:40Z</time>
      </trkpt>
      <trkpt lat="45.38645" lon="5.95355">
        <ele>372</ele>
        <time>2014-10-30T09:00:49Z</time>
      </trkpt>
      <trkpt lat="45.38659" lon="5.95334">
        <ele>375</ele>
        <time>2014-10-30T09:00:54Z</time>
      </trkpt>
      <trkpt lat="45.38666" lon="5.95307">
        <ele>372</ele>
        <time>2014-10-30T09:00:58Z</time>
      </trkpt>
      <trkpt lat="45.38669" lon="5.95277">
        <ele>381</ele>
        <time>2014-10-30T09:01:02Z</time>
      </trkpt>
      <trkpt lat="45.38665" lon="5.95249">
        <ele>373</ele>
        <time>2014-10-30T09:01:06Z</time>
      </trkpt>
      <trkpt lat="45.38656" lon="5.95226">
        <ele>373</ele>
        <time>2014-10-30T09:01:12Z</time>
      </trkpt>
      <trkpt lat="45.3865" lon="5.952">
        <ele>375</ele>
        <time>2014-10-30T09:01:22Z</time>
      </trkpt>
      <trkpt lat="45.38643" lon="5.95175">
        <ele>376</ele>
        <time>2014-10-30T09:01:29Z</time>
      </trkpt>
      <trkpt lat="45.38631" lon="5.95151">
        <ele>385</ele>
        <time>2014-10-30T09:01:56Z</time>
      </trkpt>
      <trkpt lat="45.38613" lon="5.95124">
        <ele>387</ele>
        <time>2014-10-30T09:03:54Z</time>
      </trkpt>
      <trkpt lat="45.38622" lon="5.95146">
        <ele>385</ele>
        <time>2014-10-30T09:05:47Z</time>
      </trkpt>
      <trkpt lat="45.38606" lon="5.95131">
        <ele>386</ele>
        <time>2014-10-30T09:07:56Z</time>
      </trkpt>
      <trkpt lat="45.38592" lon="5.95114">
        <ele>389</ele>
        <time>2014-10-30T09:08:18Z</time>
      </trkpt>
      <trkpt lat="45.38577" lon="5.951">
        <ele>389</ele>
        <time>2014-10-30T09:08:46Z</time>
      </trkpt>
      <trkpt lat="45.38561" lon="5.95085">
        <ele>389</ele>
        <time>2014-10-30T09:09:08Z</time>
      </trkpt>
      <trkpt lat="45.38548" lon="5.95067">
        <ele>402</ele>
        <time>2014-10-30T09:09:31Z</time>
      </trkpt>
      <trkpt lat="45.38535" lon="5.95048">
        <ele>404</ele>
        <time>2014-10-30T09:10:13Z</time>
      </trkpt>
      <trkpt lat="45.38524" lon="5.95028">
        <ele>406</ele>
        <time>2014-10-30T09:10:36Z</time>
      </trkpt>
      <trkpt lat="45.3851" lon="5.95011">
        <ele>410</ele>
        <time>2014-10-30T09:11:07Z</time>
      </trkpt>
      <trkpt lat="45.38498" lon="5.94991">
        <ele>416</ele>
        <time>2014-10-30T09:11:32Z</time>
      </trkpt>
      <trkpt lat="45.38485" lon="5.94972">
        <ele>420</ele>
        <time>2014-10-30T09:12:02Z</time>
      </trkpt>
      <trkpt lat="45.38468" lon="5.94961">
        <ele>421</ele>
        <time>2014-10-30T09:12:11Z</time>
      </trkpt>
      <trkpt lat="45.38451" lon="5.94949">
        <ele>421</ele>
        <time>2014-10-30T09:12:19Z</time>
      </trkpt>
      <trkpt lat="45.38436" lon="5.94931">
        <ele>424</ele>
        <time>2014-10-30T09:12:27Z</time>
      </trkpt>
      <trkpt lat="45.38424" lon="5.94912">
        <ele>434</ele>
        <time>2014-10-30T09:12:43Z</time>
      </trkpt>
      <trkpt lat="45.3841" lon="5.94893">
        <ele>435</ele>
        <time>2014-10-30T09:13:02Z</time>
      </trkpt>
      <trkpt lat="45.38396" lon="5.94877">
        <ele>438</ele>
        <time>2014-10-30T09:13:24Z</time>
      </trkpt>
      <trkpt lat="45.38383" lon="5.94859">
        <ele>441</ele>
        <time>2014-10-30T09:13:44Z</time>
      </trkpt>
      <trkpt lat="45.38369" lon="5.94842">
        <ele>443</ele>
        <time>2014-10-30T09:14:02Z</time>
      </trkpt>
      <trkpt lat="45.38359" lon="5.9482">
        <ele>467</ele>
        <time>2014-10-30T09:14:31Z</time>
      </trkpt>
      <trkpt lat="45.38341" lon="5.94818">
        <ele>463</ele>
        <time>2014-10-30T09:14:53Z</time>
      </trkpt>
      <trkpt lat="45.38321" lon="5.94816">
        <ele>456</ele>
        <time>2014-10-30T09:15:06Z</time>
      </trkpt>
      <trkpt lat="45.38304" lon="5.94803">
        <ele>458</ele>
        <time>2014-10-30T09:15:14Z</time>
      </trkpt>
      <trkpt lat="45.38287" lon="5.94794">
        <ele>458</ele>
        <time>2014-10-30T09:15:24Z</time>
      </trkpt>
      <trkpt lat="45.38267" lon="5.94797">
        <ele>454</ele>
        <time>2014-10-30T09:15:32Z</time>
      </trkpt>
      <trkpt lat="45.38245" lon="5.94792">
        <ele>443</ele>
        <time>2014-10-30T09:15:37Z</time>
      </trkpt>
      <trkpt lat="45.38229" lon="5.94776">
        <ele>446</ele>
        <time>2014-10-30T09:15:41Z</time>
      </trkpt>
      <trkpt lat="45.38212" lon="5.94763">
        <ele>446</ele>
        <time>2014-10-30T09:15:47Z</time>
      </trkpt>
      <trkpt lat="45.38192" lon="5.94758">
        <ele>445</ele>
        <time>2014-10-30T09:15:56Z</time>
      </trkpt>
      <trkpt lat="45.38172" lon="5.94758">
        <ele>446</ele>
        <time>2014-10-30T09:16:03Z</time>
      </trkpt>
      <trkpt lat="45.38152" lon="5.94765">
        <ele>435</ele>
        <time>2014-10-30T09:16:08Z</time>
      </trkpt>
      <trkpt lat="45.38134" lon="5.94776">
        <ele>429</ele>
        <time>2014-10-30T09:16:14Z</time>
      </trkpt>
      <trkpt lat="45.38115" lon="5.94766">
        <ele>428</ele>
        <time>2014-10-30T09:16:19Z</time>
      </trkpt>
      <trkpt lat="45.38098" lon="5.94757">
        <ele>430</ele>
        <time>2014-10-30T09:16:24Z</time>
      </trkpt>
      <trkpt lat="45.38081" lon="5.94744">
        <ele>436</ele>
        <time>2014-10-30T09:16:30Z</time>
      </trkpt>
      <trkpt lat="45.38065" lon="5.94731">
        <ele>440</ele>
        <time>2014-10-30T09:16:38Z</time>
      </trkpt>
      <trkpt lat="45.38049" lon="5.94717">
        <ele>442</ele>
        <time>2014-10-30T09:16:50Z</time>
      </trkpt>
      <trkpt lat="45.38034" lon="5.947">
        <ele>444</ele>
        <time>2014-10-30T09:17:01Z</time>
      </trkpt>
      <trkpt lat="45.38019" lon="5.94685">
        <ele>445</ele>
        <time>2014-10-30T09:17:11Z</time>
      </trkpt>
      <trkpt lat="45.38" lon="5.94671">
        <ele>449</ele>
        <time>2014-10-30T09:17:21Z</time>
      </trkpt>
      <trkpt lat="45.37984" lon="5.94656">
        <ele>453</ele>
        <time>2014-10-30T09:17:29Z</time>
      </trkpt>
      <trkpt lat="45.37968" lon="5.94644">
        <ele>454</ele>
        <time>2014-10-30T09:17:36Z</time>
      </trkpt>
      <trkpt lat="45.37946" lon="5.94634">
        <ele>453</ele>
        <time>2014-10-30T09:17:41Z</time>
      </trkpt>
      <trkpt lat="45.37925" lon="5.94627">
        <ele>452</ele>
        <time>2014-10-30T09:17:46Z</time>
      </trkpt>
      <trkpt lat="45.37905" lon="5.94633">
        <ele>438</ele>
        <time>2014-10-30T09:17:51Z</time>
      </trkpt>
      <trkpt lat="45.37885" lon="5.94634">
        <ele>437</ele>
        <time>2014-10-30T09:17:55Z</time>
      </trkpt>
      <trkpt lat="45.37863" lon="5.94634">
        <ele>435</ele>
        <time>2014-10-30T09:18:00Z</time>
      </trkpt>
      <trkpt lat="45.37842" lon="5.94635">
        <ele>433</ele>
        <time>2014-10-30T09:18:03Z</time>
      </trkpt>
      <trkpt lat="45.3782" lon="5.94637">
        <ele>426</ele>
        <time>2014-10-30T09:18:06Z</time>
      </trkpt>
      <trkpt lat="45.37803" lon="5.94649">
        <ele>424</ele>
        <time>2014-10-30T09:18:11Z</time>
      </trkpt>
      <trkpt lat="45.37784" lon="5.94647">
        <ele>423</ele>
        <time>2014-10-30T09:18:23Z</time>
      </trkpt>
      <trkpt lat="45.37766" lon="5.94635">
        <ele>423</ele>
        <time>2014-10-30T09:18:38Z</time>
      </trkpt>
      <trkpt lat="45.37752" lon="5.94618">
        <ele>426</ele>
        <time>2014-10-30T09:18:52Z</time>
      </trkpt>
      <trkpt lat="45.37735" lon="5.94604">
        <ele>424</ele>
        <time>2014-10-30T09:19:07Z</time>
      </trkpt>
      <trkpt lat="45.37717" lon="5.94595">
        <ele>423</ele>
        <time>2014-10-30T09:19:25Z</time>
      </trkpt>
      <trkpt lat="45.37698" lon="5.94588">
        <ele>423</ele>
        <time>2014-10-30T09:19:43Z</time>
      </trkpt>
      <trkpt lat="45.37681" lon="5.94577">
        <ele>435</ele>
        <time>2014-10-30T09:19:59Z</time>
      </trkpt>
      <trkpt lat="45.37665" lon="5.94566">
        <ele>434</ele>
        <time>2014-10-30T09:20:13Z</time>
      </trkpt>
      <trkpt lat="45.37651" lon="5.94547">
        <ele>439</ele>
        <time>2014-10-30T09:20:28Z</time>
      </trkpt>
      <trkpt lat="45.37637" lon="5.94532">
        <ele>442</ele>
        <time>2014-10-30T09:20:43Z</time>
      </trkpt>
      <trkpt lat="45.37624" lon="5.94512">
        <ele>444</ele>
        <time>2014-10-30T09:21:02Z</time>
      </trkpt>
      <trkpt lat="45.37606" lon="5.94504">
        <ele>445</ele>
        <time>2014-10-30T09:21:23Z</time>
      </trkpt>
      <trkpt lat="45.37588" lon="5.94504">
        <ele>449</ele>
        <time>2014-10-30T09:21:37Z</time>
      </trkpt>
      <trkpt lat="45.37602" lon="5.94487">
        <ele>461</ele>
        <time>2014-10-30T09:21:56Z</time>
      </trkpt>
      <trkpt lat="45.37619" lon="5.94475">
        <ele>465</ele>
        <time>2014-10-30T09:22:06Z</time>
      </trkpt>
      <trkpt lat="45.37636" lon="5.94466">
        <ele>468</ele>
        <time>2014-10-30T09:22:21Z</time>
      </trkpt>
      <trkpt lat="45.37656" lon="5.9447">
        <ele>467</ele>
        <time>2014-10-30T09:22:32Z</time>
      </trkpt>
      <trkpt lat="45.37675" lon="5.94467">
        <ele>473</ele>
        <time>2014-10-30T09:22:44Z</time>
      </trkpt>
      <trkpt lat="45.37693" lon="5.94468">
        <ele>474</ele>
        <time>2014-10-30T09:22:55Z</time>
      </trkpt>
      <trkpt lat="45.37711" lon="5.94471">
        <ele>475</ele>
        <time>2014-10-30T09:23:09Z</time>
      </trkpt>
      <trkpt lat="45.37729" lon="5.94466">
        <ele>476</ele>
        <time>2014-10-30T09:23:21Z</time>
      </trkpt>
      <trkpt lat="45.37748" lon="5.94467">
        <ele>476</ele>
        <time>2014-10-30T09:23:34Z</time>
      </trkpt>
      <trkpt lat="45.37766" lon="5.94466">
        <ele>486</ele>
        <time>2014-10-30T09:23:46Z</time>
      </trkpt>
      <trkpt lat="45.37784" lon="5.94474">
        <ele>486</ele>
        <time>2014-10-30T09:23:59Z</time>
      </trkpt>
      <trkpt lat="45.37802" lon="5.94472">
        <ele>488</ele>
        <time>2014-10-30T09:24:13Z</time>
      </trkpt>
      <trkpt lat="45.3782" lon="5.94478">
        <ele>487</ele>
        <time>2014-10-30T09:24:27Z</time>
      </trkpt>
      <trkpt lat="45.37839" lon="5.94481">
        <ele>496</ele>
        <time>2014-10-30T09:24:38Z</time>
      </trkpt>
      <trkpt lat="45.37855" lon="5.94466">
        <ele>504</ele>
        <time>2014-10-30T09:24:51Z</time>
      </trkpt>
      <trkpt lat="45.37872" lon="5.94458">
        <ele>508</ele>
        <time>2014-10-30T09:25:06Z</time>
      </trkpt>
      <trkpt lat="45.37891" lon="5.94461">
        <ele>510</ele>
        <time>2014-10-30T09:25:19Z</time>
      </trkpt>
      <trkpt lat="45.37908" lon="5.94468">
        <ele>509</ele>
        <time>2014-10-30T09:25:33Z</time>
      </trkpt>
      <trkpt lat="45.3792" lon="5.94488">
        <ele>513</ele>
        <time>2014-10-30T09:25:52Z</time>
      </trkpt>
      <trkpt lat="45.37934" lon="5.94507">
        <ele>499</ele>
        <time>2014-10-30T09:26:05Z</time>
      </trkpt>
      <trkpt lat="45.37951" lon="5.94515">
        <ele>500</ele>
        <time>2014-10-30T09:26:19Z</time>
      </trkpt>
      <trkpt lat="45.37968" lon="5.94526">
        <ele>502</ele>
        <time>2014-10-30T09:26:32Z</time>
      </trkpt>
      <trkpt lat="45.37985" lon="5.94535">
        <ele>502</ele>
        <time>2014-10-30T09:26:47Z</time>
      </trkpt>
      <trkpt lat="45.38003" lon="5.94544">
        <ele>518</ele>
        <time>2014-10-30T09:27:02Z</time>
      </trkpt>
      <trkpt lat="45.38022" lon="5.94552">
        <ele>518</ele>
        <time>2014-10-30T09:27:14Z</time>
      </trkpt>
      <trkpt lat="45.3804" lon="5.94555">
        <ele>520</ele>
        <time>2014-10-30T09:27:28Z</time>
      </trkpt>
      <trkpt lat="45.38058" lon="5.94559">
        <ele>521</ele>
        <time>2014-10-30T09:27:42Z</time>
      </trkpt>
      <trkpt lat="45.38076" lon="5.94562">
        <ele>521</ele>
        <time>2014-10-30T09:27:55Z</time>
      </trkpt>
      <trkpt lat="45.38093" lon="5.94567">
        <ele>532</ele>
        <time>2014-10-30T09:28:09Z</time>
      </trkpt>
      <trkpt lat="45.38111" lon="5.94568">
        <ele>538</ele>
        <time>2014-10-30T09:28:23Z</time>
      </trkpt>
      <trkpt lat="45.3813" lon="5.94569">
        <ele>541</ele>
        <time>2014-10-30T09:28:38Z</time>
      </trkpt>
      <trkpt lat="45.38148" lon="5.94565">
        <ele>543</ele>
        <time>2014-10-30T09:28:51Z</time>
      </trkpt>
      <trkpt lat="45.38167" lon="5.94567">
        <ele>541</ele>
        <time>2014-10-30T09:29:06Z</time>
      </trkpt>
      <trkpt lat="45.38186" lon="5.94572">
        <ele>554</ele>
        <time>2014-10-30T09:29:18Z</time>
      </trkpt>
      <trkpt lat="45.38201" lon="5.94587">
        <ele>531</ele>
        <time>2014-10-30T09:29:32Z</time>
      </trkpt>
      <trkpt lat="45.38218" lon="5.94597">
        <ele>533</ele>
        <time>2014-10-30T09:29:45Z</time>
      </trkpt>
      <trkpt lat="45.38206" lon="5.94575">
        <ele>560</ele>
        <time>2014-10-30T09:30:10Z</time>
      </trkpt>
      <trkpt lat="45.38192" lon="5.94558">
        <ele>561</ele>
        <time>2014-10-30T09:30:24Z</time>
      </trkpt>
      <trkpt lat="45.38176" lon="5.94542">
        <ele>564</ele>
        <time>2014-10-30T09:30:37Z</time>
      </trkpt>
      <trkpt lat="45.38158" lon="5.94534">
        <ele>553</ele>
        <time>2014-10-30T09:30:50Z</time>
      </trkpt>
      <trkpt lat="45.38141" lon="5.94524">
        <ele>555</ele>
        <time>2014-10-30T09:31:06Z</time>
      </trkpt>
      <trkpt lat="45.38123" lon="5.94517">
        <ele>553</ele>
        <time>2014-10-30T09:31:19Z</time>
      </trkpt>
      <trkpt lat="45.38104" lon="5.9451">
        <ele>553</ele>
        <time>2014-10-30T09:31:32Z</time>
      </trkpt>
      <trkpt lat="45.38087" lon="5.94502">
        <ele>558</ele>
        <time>2014-10-30T09:31:45Z</time>
      </trkpt>
      <trkpt lat="45.3807" lon="5.94492">
        <ele>562</ele>
        <time>2014-10-30T09:31:56Z</time>
      </trkpt>
      <trkpt lat="45.38053" lon="5.94482">
        <ele>561</ele>
        <time>2014-10-30T09:32:07Z</time>
      </trkpt>
      <trkpt lat="45.38036" lon="5.94469">
        <ele>561</ele>
        <time>2014-10-30T09:32:18Z</time>
      </trkpt>
      <trkpt lat="45.38021" lon="5.94452">
        <ele>562</ele>
        <time>2014-10-30T09:32:30Z</time>
      </trkpt>
      <trkpt lat="45.38011" lon="5.9443">
        <ele>565</ele>
        <time>2014-10-30T09:32:42Z</time>
      </trkpt>
      <trkpt lat="45.38012" lon="5.94401">
        <ele>586</ele>
        <time>2014-10-30T09:32:56Z</time>
      </trkpt>
      <trkpt lat="45.37999" lon="5.94381">
        <ele>577</ele>
        <time>2014-10-30T09:33:09Z</time>
      </trkpt>
      <trkpt lat="45.37983" lon="5.94367">
        <ele>580</ele>
        <time>2014-10-30T09:33:21Z</time>
      </trkpt>
      <trkpt lat="45.37965" lon="5.94358">
        <ele>579</ele>
        <time>2014-10-30T09:33:35Z</time>
      </trkpt>
      <trkpt lat="45.37946" lon="5.94356">
        <ele>577</ele>
        <time>2014-10-30T09:33:50Z</time>
      </trkpt>
      <trkpt lat="45.37929" lon="5.94345">
        <ele>579</ele>
        <time>2014-10-30T09:34:03Z</time>
      </trkpt>
      <trkpt lat="45.37911" lon="5.94335">
        <ele>577</ele>
        <time>2014-10-30T09:34:16Z</time>
      </trkpt>
      <trkpt lat="45.37894" lon="5.94326">
        <ele>591</ele>
        <time>2014-10-30T09:34:28Z</time>
      </trkpt>
      <trkpt lat="45.37877" lon="5.94315">
        <ele>592</ele>
        <time>2014-10-30T09:34:42Z</time>
      </trkpt>
      <trkpt lat="45.3786" lon="5.94302">
        <ele>593</ele>
        <time>2014-10-30T09:34:55Z</time>
      </trkpt>
      <trkpt lat="45.37849" lon="5.94281">
        <ele>600</ele>
        <time>2014-10-30T09:35:07Z</time>
      </trkpt>
      <trkpt lat="45.37835" lon="5.94265">
        <ele>606</ele>
        <time>2014-10-30T09:35:20Z</time>
      </trkpt>
      <trkpt lat="45.37817" lon="5.94255">
        <ele>594</ele>
        <time>2014-10-30T09:35:35Z</time>
      </trkpt>
      <trkpt lat="45.37798" lon="5.94247">
        <ele>616</ele>
        <time>2014-10-30T09:35:47Z</time>
      </trkpt>
      <trkpt lat="45.37783" lon="5.94233">
        <ele>614</ele>
        <time>2014-10-30T09:36:00Z</time>
      </trkpt>
      <trkpt lat="45.37768" lon="5.94217">
        <ele>616</ele>
        <time>2014-10-30T09:36:13Z</time>
      </trkpt>
      <trkpt lat="45.37755" lon="5.94197">
        <ele>622</ele>
        <time>2014-10-30T09:36:28Z</time>
      </trkpt>
      <trkpt lat="45.37737" lon="5.94187">
        <ele>615</ele>
        <time>2014-10-30T09:36:44Z</time>
      </trkpt>
      <trkpt lat="45.37719" lon="5.94184">
        <ele>613</ele>
        <time>2014-10-30T09:36:58Z</time>
      </trkpt>
      <trkpt lat="45.37703" lon="5.94198">
        <ele>609</ele>
        <time>2014-10-30T09:37:13Z</time>
      </trkpt>
      <trkpt lat="45.37685" lon="5.94202">
        <ele>608</ele>
        <time>2014-10-30T09:37:24Z</time>
      </trkpt>
      <trkpt lat="45.37667" lon="5.94196">
        <ele>611</ele>
        <time>2014-10-30T09:37:35Z</time>
      </trkpt>
      <trkpt lat="45.37649" lon="5.94192">
        <ele>608</ele>
        <time>2014-10-30T09:37:46Z</time>
      </trkpt>
      <trkpt lat="45.37632" lon="5.94183">
        <ele>609</ele>
        <time>2014-10-30T09:37:57Z</time>
      </trkpt>
      <trkpt lat="45.37613" lon="5.94178">
        <ele>610</ele>
        <time>2014-10-30T09:38:11Z</time>
      </trkpt>
      <trkpt lat="45.37596" lon="5.9417">
        <ele>615</ele>
        <time>2014-10-30T09:38:24Z</time>
      </trkpt>
      <trkpt lat="45.37577" lon="5.94164">
        <ele>627</ele>
        <time>2014-10-30T09:38:39Z</time>
      </trkpt>
      <trkpt lat="45.37559" lon="5.94157">
        <ele>634</ele>
        <time>2014-10-30T09:38:55Z</time>
      </trkpt>
      <trkpt lat="45.3754" lon="5.94153">
        <ele>634</ele>
        <time>2014-10-30T09:39:08Z</time>
      </trkpt>
      <trkpt lat="45.37521" lon="5.94152">
        <ele>632</ele>
        <time>2014-10-30T09:39:18Z</time>
      </trkpt>
      <trkpt lat="45.37504" lon="5.94145">
        <ele>631</ele>
        <time>2014-10-30T09:39:32Z</time>
      </trkpt>
      <trkpt lat="45.37488" lon="5.9413">
        <ele>617</ele>
        <time>2014-10-30T09:39:46Z</time>
      </trkpt>
      <trkpt lat="45.37478" lon="5.94151">
        <ele>614</ele>
        <time>2014-10-30T09:40:15Z</time>
      </trkpt>
      <trkpt lat="45.37482" lon="5.94125">
        <ele>617</ele>
        <time>2014-10-30T09:42:29Z</time>
      </trkpt>
      <trkpt lat="45.37491" lon="5.94102">
        <ele>626</ele>
        <time>2014-10-30T09:42:42Z</time>
      </trkpt>
      <trkpt lat="45.37489" lon="5.94076">
        <ele>636</ele>
        <time>2014-10-30T09:42:55Z</time>
      </trkpt>
      <trkpt lat="45.37487" lon="5.94049">
        <ele>634</ele>
        <time>2014-10-30T09:43:06Z</time>
      </trkpt>
      <trkpt lat="45.37483" lon="5.94023">
        <ele>637</ele>
        <time>2014-10-30T09:43:22Z</time>
      </trkpt>
      <trkpt lat="45.37478" lon="5.93997">
        <ele>645</ele>
        <time>2014-10-30T09:43:36Z</time>
      </trkpt>
      <trkpt lat="45.37477" lon="5.93971">
        <ele>643</ele>
        <time>2014-10-30T09:43:50Z</time>
      </trkpt>
      <trkpt lat="45.3748" lon="5.93945">
        <ele>647</ele>
        <time>2014-10-30T09:44:04Z</time>
      </trkpt>
      <trkpt lat="45.37474" lon="5.93919">
        <ele>649</ele>
        <time>2014-10-30T09:44:19Z</time>
      </trkpt>
      <trkpt lat="45.37471" lon="5.93892">
        <ele>652</ele>
        <time>2014-10-30T09:44:33Z</time>
      </trkpt>
      <trkpt lat="45.37468" lon="5.93865">
        <ele>653</ele>
        <time>2014-10-30T09:44:46Z</time>
      </trkpt>
      <trkpt lat="45.37468" lon="5.93839">
        <ele>656</ele>
        <time>2014-10-30T09:45:01Z</time>
      </trkpt>
      <trkpt lat="45.37467" lon="5.93812">
        <ele>660</ele>
        <time>2014-10-30T09:45:15Z</time>
      </trkpt>
      <trkpt lat="45.37466" lon="5.93786">
        <ele>660</ele>
        <time>2014-10-30T09:45:27Z</time>
      </trkpt>
      <trkpt lat="45.37473" lon="5.93761">
        <ele>667</ele>
        <time>2014-10-30T09:45:39Z</time>
      </trkpt>
      <trkpt lat="45.37479" lon="5.93735">
        <ele>673</ele>
        <time>2014-10-30T09:45:53Z</time>
      </trkpt>
      <trkpt lat="45.37481" lon="5.93709">
        <ele>672</ele>
        <time>2014-10-30T09:46:05Z</time>
      </trkpt>
      <trkpt lat="45.37477" lon="5.93683">
        <ele>674</ele>
        <time>2014-10-30T09:46:20Z</time>
      </trkpt>
      <trkpt lat="45.37476" lon="5.93655">
        <ele>680</ele>
        <time>2014-10-30T09:46:34Z</time>
      </trkpt>
      <trkpt lat="45.37476" lon="5.9363">
        <ele>678</ele>
        <time>2014-10-30T09:46:49Z</time>
      </trkpt>
      <trkpt lat="45.3748" lon="5.93603">
        <ele>683</ele>
        <time>2014-10-30T09:47:04Z</time>
      </trkpt>
      <trkpt lat="45.37483" lon="5.9363">
        <ele>680</ele>
        <time>2014-10-30T09:47:42Z</time>
      </trkpt>
      <trkpt lat="45.37481" lon="5.93656">
        <ele>683</ele>
        <time>2014-10-30T09:47:54Z</time>
      </trkpt>
      <trkpt lat="45.3748" lon="5.93683">
        <ele>676</ele>
        <time>2014-10-30T09:48:08Z</time>
      </trkpt>
      <trkpt lat="45.37486" lon="5.93709">
        <ele>673</ele>
        <time>2014-10-30T09:48:19Z</time>
      </trkpt>
      <trkpt lat="45.37493" lon="5.93735">
        <ele>680</ele>
        <time>2014-10-30T09:48:32Z</time>
      </trkpt>
      <trkpt lat="45.37494" lon="5.93761">
        <ele>680</ele>
        <time>2014-10-30T09:48:39Z</time>
      </trkpt>
      <trkpt lat="45.37499" lon="5.93787">
        <ele>670</ele>
        <time>2014-10-30T09:48:47Z</time>
      </trkpt>
      <trkpt lat="45.37503" lon="5.93813">
        <ele>708</ele>
        <time>2014-10-30T09:48:58Z</time>
      </trkpt>
      <trkpt lat="45.37507" lon="5.93838">
        <ele>696</ele>
        <time>2014-10-30T09:49:09Z</time>
      </trkpt>
      <trkpt lat="45.37511" lon="5.93865">
        <ele>703</ele>
        <time>2014-10-30T09:49:23Z</time>
      </trkpt>
      <trkpt lat="45.37518" lon="5.93889">
        <ele>701</ele>
        <time>2014-10-30T09:49:36Z</time>
      </trkpt>
      <trkpt lat="45.37529" lon="5.93911">
        <ele>702</ele>
        <time>2014-10-30T09:49:47Z</time>
      </trkpt>
      <trkpt lat="45.37542" lon="5.93931">
        <ele>696</ele>
        <time>2014-10-30T09:49:59Z</time>
      </trkpt>
      <trkpt lat="45.37553" lon="5.93953">
        <ele>698</ele>
        <time>2014-10-30T09:50:11Z</time>
      </trkpt>
      <trkpt lat="45.37564" lon="5.93973">
        <ele>699</ele>
        <time>2014-10-30T09:50:23Z</time>
      </trkpt>
      <trkpt lat="45.3758" lon="5.93988">
        <ele>703</ele>
        <time>2014-10-30T09:50:35Z</time>
      </trkpt>
      <trkpt lat="45.37592" lon="5.94007">
        <ele>707</ele>
        <time>2014-10-30T09:50:45Z</time>
      </trkpt>
      <trkpt lat="45.37608" lon="5.94021">
        <ele>705</ele>
        <time>2014-10-30T09:50:55Z</time>
      </trkpt>
      <trkpt lat="45.3762" lon="5.94042">
        <ele>702</ele>
        <time>2014-10-30T09:51:10Z</time>
      </trkpt>
      <trkpt lat="45.37637" lon="5.94054">
        <ele>700</ele>
        <time>2014-10-30T09:51:22Z</time>
      </trkpt>
      <trkpt lat="45.37655" lon="5.94049">
        <ele>703</ele>
        <time>2014-10-30T09:51:34Z</time>
      </trkpt>
      <trkpt lat="45.37639" lon="5.94035">
        <ele>706</ele>
        <time>2014-10-30T09:51:52Z</time>
      </trkpt>
      <trkpt lat="45.37625" lon="5.94016">
        <ele>708</ele>
        <time>2014-10-30T09:52:04Z</time>
      </trkpt>
      <trkpt lat="45.37617" lon="5.93992">
        <ele>733</ele>
        <time>2014-10-30T09:52:17Z</time>
      </trkpt>
      <trkpt lat="45.3761" lon="5.93967">
        <ele>736</ele>
        <time>2014-10-30T09:52:29Z</time>
      </trkpt>
      <trkpt lat="45.37601" lon="5.93942">
        <ele>738</ele>
        <time>2014-10-30T09:52:42Z</time>
      </trkpt>
      <trkpt lat="45.37591" lon="5.93921">
        <ele>736</ele>
        <time>2014-10-30T09:52:57Z</time>
      </trkpt>
      <trkpt lat="45.37585" lon="5.93896">
        <ele>753</ele>
        <time>2014-10-30T09:53:10Z</time>
      </trkpt>
      <trkpt lat="45.37577" lon="5.93872">
        <ele>723</ele>
        <time>2014-10-30T09:53:25Z</time>
      </trkpt>
      <trkpt lat="45.37573" lon="5.93846">
        <ele>732</ele>
        <time>2014-10-30T09:54:16Z</time>
      </trkpt>
      <trkpt lat="45.37569" lon="5.9382">
        <ele>737</ele>
        <time>2014-10-30T09:54:29Z</time>
      </trkpt>
      <trkpt lat="45.37567" lon="5.93793">
        <ele>735</ele>
        <time>2014-10-30T09:54:43Z</time>
      </trkpt>
      <trkpt lat="45.3756" lon="5.93769">
        <ele>738</ele>
        <time>2014-10-30T09:54:58Z</time>
      </trkpt>
      <trkpt lat="45.37556" lon="5.93742">
        <ele>743</ele>
        <time>2014-10-30T09:55:12Z</time>
      </trkpt>
      <trkpt lat="45.37558" lon="5.93716">
        <ele>742</ele>
        <time>2014-10-30T09:55:26Z</time>
      </trkpt>
      <trkpt lat="45.37559" lon="5.93689">
        <ele>744</ele>
        <time>2014-10-30T09:55:40Z</time>
      </trkpt>
      <trkpt lat="45.37562" lon="5.93662">
        <ele>752</ele>
        <time>2014-10-30T09:55:53Z</time>
      </trkpt>
      <trkpt lat="45.37567" lon="5.93636">
        <ele>749</ele>
        <time>2014-10-30T09:56:10Z</time>
      </trkpt>
      <trkpt lat="45.37568" lon="5.93609">
        <ele>750</ele>
        <time>2014-10-30T09:56:22Z</time>
      </trkpt>
      <trkpt lat="45.37564" lon="5.93584">
        <ele>754</ele>
        <time>2014-10-30T09:56:34Z</time>
      </trkpt>
      <trkpt lat="45.37555" lon="5.93561">
        <ele>755</ele>
        <time>2014-10-30T09:56:47Z</time>
      </trkpt>
      <trkpt lat="45.3755" lon="5.93536">
        <ele>755</ele>
        <time>2014-10-30T09:56:58Z</time>
      </trkpt>
      <trkpt lat="45.3755" lon="5.9351">
        <ele>759</ele>
        <time>2014-10-30T09:57:08Z</time>
      </trkpt>
      <trkpt lat="45.37545" lon="5.93482">
        <ele>767</ele>
        <time>2014-10-30T09:57:20Z</time>
      </trkpt>
      <trkpt lat="45.37542" lon="5.93456">
        <ele>767</ele>
        <time>2014-10-30T09:57:30Z</time>
      </trkpt>
      <trkpt lat="45.37544" lon="5.93431">
        <ele>769</ele>
        <time>2014-10-30T09:57:40Z</time>
      </trkpt>
      <trkpt lat="45.37551" lon="5.93405">
        <ele>770</ele>
        <time>2014-10-30T09:57:51Z</time>
      </trkpt>
      <trkpt lat="45.37565" lon="5.93388">
        <ele>771</ele>
        <time>2014-10-30T09:58:03Z</time>
      </trkpt>
      <trkpt lat="45.37582" lon="5.93378">
        <ele>772</ele>
        <time>2014-10-30T09:58:13Z</time>
      </trkpt>
      <trkpt lat="45.37597" lon="5.93364">
        <ele>794</ele>
        <time>2014-10-30T09:58:25Z</time>
      </trkpt>
      <trkpt lat="45.3761" lon="5.93345">
        <ele>794</ele>
        <time>2014-10-30T09:58:36Z</time>
      </trkpt>
      <trkpt lat="45.3762" lon="5.93323">
        <ele>786</ele>
        <time>2014-10-30T09:58:47Z</time>
      </trkpt>
      <trkpt lat="45.37633" lon="5.93305">
        <ele>789</ele>
        <time>2014-10-30T09:58:57Z</time>
      </trkpt>
      <trkpt lat="45.37648" lon="5.9329">
        <ele>790</ele>
        <time>2014-10-30T09:59:08Z</time>
      </trkpt>
      <trkpt lat="45.37664" lon="5.93276">
        <ele>791</ele>
        <time>2014-10-30T09:59:19Z</time>
      </trkpt>
      <trkpt lat="45.37676" lon="5.93256">
        <ele>807</ele>
        <time>2014-10-30T09:59:31Z</time>
      </trkpt>
      <trkpt lat="45.37688" lon="5.93237">
        <ele>803</ele>
        <time>2014-10-30T09:59:42Z</time>
      </trkpt>
      <trkpt lat="45.377" lon="5.93215">
        <ele>805</ele>
        <time>2014-10-30T09:59:54Z</time>
      </trkpt>
      <trkpt lat="45.37706" lon="5.93189">
        <ele>803</ele>
        <time>2014-10-30T10:00:06Z</time>
      </trkpt>
      <trkpt lat="45.37717" lon="5.93169">
        <ele>806</ele>
        <time>2014-10-30T10:00:16Z</time>
      </trkpt>
      <trkpt lat="45.37733" lon="5.93154">
        <ele>798</ele>
        <time>2014-10-30T10:00:25Z</time>
      </trkpt>
      <trkpt lat="45.37751" lon="5.93148">
        <ele>816</ele>
        <time>2014-10-30T10:00:37Z</time>
      </trkpt>
      <trkpt lat="45.37769" lon="5.93141">
        <ele>817</ele>
        <time>2014-10-30T10:00:50Z</time>
      </trkpt>
      <trkpt lat="45.37787" lon="5.93135">
        <ele>818</ele>
        <time>2014-10-30T10:01:02Z</time>
      </trkpt>
      <trkpt lat="45.37806" lon="5.93131">
        <ele>821</ele>
        <time>2014-10-30T10:01:14Z</time>
      </trkpt>
      <trkpt lat="45.37822" lon="5.93114">
        <ele>819</ele>
        <time>2014-10-30T10:01:28Z</time>
      </trkpt>
      <trkpt lat="45.37838" lon="5.93097">
        <ele>825</ele>
        <time>2014-10-30T10:01:40Z</time>
      </trkpt>
      <trkpt lat="45.37856" lon="5.93095">
        <ele>829</ele>
        <time>2014-10-30T10:01:50Z</time>
      </trkpt>
      <trkpt lat="45.37874" lon="5.93102">
        <ele>833</ele>
        <time>2014-10-30T10:02:04Z</time>
      </trkpt>
      <trkpt lat="45.37893" lon="5.93099">
        <ele>834</ele>
        <time>2014-10-30T10:02:15Z</time>
      </trkpt>
      <trkpt lat="45.37911" lon="5.93099">
        <ele>833</ele>
        <time>2014-10-30T10:02:26Z</time>
      </trkpt>
      <trkpt lat="45.3793" lon="5.93094">
        <ele>838</ele>
        <time>2014-10-30T10:02:37Z</time>
      </trkpt>
      <trkpt lat="45.37949" lon="5.9309">
        <ele>842</ele>
        <time>2014-10-30T10:02:48Z</time>
      </trkpt>
      <trkpt lat="45.37967" lon="5.93092">
        <ele>844</ele>
        <time>2014-10-30T10:02:58Z</time>
      </trkpt>
      <trkpt lat="45.37986" lon="5.93095">
        <ele>844</ele>
        <time>2014-10-30T10:03:08Z</time>
      </trkpt>
      <trkpt lat="45.38004" lon="5.93091">
        <ele>845</ele>
        <time>2014-10-30T10:03:18Z</time>
      </trkpt>
      <trkpt lat="45.38023" lon="5.93087">
        <ele>850</ele>
        <time>2014-10-30T10:03:29Z</time>
      </trkpt>
      <trkpt lat="45.38041" lon="5.93087">
        <ele>853</ele>
        <time>2014-10-30T10:03:40Z</time>
      </trkpt>
      <trkpt lat="45.3806" lon="5.93091">
        <ele>854</ele>
        <time>2014-10-30T10:03:54Z</time>
      </trkpt>
      <trkpt lat="45.38079" lon="5.93101">
        <ele>855</ele>
        <time>2014-10-30T10:04:04Z</time>
      </trkpt>
      <trkpt lat="45.38097" lon="5.93109">
        <ele>860</ele>
        <time>2014-10-30T10:04:15Z</time>
      </trkpt>
      <trkpt lat="45.38115" lon="5.93115">
        <ele>862</ele>
        <time>2014-10-30T10:04:25Z</time>
      </trkpt>
      <trkpt lat="45.38132" lon="5.93124">
        <ele>863</ele>
        <time>2014-10-30T10:04:34Z</time>
      </trkpt>
      <trkpt lat="45.38152" lon="5.93128">
        <ele>863</ele>
        <time>2014-10-30T10:04:45Z</time>
      </trkpt>
      <trkpt lat="45.3817" lon="5.93138">
        <ele>863</ele>
        <time>2014-10-30T10:04:53Z</time>
      </trkpt>
      <trkpt lat="45.38188" lon="5.93146">
        <ele>863</ele>
        <time>2014-10-30T10:05:03Z</time>
      </trkpt>
      <trkpt lat="45.38206" lon="5.93159">
        <ele>863</ele>
        <time>2014-10-30T10:05:12Z</time>
      </trkpt>
      <trkpt lat="45.38221" lon="5.93174">
        <ele>866</ele>
        <time>2014-10-30T10:05:20Z</time>
      </trkpt>
      <trkpt lat="45.38238" lon="5.93187">
        <ele>865</ele>
        <time>2014-10-30T10:05:36Z</time>
      </trkpt>
      <trkpt lat="45.38256" lon="5.93193">
        <ele>862</ele>
        <time>2014-10-30T10:05:43Z</time>
      </trkpt>
      <trkpt lat="45.38276" lon="5.93199">
        <ele>862</ele>
        <time>2014-10-30T10:05:53Z</time>
      </trkpt>
      <trkpt lat="45.38295" lon="5.93204">
        <ele>861</ele>
        <time>2014-10-30T10:06:01Z</time>
      </trkpt>
      <trkpt lat="45.38312" lon="5.93211">
        <ele>861</ele>
        <time>2014-10-30T10:06:07Z</time>
      </trkpt>
      <trkpt lat="45.38331" lon="5.93218">
        <ele>861</ele>
        <time>2014-10-30T10:06:14Z</time>
      </trkpt>
      <trkpt lat="45.38348" lon="5.93228">
        <ele>859</ele>
        <time>2014-10-30T10:06:21Z</time>
      </trkpt>
      <trkpt lat="45.38368" lon="5.93232">
        <ele>858</ele>
        <time>2014-10-30T10:06:28Z</time>
      </trkpt>
      <trkpt lat="45.38387" lon="5.93238">
        <ele>857</ele>
        <time>2014-10-30T10:06:34Z</time>
      </trkpt>
      <trkpt lat="45.38406" lon="5.93243">
        <ele>856</ele>
        <time>2014-10-30T10:06:39Z</time>
      </trkpt>
      <trkpt lat="45.38415" lon="5.93221">
        <ele>857</ele>
        <time>2014-10-30T10:06:46Z</time>
      </trkpt>
      <trkpt lat="45.38405" lon="5.93197">
        <ele>857</ele>
        <time>2014-10-30T10:06:55Z</time>
      </trkpt>
      <trkpt lat="45.38392" lon="5.93178">
        <ele>857</ele>
        <time>2014-10-30T10:07:03Z</time>
      </trkpt>
      <trkpt lat="45.38378" lon="5.93159">
        <ele>859</ele>
        <time>2014-10-30T10:07:11Z</time>
      </trkpt>
      <trkpt lat="45.38365" lon="5.93141">
        <ele>860</ele>
        <time>2014-10-30T10:07:20Z</time>
      </trkpt>
      <trkpt lat="45.38347" lon="5.9313">
        <ele>860</ele>
        <time>2014-10-30T10:07:30Z</time>
      </trkpt>
      <trkpt lat="45.38328" lon="5.93124">
        <ele>862</ele>
        <time>2014-10-30T10:07:38Z</time>
      </trkpt>
      <trkpt lat="45.3831" lon="5.93116">
        <ele>862</ele>
        <time>2014-10-30T10:07:45Z</time>
      </trkpt>
      <trkpt lat="45.38293" lon="5.93102">
        <ele>862</ele>
        <time>2014-10-30T10:07:52Z</time>
      </trkpt>
      <trkpt lat="45.38274" lon="5.93087">
        <ele>862</ele>
        <time>2014-10-30T10:07:59Z</time>
      </trkpt>
      <trkpt lat="45.38257" lon="5.93069">
        <ele>865</ele>
        <time>2014-10-30T10:08:06Z</time>
      </trkpt>
      <trkpt lat="45.38242" lon="5.93053">
        <ele>864</ele>
        <time>2014-10-30T10:08:13Z</time>
      </trkpt>
      <trkpt lat="45.38227" lon="5.93036">
        <ele>865</ele>
        <time>2014-10-30T10:08:21Z</time>
      </trkpt>
      <trkpt lat="45.3821" lon="5.9302">
        <ele>865</ele>
        <time>2014-10-30T10:08:28Z</time>
      </trkpt>
      <trkpt lat="45.38195" lon="5.93003">
        <ele>864</ele>
        <time>2014-10-30T10:08:33Z</time>
      </trkpt>
      <trkpt lat="45.38182" lon="5.92983">
        <ele>868</ele>
        <time>2014-10-30T10:08:39Z</time>
      </trkpt>
      <trkpt lat="45.38172" lon="5.9296">
        <ele>870</ele>
        <time>2014-10-30T10:08:45Z</time>
      </trkpt>
      <trkpt lat="45.38164" lon="5.92937">
        <ele>867</ele>
        <time>2014-10-30T10:08:51Z</time>
      </trkpt>
      <trkpt lat="45.38155" lon="5.92915">
        <ele>874</ele>
        <time>2014-10-30T10:08:57Z</time>
      </trkpt>
      <trkpt lat="45.38141" lon="5.92893">
        <ele>876</ele>
        <time>2014-10-30T10:09:03Z</time>
      </trkpt>
      <trkpt lat="45.38124" lon="5.92877">
        <ele>876</ele>
        <time>2014-10-30T10:09:09Z</time>
      </trkpt>
      <trkpt lat="45.38106" lon="5.92867">
        <ele>876</ele>
        <time>2014-10-30T10:09:15Z</time>
      </trkpt>
      <trkpt lat="45.38086" lon="5.92857">
        <ele>877</ele>
        <time>2014-10-30T10:09:21Z</time>
      </trkpt>
      <trkpt lat="45.38071" lon="5.92843">
        <ele>873</ele>
        <time>2014-10-30T10:09:26Z</time>
      </trkpt>
      <trkpt lat="45.38057" lon="5.92821">
        <ele>882</ele>
        <time>2014-10-30T10:09:32Z</time>
      </trkpt>
      <trkpt lat="45.38047" lon="5.92794">
        <ele>884</ele>
        <time>2014-10-30T10:09:38Z</time>
      </trkpt>
      <trkpt lat="45.38031" lon="5.92776">
        <ele>885</ele>
        <time>2014-10-30T10:09:44Z</time>
      </trkpt>
      <trkpt lat="45.38011" lon="5.92771">
        <ele>885</ele>
        <time>2014-10-30T10:09:51Z</time>
      </trkpt>
      <trkpt lat="45.37992" lon="5.92772">
        <ele>876</ele>
        <time>2014-10-30T10:09:57Z</time>
      </trkpt>
      <trkpt lat="45.37973" lon="5.92773">
        <ele>873</ele>
        <time>2014-10-30T10:10:02Z</time>
      </trkpt>
      <trkpt lat="45.37954" lon="5.92766">
        <ele>871</ele>
        <time>2014-10-30T10:10:07Z</time>
      </trkpt>
      <trkpt lat="45.37939" lon="5.9275">
        <ele>870</ele>
        <time>2014-10-30T10:10:12Z</time>
      </trkpt>
      <trkpt lat="45.37927" lon="5.9273">
        <ele>881</ele>
        <time>2014-10-30T10:10:18Z</time>
      </trkpt>
      <trkpt lat="45.37914" lon="5.92709">
        <ele>872</ele>
        <time>2014-10-30T10:10:24Z</time>
      </trkpt>
      <trkpt lat="45.37902" lon="5.92686">
        <ele>875</ele>
        <time>2014-10-30T10:10:31Z</time>
      </trkpt>
      <trkpt lat="45.37893" lon="5.92661">
        <ele>878</ele>
        <time>2014-10-30T10:10:38Z</time>
      </trkpt>
      <trkpt lat="45.37888" lon="5.92635">
        <ele>876</ele>
        <time>2014-10-30T10:10:44Z</time>
      </trkpt>
      <trkpt lat="45.37889" lon="5.92605">
        <ele>876</ele>
        <time>2014-10-30T10:10:51Z</time>
      </trkpt>
      <trkpt lat="45.37899" lon="5.92578">
        <ele>876</ele>
        <time>2014-10-30T10:10:57Z</time>
      </trkpt>
      <trkpt lat="45.3791" lon="5.92554">
        <ele>874</ele>
        <time>2014-10-30T10:11:02Z</time>
      </trkpt>
      <trkpt lat="45.37921" lon="5.92529">
        <ele>890</ele>
        <time>2014-10-30T10:11:07Z</time>
      </trkpt>
      <trkpt lat="45.37937" lon="5.9251">
        <ele>890</ele>
        <time>2014-10-30T10:11:13Z</time>
      </trkpt>
      <trkpt lat="45.37952" lon="5.92495">
        <ele>887</ele>
        <time>2014-10-30T10:11:18Z</time>
      </trkpt>
      <trkpt lat="45.37964" lon="5.92473">
        <ele>889</ele>
        <time>2014-10-30T10:11:24Z</time>
      </trkpt>
      <trkpt lat="45.37971" lon="5.92446">
        <ele>888</ele>
        <time>2014-10-30T10:11:30Z</time>
      </trkpt>
      <trkpt lat="45.3798" lon="5.9242">
        <ele>890</ele>
        <time>2014-10-30T10:11:36Z</time>
      </trkpt>
      <trkpt lat="45.37992" lon="5.92399">
        <ele>886</ele>
        <time>2014-10-30T10:11:43Z</time>
      </trkpt>
      <trkpt lat="45.38003" lon="5.92376">
        <ele>902</ele>
        <time>2014-10-30T10:11:51Z</time>
      </trkpt>
      <trkpt lat="45.38013" lon="5.92354">
        <ele>900</ele>
        <time>2014-10-30T10:11:59Z</time>
      </trkpt>
      <trkpt lat="45.38022" lon="5.92328">
        <ele>897</ele>
        <time>2014-10-30T10:12:07Z</time>
      </trkpt>
      <trkpt lat="45.3803" lon="5.92304">
        <ele>901</ele>
        <time>2014-10-30T10:12:16Z</time>
      </trkpt>
      <trkpt lat="45.38034" lon="5.92276">
        <ele>902</ele>
        <time>2014-10-30T10:12:25Z</time>
      </trkpt>
      <trkpt lat="45.38038" lon="5.92251">
        <ele>903</ele>
        <time>2014-10-30T10:12:33Z</time>
      </trkpt>
      <trkpt lat="45.38041" lon="5.92223">
        <ele>909</ele>
        <time>2014-10-30T10:12:41Z</time>
      </trkpt>
      <trkpt lat="45.38044" lon="5.92196">
        <ele>911</ele>
        <time>2014-10-30T10:12:50Z</time>
      </trkpt>
      <trkpt lat="45.38028" lon="5.92181">
        <ele>910</ele>
        <time>2014-10-30T10:18:10Z</time>
      </trkpt>
      <trkpt lat="45.3801" lon="5.92176">
        <ele>908</ele>
        <time>2014-10-30T10:18:20Z</time>
      </trkpt>
      <trkpt lat="45.37991" lon="5.92186">
        <ele>899</ele>
        <time>2014-10-30T10:18:27Z</time>
      </trkpt>
      <trkpt lat="45.37973" lon="5.9218">
        <ele>898</ele>
        <time>2014-10-30T10:18:32Z</time>
      </trkpt>
      <trkpt lat="45.37957" lon="5.92167">
        <ele>897</ele>
        <time>2014-10-30T10:18:36Z</time>
      </trkpt>
      <trkpt lat="45.37939" lon="5.92161">
        <ele>907</ele>
        <time>2014-10-30T10:18:39Z</time>
      </trkpt>
      <trkpt lat="45.37917" lon="5.92155">
        <ele>904</ele>
        <time>2014-10-30T10:18:42Z</time>
      </trkpt>
      <trkpt lat="45.37898" lon="5.92147">
        <ele>900</ele>
        <time>2014-10-30T10:18:45Z</time>
      </trkpt>
      <trkpt lat="45.37881" lon="5.92136">
        <ele>900</ele>
        <time>2014-10-30T10:18:49Z</time>
      </trkpt>
      <trkpt lat="45.37864" lon="5.92123">
        <ele>900</ele>
        <time>2014-10-30T10:18:53Z</time>
      </trkpt>
      <trkpt lat="45.37848" lon="5.92105">
        <ele>901</ele>
        <time>2014-10-30T10:18:58Z</time>
      </trkpt>
      <trkpt lat="45.37831" lon="5.92093">
        <ele>896</ele>
        <time>2014-10-30T10:19:03Z</time>
      </trkpt>
      <trkpt lat="45.37813" lon="5.9208">
        <ele>901</ele>
        <time>2014-10-30T10:19:08Z</time>
      </trkpt>
      <trkpt lat="45.37794" lon="5.92075">
        <ele>900</ele>
        <time>2014-10-30T10:19:12Z</time>
      </trkpt>
      <trkpt lat="45.37771" lon="5.9207">
        <ele>897</ele>
        <time>2014-10-30T10:19:16Z</time>
      </trkpt>
      <trkpt lat="45.37753" lon="5.92067">
        <ele>895</ele>
        <time>2014-10-30T10:19:19Z</time>
      </trkpt>
      <trkpt lat="45.37734" lon="5.92061">
        <ele>890</ele>
        <time>2014-10-30T10:19:22Z</time>
      </trkpt>
      <trkpt lat="45.37715" lon="5.92047">
        <ele>891</ele>
        <time>2014-10-30T10:19:25Z</time>
      </trkpt>
      <trkpt lat="45.3769" lon="5.92032">
        <ele>891</ele>
        <time>2014-10-30T10:19:28Z</time>
      </trkpt>
      <trkpt lat="45.37672" lon="5.92028">
        <ele>891</ele>
        <time>2014-10-30T10:19:30Z</time>
      </trkpt>
      <trkpt lat="45.37652" lon="5.9203">
        <ele>884</ele>
        <time>2014-10-30T10:19:32Z</time>
      </trkpt>
      <trkpt lat="45.37633" lon="5.92035">
        <ele>882</ele>
        <time>2014-10-30T10:19:34Z</time>
      </trkpt>
      <trkpt lat="45.37613" lon="5.92035">
        <ele>881</ele>
        <time>2014-10-30T10:19:36Z</time>
      </trkpt>
      <trkpt lat="45.37593" lon="5.92028">
        <ele>881</ele>
        <time>2014-10-30T10:19:38Z</time>
      </trkpt>
      <trkpt lat="45.37571" lon="5.92023">
        <ele>879</ele>
        <time>2014-10-30T10:19:40Z</time>
      </trkpt>
      <trkpt lat="45.3755" lon="5.92024">
        <ele>878</ele>
        <time>2014-10-30T10:19:42Z</time>
      </trkpt>
      <trkpt lat="45.3753" lon="5.9203">
        <ele>878</ele>
        <time>2014-10-30T10:19:44Z</time>
      </trkpt>
      <trkpt lat="45.3751" lon="5.92035">
        <ele>878</ele>
        <time>2014-10-30T10:19:46Z</time>
      </trkpt>
      <trkpt lat="45.3749" lon="5.92041">
        <ele>886</ele>
        <time>2014-10-30T10:19:48Z</time>
      </trkpt>
      <trkpt lat="45.37471" lon="5.92047">
        <ele>888</ele>
        <time>2014-10-30T10:19:50Z</time>
      </trkpt>
      <trkpt lat="45.37452" lon="5.92055">
        <ele>890</ele>
        <time>2014-10-30T10:19:52Z</time>
      </trkpt>
      <trkpt lat="45.37435" lon="5.92076">
        <ele>892</ele>
        <time>2014-10-30T10:19:55Z</time>
      </trkpt>
      <trkpt lat="45.37423" lon="5.92104">
        <ele>884</ele>
        <time>2014-10-30T10:19:59Z</time>
      </trkpt>
      <trkpt lat="45.37417" lon="5.92131">
        <ele>880</ele>
        <time>2014-10-30T10:20:04Z</time>
      </trkpt>
      <trkpt lat="45.37409" lon="5.92155">
        <ele>894</ele>
        <time>2014-10-30T10:20:12Z</time>
      </trkpt>
      <trkpt lat="45.374" lon="5.92178">
        <ele>889</ele>
        <time>2014-10-30T10:20:21Z</time>
      </trkpt>
      <trkpt lat="45.37388" lon="5.92199">
        <ele>891</ele>
        <time>2014-10-30T10:20:30Z</time>
      </trkpt>
      <trkpt lat="45.37373" lon="5.92213">
        <ele>893</ele>
        <time>2014-10-30T10:20:39Z</time>
      </trkpt>
      <trkpt lat="45.37358" lon="5.9223">
        <ele>895</ele>
        <time>2014-10-30T10:20:49Z</time>
      </trkpt>
      <trkpt lat="45.37353" lon="5.92256">
        <ele>891</ele>
        <time>2014-10-30T10:20:58Z</time>
      </trkpt>
      <trkpt lat="45.37348" lon="5.92282">
        <ele>888</ele>
        <time>2014-10-30T10:21:09Z</time>
      </trkpt>
      <trkpt lat="45.37338" lon="5.92305">
        <ele>887</ele>
        <time>2014-10-30T10:21:20Z</time>
      </trkpt>
      <trkpt lat="45.37321" lon="5.92316">
        <ele>895</ele>
        <time>2014-10-30T10:21:31Z</time>
      </trkpt>
      <trkpt lat="45.37303" lon="5.92318">
        <ele>897</ele>
        <time>2014-10-30T10:21:41Z</time>
      </trkpt>
      <trkpt lat="45.37285" lon="5.92321">
        <ele>897</ele>
        <time>2014-10-30T10:21:52Z</time>
      </trkpt>
      <trkpt lat="45.37267" lon="5.9232">
        <ele>897</ele>
        <time>2014-10-30T10:22:03Z</time>
      </trkpt>
      <trkpt lat="45.37249" lon="5.92309">
        <ele>900</ele>
        <time>2014-10-30T10:22:16Z</time>
      </trkpt>
      <trkpt lat="45.37234" lon="5.92293">
        <ele>904</ele>
        <time>2014-10-30T10:22:29Z</time>
      </trkpt>
      <trkpt lat="45.37221" lon="5.92273">
        <ele>908</ele>
        <time>2014-10-30T10:22:41Z</time>
      </trkpt>
      <trkpt lat="45.37208" lon="5.92253">
        <ele>910</ele>
        <time>2014-10-30T10:22:53Z</time>
      </trkpt>
      <trkpt lat="45.37191" lon="5.9224">
        <ele>929</ele>
        <time>2014-10-30T10:23:04Z</time>
      </trkpt>
      <trkpt lat="45.37174" lon="5.9225">
        <ele>924</ele>
        <time>2014-10-30T10:23:14Z</time>
      </trkpt>
      <trkpt lat="45.37155" lon="5.92251">
        <ele>916</ele>
        <time>2014-10-30T10:23:25Z</time>
      </trkpt>
      <trkpt lat="45.37136" lon="5.92247">
        <ele>936</ele>
        <time>2014-10-30T10:23:38Z</time>
      </trkpt>
      <trkpt lat="45.37118" lon="5.92253">
        <ele>916</ele>
        <time>2014-10-30T10:23:48Z</time>
      </trkpt>
      <trkpt lat="45.37099" lon="5.92251">
        <ele>921</ele>
        <time>2014-10-30T10:23:58Z</time>
      </trkpt>
      <trkpt lat="45.37082" lon="5.92261">
        <ele>925</ele>
        <time>2014-10-30T10:24:10Z</time>
      </trkpt>
      <trkpt lat="45.37065" lon="5.92273">
        <ele>921</ele>
        <time>2014-10-30T10:24:21Z</time>
      </trkpt>
      <trkpt lat="45.37046" lon="5.92277">
        <ele>920</ele>
        <time>2014-10-30T10:24:32Z</time>
      </trkpt>
      <trkpt lat="45.37028" lon="5.92272">
        <ele>922</ele>
        <time>2014-10-30T10:24:45Z</time>
      </trkpt>
      <trkpt lat="45.3701" lon="5.92261">
        <ele>927</ele>
        <time>2014-10-30T10:24:57Z</time>
      </trkpt>
      <trkpt lat="45.36993" lon="5.92253">
        <ele>930</ele>
        <time>2014-10-30T10:25:08Z</time>
      </trkpt>
      <trkpt lat="45.36975" lon="5.92243">
        <ele>941</ele>
        <time>2014-10-30T10:25:20Z</time>
      </trkpt>
      <trkpt lat="45.36957" lon="5.92235">
        <ele>942</ele>
        <time>2014-10-30T10:25:31Z</time>
      </trkpt>
      <trkpt lat="45.3694" lon="5.92226">
        <ele>942</ele>
        <time>2014-10-30T10:25:43Z</time>
      </trkpt>
      <trkpt lat="45.36922" lon="5.92219">
        <ele>942</ele>
        <time>2014-10-30T10:25:55Z</time>
      </trkpt>
      <trkpt lat="45.36905" lon="5.92211">
        <ele>937</ele>
        <time>2014-10-30T10:26:07Z</time>
      </trkpt>
      <trkpt lat="45.36888" lon="5.922">
        <ele>938</ele>
        <time>2014-10-30T10:26:20Z</time>
      </trkpt>
      <trkpt lat="45.36872" lon="5.92188">
        <ele>939</ele>
        <time>2014-10-30T10:26:33Z</time>
      </trkpt>
      <trkpt lat="45.3686" lon="5.92167">
        <ele>940</ele>
        <time>2014-10-30T10:26:45Z</time>
      </trkpt>
      <trkpt lat="45.36852" lon="5.92142">
        <ele>956</ele>
        <time>2014-10-30T10:26:58Z</time>
      </trkpt>
      <trkpt lat="45.36847" lon="5.92115">
        <ele>961</ele>
        <time>2014-10-30T10:27:11Z</time>
      </trkpt>
      <trkpt lat="45.36846" lon="5.92089">
        <ele>964</ele>
        <time>2014-10-30T10:27:22Z</time>
      </trkpt>
      <trkpt lat="45.36837" lon="5.92067">
        <ele>977</ele>
        <time>2014-10-30T10:27:34Z</time>
      </trkpt>
      <trkpt lat="45.36818" lon="5.92064">
        <ele>980</ele>
        <time>2014-10-30T10:27:44Z</time>
      </trkpt>
      <trkpt lat="45.36799" lon="5.92072">
        <ele>982</ele>
        <time>2014-10-30T10:27:55Z</time>
      </trkpt>
      <trkpt lat="45.36785" lon="5.9209">
        <ele>966</ele>
        <time>2014-10-30T10:28:07Z</time>
      </trkpt>
      <trkpt lat="45.36771" lon="5.92108">
        <ele>966</ele>
        <time>2014-10-30T10:28:20Z</time>
      </trkpt>
      <trkpt lat="45.36754" lon="5.92116">
        <ele>966</ele>
        <time>2014-10-30T10:28:34Z</time>
      </trkpt>
      <trkpt lat="45.36735" lon="5.92118">
        <ele>970</ele>
        <time>2014-10-30T10:28:48Z</time>
      </trkpt>
      <trkpt lat="45.36715" lon="5.92114">
        <ele>971</ele>
        <time>2014-10-30T10:29:01Z</time>
      </trkpt>
      <trkpt lat="45.36697" lon="5.9211">
        <ele>972</ele>
        <time>2014-10-30T10:29:13Z</time>
      </trkpt>
      <trkpt lat="45.36678" lon="5.92103">
        <ele>975</ele>
        <time>2014-10-30T10:29:26Z</time>
      </trkpt>
      <trkpt lat="45.36661" lon="5.92097">
        <ele>978</ele>
        <time>2014-10-30T10:29:39Z</time>
      </trkpt>
      <trkpt lat="45.36642" lon="5.92091">
        <ele>976</ele>
        <time>2014-10-30T10:29:53Z</time>
      </trkpt>
      <trkpt lat="45.36624" lon="5.92081">
        <ele>992</ele>
        <time>2014-10-30T10:30:05Z</time>
      </trkpt>
      <trkpt lat="45.36607" lon="5.92068">
        <ele>992</ele>
        <time>2014-10-30T10:30:16Z</time>
      </trkpt>
      <trkpt lat="45.3659" lon="5.92058">
        <ele>993</ele>
        <time>2014-10-30T10:30:28Z</time>
      </trkpt>
      <trkpt lat="45.36571" lon="5.92056">
        <ele>995</ele>
        <time>2014-10-30T10:30:42Z</time>
      </trkpt>
      <trkpt lat="45.36553" lon="5.92055">
        <ele>996</ele>
        <time>2014-10-30T10:30:55Z</time>
      </trkpt>
      <trkpt lat="45.36535" lon="5.92053">
        <ele>998</ele>
        <time>2014-10-30T10:31:08Z</time>
      </trkpt>
      <trkpt lat="45.36515" lon="5.92052">
        <ele>998</ele>
        <time>2014-10-30T10:31:22Z</time>
      </trkpt>
      <trkpt lat="45.36497" lon="5.92051">
        <ele>1002</ele>
        <time>2014-10-30T10:31:33Z</time>
      </trkpt>
      <trkpt lat="45.36478" lon="5.92047">
        <ele>1004</ele>
        <time>2014-10-30T10:31:44Z</time>
      </trkpt>
      <trkpt lat="45.3646" lon="5.92041">
        <ele>1005</ele>
        <time>2014-10-30T10:31:54Z</time>
      </trkpt>
      <trkpt lat="45.3644" lon="5.92042">
        <ele>1006</ele>
        <time>2014-10-30T10:32:03Z</time>
      </trkpt>
      <trkpt lat="45.36421" lon="5.9205">
        <ele>1005</ele>
        <time>2014-10-30T10:32:13Z</time>
      </trkpt>
      <trkpt lat="45.36402" lon="5.92054">
        <ele>1005</ele>
        <time>2014-10-30T10:32:23Z</time>
      </trkpt>
      <trkpt lat="45.36382" lon="5.92055">
        <ele>1005</ele>
        <time>2014-10-30T10:32:33Z</time>
      </trkpt>
      <trkpt lat="45.36364" lon="5.92052">
        <ele>1005</ele>
        <time>2014-10-30T10:32:42Z</time>
      </trkpt>
      <trkpt lat="45.36348" lon="5.9204">
        <ele>1007</ele>
        <time>2014-10-30T10:32:51Z</time>
      </trkpt>
      <trkpt lat="45.36334" lon="5.92023">
        <ele>1009</ele>
        <time>2014-10-30T10:33:01Z</time>
      </trkpt>
      <trkpt lat="45.3632" lon="5.92003">
        <ele>1010</ele>
        <time>2014-10-30T10:33:11Z</time>
      </trkpt>
      <trkpt lat="45.36303" lon="5.91992">
        <ele>1019</ele>
        <time>2014-10-30T10:33:21Z</time>
      </trkpt>
      <trkpt lat="45.36284" lon="5.91985">
        <ele>1019</ele>
        <time>2014-10-30T10:33:31Z</time>
      </trkpt>
      <trkpt lat="45.36265" lon="5.91978">
        <ele>1019</ele>
        <time>2014-10-30T10:33:40Z</time>
      </trkpt>
      <trkpt lat="45.36247" lon="5.91966">
        <ele>1020</ele>
        <time>2014-10-30T10:33:49Z</time>
      </trkpt>
      <trkpt lat="45.36228" lon="5.91958">
        <ele>1022</ele>
        <time>2014-10-30T10:33:58Z</time>
      </trkpt>
      <trkpt lat="45.36209" lon="5.91961">
        <ele>1021</ele>
        <time>2014-10-30T10:34:06Z</time>
      </trkpt>
      <trkpt lat="45.3619" lon="5.91963">
        <ele>1021</ele>
        <time>2014-10-30T10:34:14Z</time>
      </trkpt>
      <trkpt lat="45.3617" lon="5.91961">
        <ele>1021</ele>
        <time>2014-10-30T10:34:22Z</time>
      </trkpt>
      <trkpt lat="45.36151" lon="5.91956">
        <ele>1022</ele>
        <time>2014-10-30T10:34:30Z</time>
      </trkpt>
      <trkpt lat="45.36135" lon="5.91944">
        <ele>1023</ele>
        <time>2014-10-30T10:34:39Z</time>
      </trkpt>
      <trkpt lat="45.36119" lon="5.91928">
        <ele>1023</ele>
        <time>2014-10-30T10:34:48Z</time>
      </trkpt>
      <trkpt lat="45.36104" lon="5.91912">
        <ele>1032</ele>
        <time>2014-10-30T10:34:58Z</time>
      </trkpt>
      <trkpt lat="45.36089" lon="5.91895">
        <ele>1033</ele>
        <time>2014-10-30T10:35:08Z</time>
      </trkpt>
      <trkpt lat="45.36073" lon="5.91881">
        <ele>1033</ele>
        <time>2014-10-30T10:35:18Z</time>
      </trkpt>
      <trkpt lat="45.36058" lon="5.91864">
        <ele>1035</ele>
        <time>2014-10-30T10:35:27Z</time>
      </trkpt>
      <trkpt lat="45.36041" lon="5.91853">
        <ele>1035</ele>
        <time>2014-10-30T10:35:36Z</time>
      </trkpt>
      <trkpt lat="45.36024" lon="5.91838">
        <ele>1036</ele>
        <time>2014-10-30T10:35:46Z</time>
      </trkpt>
      <trkpt lat="45.36009" lon="5.9182">
        <ele>1043</ele>
        <time>2014-10-30T10:35:55Z</time>
      </trkpt>
      <trkpt lat="45.35993" lon="5.91807">
        <ele>1044</ele>
        <time>2014-10-30T10:36:04Z</time>
      </trkpt>
      <trkpt lat="45.35974" lon="5.91798">
        <ele>1046</ele>
        <time>2014-10-30T10:36:14Z</time>
      </trkpt>
      <trkpt lat="45.35957" lon="5.91794">
        <ele>1047</ele>
        <time>2014-10-30T10:36:23Z</time>
      </trkpt>
      <trkpt lat="45.3594" lon="5.91783">
        <ele>1048</ele>
        <time>2014-10-30T10:36:32Z</time>
      </trkpt>
      <trkpt lat="45.35921" lon="5.91778">
        <ele>1049</ele>
        <time>2014-10-30T10:36:41Z</time>
      </trkpt>
      <trkpt lat="45.35902" lon="5.91775">
        <ele>1051</ele>
        <time>2014-10-30T10:36:50Z</time>
      </trkpt>
      <trkpt lat="45.35883" lon="5.91776">
        <ele>1051</ele>
        <time>2014-10-30T10:37:00Z</time>
      </trkpt>
      <trkpt lat="45.35864" lon="5.91773">
        <ele>1051</ele>
        <time>2014-10-30T10:37:10Z</time>
      </trkpt>
      <trkpt lat="45.35846" lon="5.91773">
        <ele>1052</ele>
        <time>2014-10-30T10:37:20Z</time>
      </trkpt>
      <trkpt lat="45.35826" lon="5.91777">
        <ele>1055</ele>
        <time>2014-10-30T10:37:29Z</time>
      </trkpt>
      <trkpt lat="45.35807" lon="5.91777">
        <ele>1056</ele>
        <time>2014-10-30T10:37:39Z</time>
      </trkpt>
      <trkpt lat="45.35789" lon="5.91783">
        <ele>1056</ele>
        <time>2014-10-30T10:37:48Z</time>
      </trkpt>
      <trkpt lat="45.35771" lon="5.91791">
        <ele>1057</ele>
        <time>2014-10-30T10:37:58Z</time>
      </trkpt>
      <trkpt lat="45.35752" lon="5.91796">
        <ele>1057</ele>
        <time>2014-10-30T10:38:09Z</time>
      </trkpt>
      <trkpt lat="45.35733" lon="5.918">
        <ele>1065</ele>
        <time>2014-10-30T10:38:18Z</time>
      </trkpt>
      <trkpt lat="45.35715" lon="5.91806">
        <ele>1066</ele>
        <time>2014-10-30T10:38:28Z</time>
      </trkpt>
      <trkpt lat="45.35696" lon="5.91814">
        <ele>1067</ele>
        <time>2014-10-30T10:38:39Z</time>
      </trkpt>
      <trkpt lat="45.35678" lon="5.91826">
        <ele>1069</ele>
        <time>2014-10-30T10:38:50Z</time>
      </trkpt>
      <trkpt lat="45.3566" lon="5.91836">
        <ele>1071</ele>
        <time>2014-10-30T10:38:59Z</time>
      </trkpt>
      <trkpt lat="45.35643" lon="5.91846">
        <ele>1073</ele>
        <time>2014-10-30T10:39:07Z</time>
      </trkpt>
      <trkpt lat="45.35626" lon="5.91857">
        <ele>1074</ele>
        <time>2014-10-30T10:39:15Z</time>
      </trkpt>
      <trkpt lat="45.35609" lon="5.91868">
        <ele>1074</ele>
        <time>2014-10-30T10:39:22Z</time>
      </trkpt>
      <trkpt lat="45.3559" lon="5.91877">
        <ele>1074</ele>
        <time>2014-10-30T10:39:31Z</time>
      </trkpt>
      <trkpt lat="45.35571" lon="5.91874">
        <ele>1074</ele>
        <time>2014-10-30T10:39:37Z</time>
      </trkpt>
      <trkpt lat="45.35551" lon="5.91869">
        <ele>1073</ele>
        <time>2014-10-30T10:39:41Z</time>
      </trkpt>
      <trkpt lat="45.35532" lon="5.91862">
        <ele>1072</ele>
        <time>2014-10-30T10:39:44Z</time>
      </trkpt>
      <trkpt lat="45.35509" lon="5.91853">
        <ele>1072</ele>
        <time>2014-10-30T10:39:47Z</time>
      </trkpt>
      <trkpt lat="45.35485" lon="5.91838">
        <ele>1068</ele>
        <time>2014-10-30T10:39:50Z</time>
      </trkpt>
      <trkpt lat="45.35466" lon="5.91831">
        <ele>1067</ele>
        <time>2014-10-30T10:39:52Z</time>
      </trkpt>
      <trkpt lat="45.35446" lon="5.91828">
        <ele>1064</ele>
        <time>2014-10-30T10:39:54Z</time>
      </trkpt>
      <trkpt lat="45.35427" lon="5.91828">
        <ele>1061</ele>
        <time>2014-10-30T10:39:56Z</time>
      </trkpt>
      <trkpt lat="45.35406" lon="5.91827">
        <ele>1057</ele>
        <time>2014-10-30T10:39:58Z</time>
      </trkpt>
      <trkpt lat="45.35385" lon="5.91818">
        <ele>1056</ele>
        <time>2014-10-30T10:40:00Z</time>
      </trkpt>
      <trkpt lat="45.35364" lon="5.91804">
        <ele>1055</ele>
        <time>2014-10-30T10:40:02Z</time>
      </trkpt>
      <trkpt lat="45.35347" lon="5.91785">
        <ele>1054</ele>
        <time>2014-10-30T10:40:04Z</time>
      </trkpt>
      <trkpt lat="45.35336" lon="5.91756">
        <ele>1051</ele>
        <time>2014-10-30T10:40:06Z</time>
      </trkpt>
      <trkpt lat="45.35327" lon="5.91725">
        <ele>1047</ele>
        <time>2014-10-30T10:40:08Z</time>
      </trkpt>
      <trkpt lat="45.35316" lon="5.91697">
        <ele>1047</ele>
        <time>2014-10-30T10:40:10Z</time>
      </trkpt>
      <trkpt lat="45.35305" lon="5.91675">
        <ele>1047</ele>
        <time>2014-10-30T10:40:13Z</time>
      </trkpt>
      <trkpt lat="45.35286" lon="5.91659">
        <ele>1048</ele>
        <time>2014-10-30T10:41:36Z</time>
      </trkpt>
      <trkpt lat="45.35268" lon="5.91641">
        <ele>1047</ele>
        <time>2014-10-30T10:41:41Z</time>
      </trkpt>
      <trkpt lat="45.35249" lon="5.91624">
        <ele>1040</ele>
        <time>2014-10-30T10:41:46Z</time>
      </trkpt>
      <trkpt lat="45.35229" lon="5.91612">
        <ele>1040</ele>
        <time>2014-10-30T10:41:51Z</time>
      </trkpt>
      <trkpt lat="45.3521" lon="5.91597">
        <ele>1040</ele>
        <time>2014-10-30T10:41:56Z</time>
      </trkpt>
      <trkpt lat="45.35192" lon="5.91583">
        <ele>1043</ele>
        <time>2014-10-30T10:42:00Z</time>
      </trkpt>
      <trkpt lat="45.35172" lon="5.91567">
        <ele>1041</ele>
        <time>2014-10-30T10:42:04Z</time>
      </trkpt>
      <trkpt lat="45.35155" lon="5.91549">
        <ele>1036</ele>
        <time>2014-10-30T10:42:08Z</time>
      </trkpt>
      <trkpt lat="45.35142" lon="5.91531">
        <ele>1036</ele>
        <time>2014-10-30T10:42:12Z</time>
      </trkpt>
      <trkpt lat="45.35124" lon="5.91512">
        <ele>1035</ele>
        <time>2014-10-30T10:42:17Z</time>
      </trkpt>
      <trkpt lat="45.35105" lon="5.91494">
        <ele>1038</ele>
        <time>2014-10-30T10:42:22Z</time>
      </trkpt>
      <trkpt lat="45.35089" lon="5.91481">
        <ele>1038</ele>
        <time>2014-10-30T10:42:26Z</time>
      </trkpt>
      <trkpt lat="45.35073" lon="5.91466">
        <ele>1031</ele>
        <time>2014-10-30T10:42:30Z</time>
      </trkpt>
      <trkpt lat="45.35057" lon="5.91451">
        <ele>1031</ele>
        <time>2014-10-30T10:42:34Z</time>
      </trkpt>
      <trkpt lat="45.35042" lon="5.91436">
        <ele>1031</ele>
        <time>2014-10-30T10:42:38Z</time>
      </trkpt>
      <trkpt lat="45.35026" lon="5.9142">
        <ele>1029</ele>
        <time>2014-10-30T10:42:42Z</time>
      </trkpt>
      <trkpt lat="45.35009" lon="5.91404">
        <ele>1033</ele>
        <time>2014-10-30T10:42:46Z</time>
      </trkpt>
      <trkpt lat="45.34988" lon="5.91386">
        <ele>1028</ele>
        <time>2014-10-30T10:42:50Z</time>
      </trkpt>
      <trkpt lat="45.34968" lon="5.91372">
        <ele>1029</ele>
        <time>2014-10-30T10:42:53Z</time>
      </trkpt>
      <trkpt lat="45.34946" lon="5.91356">
        <ele>1028</ele>
        <time>2014-10-30T10:42:56Z</time>
      </trkpt>
      <trkpt lat="45.3493" lon="5.91343">
        <ele>1028</ele>
        <time>2014-10-30T10:42:58Z</time>
      </trkpt>
      <trkpt lat="45.34913" lon="5.91328">
        <ele>1027</ele>
        <time>2014-10-30T10:43:00Z</time>
      </trkpt>
      <trkpt lat="45.34896" lon="5.91315">
        <ele>1026</ele>
        <time>2014-10-30T10:43:02Z</time>
      </trkpt>
      <trkpt lat="45.3488" lon="5.91304">
        <ele>1025</ele>
        <time>2014-10-30T10:43:04Z</time>
      </trkpt>
      <trkpt lat="45.34862" lon="5.9129">
        <ele>1025</ele>
        <time>2014-10-30T10:43:06Z</time>
      </trkpt>
      <trkpt lat="45.34845" lon="5.91272">
        <ele>1024</ele>
        <time>2014-10-30T10:43:08Z</time>
      </trkpt>
      <trkpt lat="45.3483" lon="5.91249">
        <ele>1021</ele>
        <time>2014-10-30T10:43:10Z</time>
      </trkpt>
      <trkpt lat="45.34816" lon="5.91226">
        <ele>1018</ele>
        <time>2014-10-30T10:43:12Z</time>
      </trkpt>
      <trkpt lat="45.34802" lon="5.91202">
        <ele>1017</ele>
        <time>2014-10-30T10:43:14Z</time>
      </trkpt>
      <trkpt lat="45.34789" lon="5.91178">
        <ele>1016</ele>
        <time>2014-10-30T10:43:16Z</time>
      </trkpt>
      <trkpt lat="45.34775" lon="5.91156">
        <ele>1019</ele>
        <time>2014-10-30T10:43:18Z</time>
      </trkpt>
      <trkpt lat="45.34763" lon="5.91131">
        <ele>1020</ele>
        <time>2014-10-30T10:43:20Z</time>
      </trkpt>
      <trkpt lat="45.34754" lon="5.91106">
        <ele>1020</ele>
        <time>2014-10-30T10:43:22Z</time>
      </trkpt>
      <trkpt lat="45.34745" lon="5.91073">
        <ele>1015</ele>
        <time>2014-10-30T10:43:25Z</time>
      </trkpt>
      <trkpt lat="45.34737" lon="5.91044">
        <ele>1014</ele>
        <time>2014-10-30T10:43:28Z</time>
      </trkpt>
      <trkpt lat="45.34732" lon="5.91012">
        <ele>1017</ele>
        <time>2014-10-30T10:43:32Z</time>
      </trkpt>
      <trkpt lat="45.34727" lon="5.90984">
        <ele>1020</ele>
        <time>2014-10-30T10:43:36Z</time>
      </trkpt>
      <trkpt lat="45.34721" lon="5.90959">
        <ele>1020</ele>
        <time>2014-10-30T10:43:40Z</time>
      </trkpt>
      <trkpt lat="45.34714" lon="5.9093">
        <ele>1020</ele>
        <time>2014-10-30T10:43:45Z</time>
      </trkpt>
      <trkpt lat="45.34707" lon="5.90906">
        <ele>1024</ele>
        <time>2014-10-30T10:43:50Z</time>
      </trkpt>
      <trkpt lat="45.34696" lon="5.90882">
        <ele>1024</ele>
        <time>2014-10-30T10:43:55Z</time>
      </trkpt>
      <trkpt lat="45.34684" lon="5.90858">
        <ele>1025</ele>
        <time>2014-10-30T10:44:00Z</time>
      </trkpt>
      <trkpt lat="45.34666" lon="5.90842">
        <ele>1021</ele>
        <time>2014-10-30T10:44:05Z</time>
      </trkpt>
      <trkpt lat="45.34647" lon="5.90832">
        <ele>1024</ele>
        <time>2014-10-30T10:44:10Z</time>
      </trkpt>
      <trkpt lat="45.34626" lon="5.90825">
        <ele>1023</ele>
        <time>2014-10-30T10:44:15Z</time>
      </trkpt>
      <trkpt lat="45.34606" lon="5.90819">
        <ele>1022</ele>
        <time>2014-10-30T10:44:20Z</time>
      </trkpt>
      <trkpt lat="45.34587" lon="5.90806">
        <ele>1021</ele>
        <time>2014-10-30T10:44:25Z</time>
      </trkpt>
      <trkpt lat="45.34571" lon="5.90791">
        <ele>1012</ele>
        <time>2014-10-30T10:44:29Z</time>
      </trkpt>
      <trkpt lat="45.34564" lon="5.90765">
        <ele>1014</ele>
        <time>2014-10-30T10:44:32Z</time>
      </trkpt>
      <trkpt lat="45.34569" lon="5.90733">
        <ele>1020</ele>
        <time>2014-10-30T10:44:36Z</time>
      </trkpt>
      <trkpt lat="45.34576" lon="5.90704">
        <ele>1021</ele>
        <time>2014-10-30T10:44:40Z</time>
      </trkpt>
      <trkpt lat="45.34574" lon="5.90679">
        <ele>1025</ele>
        <time>2014-10-30T10:44:43Z</time>
      </trkpt>
      <trkpt lat="45.34566" lon="5.90654">
        <ele>1029</ele>
        <time>2014-10-30T10:44:46Z</time>
      </trkpt>
      <trkpt lat="45.34552" lon="5.90636">
        <ele>1028</ele>
        <time>2014-10-30T10:44:49Z</time>
      </trkpt>
      <trkpt lat="45.34533" lon="5.90634">
        <ele>1026</ele>
        <time>2014-10-30T10:44:52Z</time>
      </trkpt>
      <trkpt lat="45.34514" lon="5.90629">
        <ele>1025</ele>
        <time>2014-10-30T10:44:55Z</time>
      </trkpt>
      <trkpt lat="45.34497" lon="5.90611">
        <ele>1019</ele>
        <time>2014-10-30T10:44:58Z</time>
      </trkpt>
      <trkpt lat="45.3448" lon="5.9059">
        <ele>1021</ele>
        <time>2014-10-30T10:45:01Z</time>
      </trkpt>
      <trkpt lat="45.34465" lon="5.90573">
        <ele>1027</ele>
        <time>2014-10-30T10:45:04Z</time>
      </trkpt>
      <trkpt lat="45.34446" lon="5.90555">
        <ele>1026</ele>
        <time>2014-10-30T10:45:08Z</time>
      </trkpt>
      <trkpt lat="45.34428" lon="5.90545">
        <ele>1026</ele>
        <time>2014-10-30T10:45:12Z</time>
      </trkpt>
      <trkpt lat="45.34409" lon="5.90541">
        <ele>1018</ele>
        <time>2014-10-30T10:45:16Z</time>
      </trkpt>
      <trkpt lat="45.3439" lon="5.90546">
        <ele>1016</ele>
        <time>2014-10-30T10:45:20Z</time>
      </trkpt>
      <trkpt lat="45.34368" lon="5.90547">
        <ele>1015</ele>
        <time>2014-10-30T10:45:25Z</time>
      </trkpt>
      <trkpt lat="45.34351" lon="5.90537">
        <ele>1015</ele>
        <time>2014-10-30T10:45:29Z</time>
      </trkpt>
      <trkpt lat="45.34336" lon="5.90519">
        <ele>1015</ele>
        <time>2014-10-30T10:45:32Z</time>
      </trkpt>
      <trkpt lat="45.3432" lon="5.90492">
        <ele>1016</ele>
        <time>2014-10-30T10:45:36Z</time>
      </trkpt>
      <trkpt lat="45.34303" lon="5.90482">
        <ele>1017</ele>
        <time>2014-10-30T10:45:38Z</time>
      </trkpt>
      <trkpt lat="45.34283" lon="5.90491">
        <ele>1016</ele>
        <time>2014-10-30T10:45:40Z</time>
      </trkpt>
      <trkpt lat="45.34267" lon="5.90507">
        <ele>1007</ele>
        <time>2014-10-30T10:45:42Z</time>
      </trkpt>
      <trkpt lat="45.3425" lon="5.9052">
        <ele>1006</ele>
        <time>2014-10-30T10:45:44Z</time>
      </trkpt>
      <trkpt lat="45.34231" lon="5.90524">
        <ele>1000</ele>
        <time>2014-10-30T10:45:46Z</time>
      </trkpt>
      <trkpt lat="45.34213" lon="5.90522">
        <ele>998</ele>
        <time>2014-10-30T10:45:48Z</time>
      </trkpt>
      <trkpt lat="45.3419" lon="5.90507">
        <ele>998</ele>
        <time>2014-10-30T10:45:51Z</time>
      </trkpt>
      <trkpt lat="45.3417" lon="5.90491">
        <ele>1004</ele>
        <time>2014-10-30T10:45:54Z</time>
      </trkpt>
      <trkpt lat="45.34149" lon="5.90475">
        <ele>999</ele>
        <time>2014-10-30T10:45:57Z</time>
      </trkpt>
      <trkpt lat="45.34129" lon="5.90457">
        <ele>999</ele>
        <time>2014-10-30T10:46:00Z</time>
      </trkpt>
      <trkpt lat="45.34108" lon="5.90439">
        <ele>998</ele>
        <time>2014-10-30T10:46:03Z</time>
      </trkpt>
      <trkpt lat="45.34094" lon="5.9041">
        <ele>1002</ele>
        <time>2014-10-30T10:46:06Z</time>
      </trkpt>
      <trkpt lat="45.34092" lon="5.90377">
        <ele>1008</ele>
        <time>2014-10-30T10:46:09Z</time>
      </trkpt>
      <trkpt lat="45.34084" lon="5.90348">
        <ele>1008</ele>
        <time>2014-10-30T10:46:12Z</time>
      </trkpt>
      <trkpt lat="45.34063" lon="5.90339">
        <ele>1001</ele>
        <time>2014-10-30T10:46:15Z</time>
      </trkpt>
      <trkpt lat="45.34045" lon="5.90347">
        <ele>999</ele>
        <time>2014-10-30T10:46:18Z</time>
      </trkpt>
      <trkpt lat="45.34026" lon="5.9036">
        <ele>998</ele>
        <time>2014-10-30T10:46:22Z</time>
      </trkpt>
      <trkpt lat="45.34007" lon="5.90364">
        <ele>998</ele>
        <time>2014-10-30T10:46:26Z</time>
      </trkpt>
      <trkpt lat="45.33988" lon="5.90363">
        <ele>995</ele>
        <time>2014-10-30T10:46:31Z</time>
      </trkpt>
      <trkpt lat="45.33966" lon="5.9036">
        <ele>995</ele>
        <time>2014-10-30T10:46:37Z</time>
      </trkpt>
      <trkpt lat="45.33945" lon="5.90358">
        <ele>995</ele>
        <time>2014-10-30T10:46:42Z</time>
      </trkpt>
      <trkpt lat="45.33929" lon="5.90346">
        <ele>997</ele>
        <time>2014-10-30T10:46:47Z</time>
      </trkpt>
      <trkpt lat="45.33912" lon="5.90332">
        <ele>1000</ele>
        <time>2014-10-30T10:46:52Z</time>
      </trkpt>
      <trkpt lat="45.33893" lon="5.90317">
        <ele>999</ele>
        <time>2014-10-30T10:46:57Z</time>
      </trkpt>
      <trkpt lat="45.33875" lon="5.90304">
        <ele>998</ele>
        <time>2014-10-30T10:47:01Z</time>
      </trkpt>
      <trkpt lat="45.33856" lon="5.90288">
        <ele>998</ele>
        <time>2014-10-30T10:47:05Z</time>
      </trkpt>
      <trkpt lat="45.33837" lon="5.90272">
        <ele>998</ele>
        <time>2014-10-30T10:47:09Z</time>
      </trkpt>
      <trkpt lat="45.33822" lon="5.90257">
        <ele>994</ele>
        <time>2014-10-30T10:47:12Z</time>
      </trkpt>
      <trkpt lat="45.33815" lon="5.9023">
        <ele>997</ele>
        <time>2014-10-30T10:47:15Z</time>
      </trkpt>
      <trkpt lat="45.338" lon="5.90203">
        <ele>997</ele>
        <time>2014-10-30T10:47:18Z</time>
      </trkpt>
      <trkpt lat="45.33772" lon="5.90206">
        <ele>995</ele>
        <time>2014-10-30T10:47:21Z</time>
      </trkpt>
      <trkpt lat="45.33754" lon="5.90215">
        <ele>994</ele>
        <time>2014-10-30T10:47:23Z</time>
      </trkpt>
      <trkpt lat="45.33737" lon="5.90226">
        <ele>988</ele>
        <time>2014-10-30T10:47:25Z</time>
      </trkpt>
      <trkpt lat="45.33716" lon="5.90236">
        <ele>987</ele>
        <time>2014-10-30T10:47:27Z</time>
      </trkpt>
      <trkpt lat="45.33692" lon="5.9024">
        <ele>985</ele>
        <time>2014-10-30T10:47:29Z</time>
      </trkpt>
      <trkpt lat="45.33667" lon="5.9024">
        <ele>982</ele>
        <time>2014-10-30T10:47:31Z</time>
      </trkpt>
      <trkpt lat="45.33643" lon="5.90236">
        <ele>979</ele>
        <time>2014-10-30T10:47:33Z</time>
      </trkpt>
      <trkpt lat="45.3362" lon="5.90232">
        <ele>977</ele>
        <time>2014-10-30T10:47:35Z</time>
      </trkpt>
      <trkpt lat="45.33597" lon="5.9023">
        <ele>974</ele>
        <time>2014-10-30T10:47:37Z</time>
      </trkpt>
      <trkpt lat="45.33573" lon="5.9023">
        <ele>969</ele>
        <time>2014-10-30T10:47:39Z</time>
      </trkpt>
      <trkpt lat="45.33549" lon="5.90237">
        <ele>969</ele>
        <time>2014-10-30T10:47:41Z</time>
      </trkpt>
      <trkpt lat="45.33526" lon="5.90246">
        <ele>967</ele>
        <time>2014-10-30T10:47:43Z</time>
      </trkpt>
      <trkpt lat="45.33502" lon="5.90254">
        <ele>962</ele>
        <time>2014-10-30T10:47:45Z</time>
      </trkpt>
      <trkpt lat="45.3348" lon="5.90265">
        <ele>958</ele>
        <time>2014-10-30T10:47:47Z</time>
      </trkpt>
      <trkpt lat="45.33459" lon="5.90282">
        <ele>955</ele>
        <time>2014-10-30T10:47:49Z</time>
      </trkpt>
      <trkpt lat="45.33437" lon="5.90293">
        <ele>954</ele>
        <time>2014-10-30T10:47:51Z</time>
      </trkpt>
      <trkpt lat="45.33412" lon="5.90292">
        <ele>948</ele>
        <time>2014-10-30T10:47:53Z</time>
      </trkpt>
      <trkpt lat="45.33388" lon="5.90279">
        <ele>947</ele>
        <time>2014-10-30T10:47:55Z</time>
      </trkpt>
      <trkpt lat="45.33367" lon="5.90259">
        <ele>946</ele>
        <time>2014-10-30T10:47:57Z</time>
      </trkpt>
      <trkpt lat="45.33344" lon="5.90242">
        <ele>949</ele>
        <time>2014-10-30T10:47:59Z</time>
      </trkpt>
      <trkpt lat="45.33319" lon="5.90229">
        <ele>946</ele>
        <time>2014-10-30T10:48:01Z</time>
      </trkpt>
      <trkpt lat="45.33294" lon="5.90224">
        <ele>945</ele>
        <time>2014-10-30T10:48:03Z</time>
      </trkpt>
      <trkpt lat="45.33267" lon="5.90222">
        <ele>944</ele>
        <time>2014-10-30T10:48:05Z</time>
      </trkpt>
      <trkpt lat="45.33242" lon="5.90221">
        <ele>939</ele>
        <time>2014-10-30T10:48:07Z</time>
      </trkpt>
      <trkpt lat="45.33217" lon="5.90229">
        <ele>938</ele>
        <time>2014-10-30T10:48:09Z</time>
      </trkpt>
      <trkpt lat="45.33193" lon="5.90242">
        <ele>936</ele>
        <time>2014-10-30T10:48:11Z</time>
      </trkpt>
      <trkpt lat="45.3317" lon="5.90258">
        <ele>929</ele>
        <time>2014-10-30T10:48:13Z</time>
      </trkpt>
      <trkpt lat="45.33148" lon="5.90273">
        <ele>925</ele>
        <time>2014-10-30T10:48:15Z</time>
      </trkpt>
      <trkpt lat="45.33126" lon="5.90283">
        <ele>924</ele>
        <time>2014-10-30T10:48:17Z</time>
      </trkpt>
      <trkpt lat="45.33103" lon="5.90287">
        <ele>924</ele>
        <time>2014-10-30T10:48:19Z</time>
      </trkpt>
      <trkpt lat="45.33079" lon="5.90292">
        <ele>923</ele>
        <time>2014-10-30T10:48:21Z</time>
      </trkpt>
      <trkpt lat="45.33058" lon="5.90304">
        <ele>922</ele>
        <time>2014-10-30T10:48:23Z</time>
      </trkpt>
      <trkpt lat="45.33036" lon="5.90312">
        <ele>922</ele>
        <time>2014-10-30T10:48:25Z</time>
      </trkpt>
      <trkpt lat="45.33014" lon="5.9032">
        <ele>921</ele>
        <time>2014-10-30T10:48:27Z</time>
      </trkpt>
      <trkpt lat="45.32991" lon="5.90324">
        <ele>921</ele>
        <time>2014-10-30T10:48:29Z</time>
      </trkpt>
      <trkpt lat="45.32971" lon="5.90331">
        <ele>922</ele>
        <time>2014-10-30T10:48:31Z</time>
      </trkpt>
      <trkpt lat="45.32948" lon="5.9034">
        <ele>917</ele>
        <time>2014-10-30T10:48:34Z</time>
      </trkpt>
      <trkpt lat="45.32926" lon="5.90347">
        <ele>918</ele>
        <time>2014-10-30T10:48:38Z</time>
      </trkpt>
      <trkpt lat="45.32906" lon="5.90339">
        <ele>918</ele>
        <time>2014-10-30T10:48:42Z</time>
      </trkpt>
      <trkpt lat="45.32895" lon="5.90318">
        <ele>921</ele>
        <time>2014-10-30T10:48:47Z</time>
      </trkpt>
      <trkpt lat="45.32886" lon="5.90295">
        <ele>921</ele>
        <time>2014-10-30T10:48:52Z</time>
      </trkpt>
      <trkpt lat="45.32876" lon="5.90271">
        <ele>922</ele>
        <time>2014-10-30T10:48:58Z</time>
      </trkpt>
      <trkpt lat="45.32862" lon="5.90249">
        <ele>924</ele>
        <time>2014-10-30T10:49:03Z</time>
      </trkpt>
      <trkpt lat="45.32847" lon="5.90229">
        <ele>924</ele>
        <time>2014-10-30T10:49:07Z</time>
      </trkpt>
      <trkpt lat="45.32829" lon="5.90211">
        <ele>919</ele>
        <time>2014-10-30T10:49:11Z</time>
      </trkpt>
      <trkpt lat="45.32813" lon="5.90191">
        <ele>919</ele>
        <time>2014-10-30T10:49:15Z</time>
      </trkpt>
      <trkpt lat="45.32799" lon="5.90167">
        <ele>918</ele>
        <time>2014-10-30T10:49:19Z</time>
      </trkpt>
      <trkpt lat="45.32784" lon="5.90144">
        <ele>922</ele>
        <time>2014-10-30T10:49:23Z</time>
      </trkpt>
      <trkpt lat="45.32768" lon="5.90128">
        <ele>922</ele>
        <time>2014-10-30T10:49:27Z</time>
      </trkpt>
      <trkpt lat="45.32751" lon="5.90114">
        <ele>922</ele>
        <time>2014-10-30T10:49:31Z</time>
      </trkpt>
      <trkpt lat="45.32734" lon="5.90104">
        <ele>918</ele>
        <time>2014-10-30T10:49:37Z</time>
      </trkpt>
      <trkpt lat="45.32722" lon="5.90082">
        <ele>921</ele>
        <time>2014-10-30T10:49:41Z</time>
      </trkpt>
      <trkpt lat="45.32707" lon="5.90057">
        <ele>921</ele>
        <time>2014-10-30T10:49:45Z</time>
      </trkpt>
      <trkpt lat="45.32692" lon="5.90031">
        <ele>920</ele>
        <time>2014-10-30T10:49:49Z</time>
      </trkpt>
      <trkpt lat="45.32681" lon="5.9001">
        <ele>919</ele>
        <time>2014-10-30T10:49:52Z</time>
      </trkpt>
      <trkpt lat="45.32669" lon="5.89988">
        <ele>920</ele>
        <time>2014-10-30T10:49:55Z</time>
      </trkpt>
      <trkpt lat="45.32656" lon="5.89966">
        <ele>917</ele>
        <time>2014-10-30T10:49:58Z</time>
      </trkpt>
      <trkpt lat="45.32643" lon="5.89947">
        <ele>917</ele>
        <time>2014-10-30T10:50:01Z</time>
      </trkpt>
      <trkpt lat="45.32628" lon="5.89924">
        <ele>917</ele>
        <time>2014-10-30T10:50:05Z</time>
      </trkpt>
      <trkpt lat="45.32613" lon="5.89904">
        <ele>920</ele>
        <time>2014-10-30T10:50:09Z</time>
      </trkpt>
      <trkpt lat="45.326" lon="5.89882">
        <ele>920</ele>
        <time>2014-10-30T10:50:14Z</time>
      </trkpt>
      <trkpt lat="45.32585" lon="5.89862">
        <ele>920</ele>
        <time>2014-10-30T10:50:21Z</time>
      </trkpt>
      <trkpt lat="45.32571" lon="5.89844">
        <ele>918</ele>
        <time>2014-10-30T10:50:27Z</time>
      </trkpt>
      <trkpt lat="45.32558" lon="5.89824">
        <ele>922</ele>
        <time>2014-10-30T10:50:33Z</time>
      </trkpt>
      <trkpt lat="45.32545" lon="5.89806">
        <ele>923</ele>
        <time>2014-10-30T10:50:39Z</time>
      </trkpt>
      <trkpt lat="45.32529" lon="5.89789">
        <ele>923</ele>
        <time>2014-10-30T10:50:45Z</time>
      </trkpt>
      <trkpt lat="45.32512" lon="5.89772">
        <ele>924</ele>
        <time>2014-10-30T10:50:51Z</time>
      </trkpt>
      <trkpt lat="45.32495" lon="5.89753">
        <ele>925</ele>
        <time>2014-10-30T10:50:57Z</time>
      </trkpt>
      <trkpt lat="45.32486" lon="5.8973">
        <ele>926</ele>
        <time>2014-10-30T10:51:02Z</time>
      </trkpt>
      <trkpt lat="45.32474" lon="5.89706">
        <ele>927</ele>
        <time>2014-10-30T10:51:07Z</time>
      </trkpt>
      <trkpt lat="45.32463" lon="5.89679">
        <ele>928</ele>
        <time>2014-10-30T10:51:12Z</time>
      </trkpt>
      <trkpt lat="45.3245" lon="5.89657">
        <ele>931</ele>
        <time>2014-10-30T10:51:17Z</time>
      </trkpt>
      <trkpt lat="45.32438" lon="5.89632">
        <ele>932</ele>
        <time>2014-10-30T10:51:22Z</time>
      </trkpt>
      <trkpt lat="45.32432" lon="5.89606">
        <ele>932</ele>
        <time>2014-10-30T10:51:27Z</time>
      </trkpt>
      <trkpt lat="45.32426" lon="5.89577">
        <ele>936</ele>
        <time>2014-10-30T10:51:33Z</time>
      </trkpt>
      <trkpt lat="45.32417" lon="5.89554">
        <ele>933</ele>
        <time>2014-10-30T10:51:38Z</time>
      </trkpt>
      <trkpt lat="45.32402" lon="5.89535">
        <ele>934</ele>
        <time>2014-10-30T10:51:43Z</time>
      </trkpt>
      <trkpt lat="45.32385" lon="5.89521">
        <ele>934</ele>
        <time>2014-10-30T10:51:48Z</time>
      </trkpt>
      <trkpt lat="45.3237" lon="5.89505">
        <ele>933</ele>
        <time>2014-10-30T10:51:55Z</time>
      </trkpt>
      <trkpt lat="45.32357" lon="5.89487">
        <ele>942</ele>
        <time>2014-10-30T10:52:06Z</time>
      </trkpt>
      <trkpt lat="45.32349" lon="5.89463">
        <ele>946</ele>
        <time>2014-10-30T10:52:17Z</time>
      </trkpt>
      <trkpt lat="45.32337" lon="5.89443">
        <ele>948</ele>
        <time>2014-10-30T10:52:39Z</time>
      </trkpt>
      <trkpt lat="45.32322" lon="5.89426">
        <ele>942</ele>
        <time>2014-10-30T10:52:54Z</time>
      </trkpt>
      <trkpt lat="45.32307" lon="5.89409">
        <ele>951</ele>
        <time>2014-10-30T10:53:06Z</time>
      </trkpt>
      <trkpt lat="45.32292" lon="5.89392">
        <ele>951</ele>
        <time>2014-10-30T10:53:15Z</time>
      </trkpt>
      <trkpt lat="45.32278" lon="5.89376">
        <ele>952</ele>
        <time>2014-10-30T10:53:25Z</time>
      </trkpt>
      <trkpt lat="45.32265" lon="5.89357">
        <ele>954</ele>
        <time>2014-10-30T10:53:42Z</time>
      </trkpt>
      <trkpt lat="45.32253" lon="5.89334">
        <ele>957</ele>
        <time>2014-10-30T10:53:52Z</time>
      </trkpt>
      <trkpt lat="45.32245" lon="5.89311">
        <ele>958</ele>
        <time>2014-10-30T10:54:09Z</time>
      </trkpt>
      <trkpt lat="45.32232" lon="5.89292">
        <ele>959</ele>
        <time>2014-10-30T10:54:25Z</time>
      </trkpt>
      <trkpt lat="45.32216" lon="5.89279">
        <ele>959</ele>
        <time>2014-10-30T10:54:40Z</time>
      </trkpt>
      <trkpt lat="45.32202" lon="5.89262">
        <ele>959</ele>
        <time>2014-10-30T10:54:58Z</time>
      </trkpt>
      <trkpt lat="45.32189" lon="5.89244">
        <ele>968</ele>
        <time>2014-10-30T10:55:10Z</time>
      </trkpt>
      <trkpt lat="45.32176" lon="5.89224">
        <ele>969</ele>
        <time>2014-10-30T10:55:22Z</time>
      </trkpt>
      <trkpt lat="45.32161" lon="5.89205">
        <ele>961</ele>
        <time>2014-10-30T10:55:30Z</time>
      </trkpt>
      <trkpt lat="45.32143" lon="5.8919">
        <ele>961</ele>
        <time>2014-10-30T10:55:39Z</time>
      </trkpt>
      <trkpt lat="45.32127" lon="5.89173">
        <ele>961</ele>
        <time>2014-10-30T10:55:48Z</time>
      </trkpt>
      <trkpt lat="45.32111" lon="5.89156">
        <ele>969</ele>
        <time>2014-10-30T10:55:57Z</time>
      </trkpt>
      <trkpt lat="45.32097" lon="5.89138">
        <ele>970</ele>
        <time>2014-10-30T10:56:05Z</time>
      </trkpt>
      <trkpt lat="45.3208" lon="5.89127">
        <ele>962</ele>
        <time>2014-10-30T10:56:10Z</time>
      </trkpt>
      <trkpt lat="45.32062" lon="5.89118">
        <ele>962</ele>
        <time>2014-10-30T10:56:15Z</time>
      </trkpt>
      <trkpt lat="45.32045" lon="5.89108">
        <ele>961</ele>
        <time>2014-10-30T10:56:20Z</time>
      </trkpt>
      <trkpt lat="45.32028" lon="5.89093">
        <ele>960</ele>
        <time>2014-10-30T10:56:27Z</time>
      </trkpt>
      <trkpt lat="45.32008" lon="5.89098">
        <ele>959</ele>
        <time>2014-10-30T10:56:33Z</time>
      </trkpt>
      <trkpt lat="45.31987" lon="5.89105">
        <ele>953</ele>
        <time>2014-10-30T10:56:38Z</time>
      </trkpt>
      <trkpt lat="45.31964" lon="5.89103">
        <ele>952</ele>
        <time>2014-10-30T10:56:42Z</time>
      </trkpt>
      <trkpt lat="45.31945" lon="5.89099">
        <ele>951</ele>
        <time>2014-10-30T10:56:49Z</time>
      </trkpt>
      <trkpt lat="45.31927" lon="5.8909">
        <ele>950</ele>
        <time>2014-10-30T12:34:58Z</time>
      </trkpt>
      <trkpt lat="45.31922" lon="5.89062">
        <ele>953</ele>
        <time>2014-10-30T12:35:04Z</time>
      </trkpt>
      <trkpt lat="45.31916" lon="5.89036">
        <ele>946</ele>
        <time>2014-10-30T12:35:09Z</time>
      </trkpt>
      <trkpt lat="45.31913" lon="5.89007">
        <ele>948</ele>
        <time>2014-10-30T12:35:15Z</time>
      </trkpt>
      <trkpt lat="45.31906" lon="5.8898">
        <ele>949</ele>
        <time>2014-10-30T12:35:20Z</time>
      </trkpt>
      <trkpt lat="45.31897" lon="5.88955">
        <ele>950</ele>
        <time>2014-10-30T12:35:25Z</time>
      </trkpt>
      <trkpt lat="45.31883" lon="5.88932">
        <ele>950</ele>
        <time>2014-10-30T12:35:30Z</time>
      </trkpt>
      <trkpt lat="45.31866" lon="5.88917">
        <ele>949</ele>
        <time>2014-10-30T12:35:35Z</time>
      </trkpt>
      <trkpt lat="45.31846" lon="5.88908">
        <ele>952</ele>
        <time>2014-10-30T12:35:40Z</time>
      </trkpt>
      <trkpt lat="45.31828" lon="5.88901">
        <ele>948</ele>
        <time>2014-10-30T12:35:44Z</time>
      </trkpt>
      <trkpt lat="45.31811" lon="5.8889">
        <ele>948</ele>
        <time>2014-10-30T12:35:48Z</time>
      </trkpt>
      <trkpt lat="45.31795" lon="5.88878">
        <ele>948</ele>
        <time>2014-10-30T12:35:52Z</time>
      </trkpt>
      <trkpt lat="45.31776" lon="5.88862">
        <ele>948</ele>
        <time>2014-10-30T12:35:57Z</time>
      </trkpt>
      <trkpt lat="45.31754" lon="5.88856">
        <ele>948</ele>
        <time>2014-10-30T12:36:02Z</time>
      </trkpt>
      <trkpt lat="45.31734" lon="5.88851">
        <ele>946</ele>
        <time>2014-10-30T12:36:07Z</time>
      </trkpt>
      <trkpt lat="45.31715" lon="5.8884">
        <ele>946</ele>
        <time>2014-10-30T12:36:12Z</time>
      </trkpt>
      <trkpt lat="45.31695" lon="5.88828">
        <ele>952</ele>
        <time>2014-10-30T12:36:17Z</time>
      </trkpt>
      <trkpt lat="45.31676" lon="5.88813">
        <ele>952</ele>
        <time>2014-10-30T12:36:22Z</time>
      </trkpt>
      <trkpt lat="45.31658" lon="5.88802">
        <ele>953</ele>
        <time>2014-10-30T12:36:26Z</time>
      </trkpt>
      <trkpt lat="45.31637" lon="5.88801">
        <ele>953</ele>
        <time>2014-10-30T12:36:31Z</time>
      </trkpt>
      <trkpt lat="45.31619" lon="5.88816">
        <ele>953</ele>
        <time>2014-10-30T12:36:36Z</time>
      </trkpt>
      <trkpt lat="45.31621" lon="5.88843">
        <ele>947</ele>
        <time>2014-10-30T12:36:54Z</time>
      </trkpt>
      <trkpt lat="45.31622" lon="5.88873">
        <ele>946</ele>
        <time>2014-10-30T12:36:57Z</time>
      </trkpt>
      <trkpt lat="45.31624" lon="5.88901">
        <ele>945</ele>
        <time>2014-10-30T12:37:00Z</time>
      </trkpt>
      <trkpt lat="45.3163" lon="5.88929">
        <ele>939</ele>
        <time>2014-10-30T12:37:04Z</time>
      </trkpt>
      <trkpt lat="45.31641" lon="5.88955">
        <ele>937</ele>
        <time>2014-10-30T12:37:09Z</time>
      </trkpt>
      <trkpt lat="45.3165" lon="5.88982">
        <ele>935</ele>
        <time>2014-10-30T12:37:14Z</time>
      </trkpt>
      <trkpt lat="45.31658" lon="5.8901">
        <ele>930</ele>
        <time>2014-10-30T12:37:18Z</time>
      </trkpt>
      <trkpt lat="45.31655" lon="5.89039">
        <ele>927</ele>
        <time>2014-10-30T12:37:22Z</time>
      </trkpt>
      <trkpt lat="45.31652" lon="5.89065">
        <ele>924</ele>
        <time>2014-10-30T12:37:25Z</time>
      </trkpt>
      <trkpt lat="45.31645" lon="5.8909">
        <ele>920</ele>
        <time>2014-10-30T12:37:28Z</time>
      </trkpt>
      <trkpt lat="45.31636" lon="5.89116">
        <ele>920</ele>
        <time>2014-10-30T12:37:31Z</time>
      </trkpt>
      <trkpt lat="45.31636" lon="5.89142">
        <ele>920</ele>
        <time>2014-10-30T12:37:35Z</time>
      </trkpt>
      <trkpt lat="45.31645" lon="5.89165">
        <ele>920</ele>
        <time>2014-10-30T12:37:40Z</time>
      </trkpt>
      <trkpt lat="45.31651" lon="5.89191">
        <ele>919</ele>
        <time>2014-10-30T12:37:48Z</time>
      </trkpt>
      <trkpt lat="45.31656" lon="5.89219">
        <ele>918</ele>
        <time>2014-10-30T12:38:54Z</time>
      </trkpt>
      <trkpt lat="45.31653" lon="5.89248">
        <ele>916</ele>
        <time>2014-10-30T12:39:01Z</time>
      </trkpt>
      <trkpt lat="45.31635" lon="5.89256">
        <ele>917</ele>
        <time>2014-10-30T12:39:08Z</time>
      </trkpt>
      <trkpt lat="45.31618" lon="5.89244">
        <ele>920</ele>
        <time>2014-10-30T12:39:18Z</time>
      </trkpt>
      <trkpt lat="45.31602" lon="5.89224">
        <ele>920</ele>
        <time>2014-10-30T12:39:26Z</time>
      </trkpt>
      <trkpt lat="45.31588" lon="5.89207">
        <ele>920</ele>
        <time>2014-10-30T12:39:31Z</time>
      </trkpt>
      <trkpt lat="45.31574" lon="5.89191">
        <ele>923</ele>
        <time>2014-10-30T12:39:36Z</time>
      </trkpt>
      <trkpt lat="45.31561" lon="5.89174">
        <ele>923</ele>
        <time>2014-10-30T12:39:41Z</time>
      </trkpt>
      <trkpt lat="45.31547" lon="5.89156">
        <ele>922</ele>
        <time>2014-10-30T12:39:47Z</time>
      </trkpt>
      <trkpt lat="45.31533" lon="5.89138">
        <ele>923</ele>
        <time>2014-10-30T12:39:54Z</time>
      </trkpt>
      <trkpt lat="45.31517" lon="5.89125">
        <ele>923</ele>
        <time>2014-10-30T12:40:00Z</time>
      </trkpt>
      <trkpt lat="45.31501" lon="5.89109">
        <ele>924</ele>
        <time>2014-10-30T12:40:06Z</time>
      </trkpt>
      <trkpt lat="45.31485" lon="5.8909">
        <ele>927</ele>
        <time>2014-10-30T12:40:13Z</time>
      </trkpt>
      <trkpt lat="45.31469" lon="5.89073">
        <ele>929</ele>
        <time>2014-10-30T12:40:20Z</time>
      </trkpt>
      <trkpt lat="45.3145" lon="5.89063">
        <ele>930</ele>
        <time>2014-10-30T12:40:28Z</time>
      </trkpt>
      <trkpt lat="45.31432" lon="5.89054">
        <ele>931</ele>
        <time>2014-10-30T12:40:35Z</time>
      </trkpt>
      <trkpt lat="45.31414" lon="5.89054">
        <ele>936</ele>
        <time>2014-10-30T12:40:47Z</time>
      </trkpt>
      <trkpt lat="45.314" lon="5.89071">
        <ele>935</ele>
        <time>2014-10-30T12:40:56Z</time>
      </trkpt>
      <trkpt lat="45.31391" lon="5.89093">
        <ele>936</ele>
        <time>2014-10-30T12:41:04Z</time>
      </trkpt>
      <trkpt lat="45.31387" lon="5.8912">
        <ele>937</ele>
        <time>2014-10-30T12:41:13Z</time>
      </trkpt>
      <trkpt lat="45.31385" lon="5.89148">
        <ele>938</ele>
        <time>2014-10-30T12:41:21Z</time>
      </trkpt>
      <trkpt lat="45.31383" lon="5.89174">
        <ele>940</ele>
        <time>2014-10-30T12:41:29Z</time>
      </trkpt>
      <trkpt lat="45.31384" lon="5.89202">
        <ele>941</ele>
        <time>2014-10-30T12:41:38Z</time>
      </trkpt>
      <trkpt lat="45.31389" lon="5.89227">
        <ele>941</ele>
        <time>2014-10-30T12:41:47Z</time>
      </trkpt>
      <trkpt lat="45.31395" lon="5.89252">
        <ele>943</ele>
        <time>2014-10-30T12:41:54Z</time>
      </trkpt>
      <trkpt lat="45.31398" lon="5.89278">
        <ele>945</ele>
        <time>2014-10-30T12:42:03Z</time>
      </trkpt>
      <trkpt lat="45.31396" lon="5.89307">
        <ele>946</ele>
        <time>2014-10-30T12:42:12Z</time>
      </trkpt>
      <trkpt lat="45.31387" lon="5.8933">
        <ele>947</ele>
        <time>2014-10-30T12:42:20Z</time>
      </trkpt>
      <trkpt lat="45.31379" lon="5.89354">
        <ele>951</ele>
        <time>2014-10-30T12:42:28Z</time>
      </trkpt>
      <trkpt lat="45.31376" lon="5.89381">
        <ele>951</ele>
        <time>2014-10-30T12:42:37Z</time>
      </trkpt>
      <trkpt lat="45.31375" lon="5.8941">
        <ele>952</ele>
        <time>2014-10-30T12:42:46Z</time>
      </trkpt>
      <trkpt lat="45.31374" lon="5.89439">
        <ele>955</ele>
        <time>2014-10-30T12:42:54Z</time>
      </trkpt>
      <trkpt lat="45.31371" lon="5.89466">
        <ele>955</ele>
        <time>2014-10-30T12:43:02Z</time>
      </trkpt>
      <trkpt lat="45.31366" lon="5.89492">
        <ele>956</ele>
        <time>2014-10-30T12:43:11Z</time>
      </trkpt>
      <trkpt lat="45.31359" lon="5.89518">
        <ele>957</ele>
        <time>2014-10-30T12:43:21Z</time>
      </trkpt>
      <trkpt lat="45.31352" lon="5.89542">
        <ele>957</ele>
        <time>2014-10-30T12:43:29Z</time>
      </trkpt>
      <trkpt lat="45.31346" lon="5.89567">
        <ele>957</ele>
        <time>2014-10-30T12:43:36Z</time>
      </trkpt>
      <trkpt lat="45.31335" lon="5.89591">
        <ele>958</ele>
        <time>2014-10-30T12:43:44Z</time>
      </trkpt>
      <trkpt lat="45.31316" lon="5.89606">
        <ele>960</ele>
        <time>2014-10-30T12:43:51Z</time>
      </trkpt>
      <trkpt lat="45.313" lon="5.89618">
        <ele>961</ele>
        <time>2014-10-30T12:43:58Z</time>
      </trkpt>
      <trkpt lat="45.31284" lon="5.89634">
        <ele>961</ele>
        <time>2014-10-30T12:44:06Z</time>
      </trkpt>
      <trkpt lat="45.31268" lon="5.89651">
        <ele>961</ele>
        <time>2014-10-30T12:44:13Z</time>
      </trkpt>
      <trkpt lat="45.3125" lon="5.89664">
        <ele>961</ele>
        <time>2014-10-30T12:44:20Z</time>
      </trkpt>
      <trkpt lat="45.31232" lon="5.89674">
        <ele>961</ele>
        <time>2014-10-30T12:44:28Z</time>
      </trkpt>
      <trkpt lat="45.31215" lon="5.89683">
        <ele>961</ele>
        <time>2014-10-30T12:44:35Z</time>
      </trkpt>
      <trkpt lat="45.31197" lon="5.89693">
        <ele>961</ele>
        <time>2014-10-30T12:44:42Z</time>
      </trkpt>
      <trkpt lat="45.31176" lon="5.89697">
        <ele>961</ele>
        <time>2014-10-30T12:44:49Z</time>
      </trkpt>
      <trkpt lat="45.31158" lon="5.89685">
        <ele>956</ele>
        <time>2014-10-30T12:44:54Z</time>
      </trkpt>
      <trkpt lat="45.31142" lon="5.89669">
        <ele>954</ele>
        <time>2014-10-30T12:44:58Z</time>
      </trkpt>
      <trkpt lat="45.31125" lon="5.89648">
        <ele>956</ele>
        <time>2014-10-30T12:45:02Z</time>
      </trkpt>
      <trkpt lat="45.31115" lon="5.89623">
        <ele>957</ele>
        <time>2014-10-30T12:45:07Z</time>
      </trkpt>
      <trkpt lat="45.31101" lon="5.89605">
        <ele>957</ele>
        <time>2014-10-30T12:45:15Z</time>
      </trkpt>
      <trkpt lat="45.31091" lon="5.89582">
        <ele>960</ele>
        <time>2014-10-30T12:45:28Z</time>
      </trkpt>
      <trkpt lat="45.31092" lon="5.89557">
        <ele>962</ele>
        <time>2014-10-30T12:45:38Z</time>
      </trkpt>
      <trkpt lat="45.31094" lon="5.89529">
        <ele>963</ele>
        <time>2014-10-30T12:45:46Z</time>
      </trkpt>
      <trkpt lat="45.31095" lon="5.89502">
        <ele>962</ele>
        <time>2014-10-30T12:45:53Z</time>
      </trkpt>
      <trkpt lat="45.31096" lon="5.89475">
        <ele>963</ele>
        <time>2014-10-30T12:46:01Z</time>
      </trkpt>
      <trkpt lat="45.31096" lon="5.89448">
        <ele>963</ele>
        <time>2014-10-30T12:46:08Z</time>
      </trkpt>
      <trkpt lat="45.31095" lon="5.89419">
        <ele>962</ele>
        <time>2014-10-30T12:46:14Z</time>
      </trkpt>
      <trkpt lat="45.31095" lon="5.89393">
        <ele>961</ele>
        <time>2014-10-30T12:46:18Z</time>
      </trkpt>
      <trkpt lat="45.31094" lon="5.89361">
        <ele>960</ele>
        <time>2014-10-30T12:46:22Z</time>
      </trkpt>
      <trkpt lat="45.31094" lon="5.89331">
        <ele>957</ele>
        <time>2014-10-30T12:46:27Z</time>
      </trkpt>
      <trkpt lat="45.31092" lon="5.89304">
        <ele>958</ele>
        <time>2014-10-30T12:46:31Z</time>
      </trkpt>
      <trkpt lat="45.31092" lon="5.89278">
        <ele>957</ele>
        <time>2014-10-30T12:46:37Z</time>
      </trkpt>
      <trkpt lat="45.31098" lon="5.89252">
        <ele>956</ele>
        <time>2014-10-30T12:46:42Z</time>
      </trkpt>
      <trkpt lat="45.31111" lon="5.89232">
        <ele>959</ele>
        <time>2014-10-30T12:46:46Z</time>
      </trkpt>
      <trkpt lat="45.31119" lon="5.89209">
        <ele>960</ele>
        <time>2014-10-30T12:46:56Z</time>
      </trkpt>
      <trkpt lat="45.31115" lon="5.89184">
        <ele>961</ele>
        <time>2014-10-30T12:47:06Z</time>
      </trkpt>
      <trkpt lat="45.3111" lon="5.89158">
        <ele>963</ele>
        <time>2014-10-30T12:47:15Z</time>
      </trkpt>
      <trkpt lat="45.3111" lon="5.89131">
        <ele>963</ele>
        <time>2014-10-30T12:47:25Z</time>
      </trkpt>
      <trkpt lat="45.31112" lon="5.89104">
        <ele>964</ele>
        <time>2014-10-30T12:47:35Z</time>
      </trkpt>
      <trkpt lat="45.31106" lon="5.89076">
        <ele>964</ele>
        <time>2014-10-30T12:47:43Z</time>
      </trkpt>
      <trkpt lat="45.31101" lon="5.89049">
        <ele>964</ele>
        <time>2014-10-30T12:47:49Z</time>
      </trkpt>
      <trkpt lat="45.31093" lon="5.89022">
        <ele>964</ele>
        <time>2014-10-30T12:47:55Z</time>
      </trkpt>
      <trkpt lat="45.3108" lon="5.88998">
        <ele>966</ele>
        <time>2014-10-30T12:48:02Z</time>
      </trkpt>
      <trkpt lat="45.31065" lon="5.88979">
        <ele>963</ele>
        <time>2014-10-30T12:48:48Z</time>
      </trkpt>
      <trkpt lat="45.31059" lon="5.8895">
        <ele>963</ele>
        <time>2014-10-30T12:48:56Z</time>
      </trkpt>
      <trkpt lat="45.31052" lon="5.88923">
        <ele>964</ele>
        <time>2014-10-30T12:49:00Z</time>
      </trkpt>
      <trkpt lat="45.31045" lon="5.88893">
        <ele>966</ele>
        <time>2014-10-30T12:49:04Z</time>
      </trkpt>
      <trkpt lat="45.31039" lon="5.88868">
        <ele>966</ele>
        <time>2014-10-30T12:49:08Z</time>
      </trkpt>
      <trkpt lat="45.31031" lon="5.88843">
        <ele>966</ele>
        <time>2014-10-30T12:49:13Z</time>
      </trkpt>
      <trkpt lat="45.3102" lon="5.88819">
        <ele>967</ele>
        <time>2014-10-30T12:49:20Z</time>
      </trkpt>
      <trkpt lat="45.31006" lon="5.88799">
        <ele>967</ele>
        <time>2014-10-30T12:49:30Z</time>
      </trkpt>
      <trkpt lat="45.3099" lon="5.88776">
        <ele>966</ele>
        <time>2014-10-30T12:49:36Z</time>
      </trkpt>
      <trkpt lat="45.30979" lon="5.88746">
        <ele>967</ele>
        <time>2014-10-30T12:49:40Z</time>
      </trkpt>
      <trkpt lat="45.30976" lon="5.88717">
        <ele>968</ele>
        <time>2014-10-30T12:49:43Z</time>
      </trkpt>
      <trkpt lat="45.30971" lon="5.88692">
        <ele>968</ele>
        <time>2014-10-30T12:49:48Z</time>
      </trkpt>
      <trkpt lat="45.30957" lon="5.88674">
        <ele>968</ele>
        <time>2014-10-30T12:49:53Z</time>
      </trkpt>
      <trkpt lat="45.30941" lon="5.88652">
        <ele>971</ele>
        <time>2014-10-30T12:49:58Z</time>
      </trkpt>
      <trkpt lat="45.30928" lon="5.88628">
        <ele>972</ele>
        <time>2014-10-30T12:50:03Z</time>
      </trkpt>
      <trkpt lat="45.30919" lon="5.88605">
        <ele>973</ele>
        <time>2014-10-30T12:50:08Z</time>
      </trkpt>
      <trkpt lat="45.30909" lon="5.88579">
        <ele>973</ele>
        <time>2014-10-30T12:50:14Z</time>
      </trkpt>
      <trkpt lat="45.309" lon="5.88555">
        <ele>972</ele>
        <time>2014-10-30T12:50:20Z</time>
      </trkpt>
      <trkpt lat="45.30889" lon="5.88532">
        <ele>973</ele>
        <time>2014-10-30T12:50:26Z</time>
      </trkpt>
      <trkpt lat="45.30879" lon="5.88509">
        <ele>973</ele>
        <time>2014-10-30T12:50:32Z</time>
      </trkpt>
      <trkpt lat="45.30869" lon="5.88484">
        <ele>978</ele>
        <time>2014-10-30T12:50:38Z</time>
      </trkpt>
      <trkpt lat="45.30859" lon="5.8846">
        <ele>979</ele>
        <time>2014-10-30T12:50:44Z</time>
      </trkpt>
      <trkpt lat="45.30851" lon="5.88436">
        <ele>979</ele>
        <time>2014-10-30T12:50:50Z</time>
      </trkpt>
      <trkpt lat="45.30842" lon="5.88411">
        <ele>981</ele>
        <time>2014-10-30T12:50:56Z</time>
      </trkpt>
      <trkpt lat="45.30831" lon="5.88387">
        <ele>976</ele>
        <time>2014-10-30T12:51:02Z</time>
      </trkpt>
      <trkpt lat="45.30825" lon="5.88361">
        <ele>977</ele>
        <time>2014-10-30T12:51:08Z</time>
      </trkpt>
      <trkpt lat="45.3082" lon="5.88332">
        <ele>982</ele>
        <time>2014-10-30T12:51:14Z</time>
      </trkpt>
      <trkpt lat="45.30807" lon="5.88314">
        <ele>981</ele>
        <time>2014-10-30T12:51:19Z</time>
      </trkpt>
      <trkpt lat="45.30796" lon="5.88293">
        <ele>981</ele>
        <time>2014-10-30T12:51:24Z</time>
      </trkpt>
      <trkpt lat="45.30788" lon="5.88269">
        <ele>981</ele>
        <time>2014-10-30T12:51:29Z</time>
      </trkpt>
      <trkpt lat="45.30783" lon="5.88243">
        <ele>986</ele>
        <time>2014-10-30T12:51:34Z</time>
      </trkpt>
      <trkpt lat="45.30776" lon="5.88217">
        <ele>987</ele>
        <time>2014-10-30T12:51:39Z</time>
      </trkpt>
      <trkpt lat="45.30767" lon="5.88191">
        <ele>988</ele>
        <time>2014-10-30T12:51:44Z</time>
      </trkpt>
      <trkpt lat="45.30757" lon="5.88165">
        <ele>990</ele>
        <time>2014-10-30T12:51:49Z</time>
      </trkpt>
      <trkpt lat="45.30747" lon="5.88143">
        <ele>987</ele>
        <time>2014-10-30T12:51:54Z</time>
      </trkpt>
      <trkpt lat="45.30735" lon="5.88123">
        <ele>989</ele>
        <time>2014-10-30T12:51:59Z</time>
      </trkpt>
      <trkpt lat="45.30719" lon="5.88106">
        <ele>990</ele>
        <time>2014-10-30T12:52:05Z</time>
      </trkpt>
      <trkpt lat="45.30702" lon="5.8809">
        <ele>989</ele>
        <time>2014-10-30T12:52:11Z</time>
      </trkpt>
      <trkpt lat="45.30688" lon="5.88071">
        <ele>997</ele>
        <time>2014-10-30T12:52:17Z</time>
      </trkpt>
      <trkpt lat="45.30673" lon="5.88054">
        <ele>998</ele>
        <time>2014-10-30T12:52:24Z</time>
      </trkpt>
      <trkpt lat="45.30659" lon="5.88035">
        <ele>994</ele>
        <time>2014-10-30T12:52:31Z</time>
      </trkpt>
      <trkpt lat="45.30644" lon="5.88016">
        <ele>996</ele>
        <time>2014-10-30T12:52:39Z</time>
      </trkpt>
      <trkpt lat="45.30629" lon="5.88001">
        <ele>996</ele>
        <time>2014-10-30T12:52:46Z</time>
      </trkpt>
      <trkpt lat="45.30611" lon="5.87989">
        <ele>1004</ele>
        <time>2014-10-30T12:52:54Z</time>
      </trkpt>
      <trkpt lat="45.30592" lon="5.87989">
        <ele>1001</ele>
        <time>2014-10-30T12:53:01Z</time>
      </trkpt>
      <trkpt lat="45.30573" lon="5.87986">
        <ele>1001</ele>
        <time>2014-10-30T12:53:08Z</time>
      </trkpt>
      <trkpt lat="45.30554" lon="5.87985">
        <ele>1003</ele>
        <time>2014-10-30T12:53:15Z</time>
      </trkpt>
      <trkpt lat="45.30537" lon="5.87993">
        <ele>1003</ele>
        <time>2014-10-30T12:53:22Z</time>
      </trkpt>
      <trkpt lat="45.30519" lon="5.88002">
        <ele>996</ele>
        <time>2014-10-30T12:53:28Z</time>
      </trkpt>
      <trkpt lat="45.30502" lon="5.8801">
        <ele>997</ele>
        <time>2014-10-30T12:53:35Z</time>
      </trkpt>
      <trkpt lat="45.30483" lon="5.88015">
        <ele>998</ele>
        <time>2014-10-30T12:53:42Z</time>
      </trkpt>
      <trkpt lat="45.30463" lon="5.88011">
        <ele>999</ele>
        <time>2014-10-30T12:53:49Z</time>
      </trkpt>
      <trkpt lat="45.30445" lon="5.88003">
        <ele>1000</ele>
        <time>2014-10-30T12:53:55Z</time>
      </trkpt>
      <trkpt lat="45.30428" lon="5.8799">
        <ele>1007</ele>
        <time>2014-10-30T12:54:01Z</time>
      </trkpt>
      <trkpt lat="45.30411" lon="5.87979">
        <ele>1009</ele>
        <time>2014-10-30T12:54:07Z</time>
      </trkpt>
      <trkpt lat="45.30393" lon="5.87966">
        <ele>1011</ele>
        <time>2014-10-30T12:54:14Z</time>
      </trkpt>
      <trkpt lat="45.30377" lon="5.87952">
        <ele>1012</ele>
        <time>2014-10-30T12:54:20Z</time>
      </trkpt>
      <trkpt lat="45.30362" lon="5.87933">
        <ele>1012</ele>
        <time>2014-10-30T12:54:27Z</time>
      </trkpt>
      <trkpt lat="45.30347" lon="5.87914">
        <ele>1017</ele>
        <time>2014-10-30T12:54:34Z</time>
      </trkpt>
      <trkpt lat="45.30334" lon="5.87891">
        <ele>1019</ele>
        <time>2014-10-30T12:54:41Z</time>
      </trkpt>
      <trkpt lat="45.30323" lon="5.87871">
        <ele>1018</ele>
        <time>2014-10-30T12:54:47Z</time>
      </trkpt>
      <trkpt lat="45.30313" lon="5.87849">
        <ele>1019</ele>
        <time>2014-10-30T12:54:53Z</time>
      </trkpt>
      <trkpt lat="45.30303" lon="5.87827">
        <ele>1022</ele>
        <time>2014-10-30T12:54:59Z</time>
      </trkpt>
      <trkpt lat="45.30294" lon="5.87803">
        <ele>1022</ele>
        <time>2014-10-30T12:55:05Z</time>
      </trkpt>
      <trkpt lat="45.30284" lon="5.87777">
        <ele>1023</ele>
        <time>2014-10-30T12:55:12Z</time>
      </trkpt>
      <trkpt lat="45.30276" lon="5.87755">
        <ele>1023</ele>
        <time>2014-10-30T12:55:18Z</time>
      </trkpt>
      <trkpt lat="45.30266" lon="5.87731">
        <ele>1026</ele>
        <time>2014-10-30T12:55:24Z</time>
      </trkpt>
      <trkpt lat="45.30257" lon="5.8771">
        <ele>1027</ele>
        <time>2014-10-30T12:55:30Z</time>
      </trkpt>
      <trkpt lat="45.30246" lon="5.87685">
        <ele>1024</ele>
        <time>2014-10-30T12:55:37Z</time>
      </trkpt>
      <trkpt lat="45.30235" lon="5.87659">
        <ele>1026</ele>
        <time>2014-10-30T12:55:44Z</time>
      </trkpt>
      <trkpt lat="45.30226" lon="5.87635">
        <ele>1027</ele>
        <time>2014-10-30T12:55:51Z</time>
      </trkpt>
      <trkpt lat="45.30218" lon="5.87612">
        <ele>1027</ele>
        <time>2014-10-30T12:55:57Z</time>
      </trkpt>
      <trkpt lat="45.30211" lon="5.87587">
        <ele>1027</ele>
        <time>2014-10-30T12:56:03Z</time>
      </trkpt>
      <trkpt lat="45.30205" lon="5.8756">
        <ele>1030</ele>
        <time>2014-10-30T12:56:09Z</time>
      </trkpt>
      <trkpt lat="45.30198" lon="5.87534">
        <ele>1031</ele>
        <time>2014-10-30T12:56:15Z</time>
      </trkpt>
      <trkpt lat="45.30191" lon="5.87506">
        <ele>1030</ele>
        <time>2014-10-30T12:56:21Z</time>
      </trkpt>
      <trkpt lat="45.30185" lon="5.87477">
        <ele>1033</ele>
        <time>2014-10-30T12:56:27Z</time>
      </trkpt>
      <trkpt lat="45.30173" lon="5.87452">
        <ele>1033</ele>
        <time>2014-10-30T12:56:33Z</time>
      </trkpt>
      <trkpt lat="45.30163" lon="5.87429">
        <ele>1027</ele>
        <time>2014-10-30T12:56:38Z</time>
      </trkpt>
      <trkpt lat="45.30153" lon="5.87407">
        <ele>1029</ele>
        <time>2014-10-30T12:56:43Z</time>
      </trkpt>
      <trkpt lat="45.30143" lon="5.87384">
        <ele>1028</ele>
        <time>2014-10-30T12:56:48Z</time>
      </trkpt>
      <trkpt lat="45.30138" lon="5.87357">
        <ele>1029</ele>
        <time>2014-10-30T12:56:54Z</time>
      </trkpt>
      <trkpt lat="45.30155" lon="5.87346">
        <ele>1031</ele>
        <time>2014-10-30T12:57:02Z</time>
      </trkpt>
      <trkpt lat="45.30173" lon="5.87343">
        <ele>1036</ele>
        <time>2014-10-30T12:57:12Z</time>
      </trkpt>
      <trkpt lat="45.30192" lon="5.87353">
        <ele>1037</ele>
        <time>2014-10-30T12:57:23Z</time>
      </trkpt>
      <trkpt lat="45.30209" lon="5.87368">
        <ele>1038</ele>
        <time>2014-10-30T12:57:33Z</time>
      </trkpt>
      <trkpt lat="45.30224" lon="5.87384">
        <ele>1039</ele>
        <time>2014-10-30T12:57:43Z</time>
      </trkpt>
      <trkpt lat="45.3024" lon="5.87399">
        <ele>1040</ele>
        <time>2014-10-30T12:57:52Z</time>
      </trkpt>
      <trkpt lat="45.30257" lon="5.87409">
        <ele>1045</ele>
        <time>2014-10-30T12:58:01Z</time>
      </trkpt>
      <trkpt lat="45.30275" lon="5.8742">
        <ele>1046</ele>
        <time>2014-10-30T12:58:11Z</time>
      </trkpt>
      <trkpt lat="45.30292" lon="5.8743">
        <ele>1047</ele>
        <time>2014-10-30T12:58:20Z</time>
      </trkpt>
      <trkpt lat="45.30309" lon="5.87443">
        <ele>1048</ele>
        <time>2014-10-30T12:58:29Z</time>
      </trkpt>
      <trkpt lat="45.30322" lon="5.87461">
        <ele>1048</ele>
        <time>2014-10-30T12:58:38Z</time>
      </trkpt>
      <trkpt lat="45.30335" lon="5.87479">
        <ele>1054</ele>
        <time>2014-10-30T12:58:47Z</time>
      </trkpt>
      <trkpt lat="45.30348" lon="5.87499">
        <ele>1054</ele>
        <time>2014-10-30T12:58:56Z</time>
      </trkpt>
      <trkpt lat="45.30361" lon="5.8752">
        <ele>1053</ele>
        <time>2014-10-30T12:59:06Z</time>
      </trkpt>
      <trkpt lat="45.30371" lon="5.87543">
        <ele>1054</ele>
        <time>2014-10-30T12:59:16Z</time>
      </trkpt>
      <trkpt lat="45.3038" lon="5.87567">
        <ele>1054</ele>
        <time>2014-10-30T12:59:25Z</time>
      </trkpt>
      <trkpt lat="45.30398" lon="5.87569">
        <ele>1055</ele>
        <time>2014-10-30T12:59:36Z</time>
      </trkpt>
      <trkpt lat="45.30397" lon="5.87541">
        <ele>1056</ele>
        <time>2014-10-30T12:59:44Z</time>
      </trkpt>
      <trkpt lat="45.30392" lon="5.87513">
        <ele>1057</ele>
        <time>2014-10-30T12:59:52Z</time>
      </trkpt>
      <trkpt lat="45.30391" lon="5.87486">
        <ele>1060</ele>
        <time>2014-10-30T13:00:00Z</time>
      </trkpt>
      <trkpt lat="45.30391" lon="5.87458">
        <ele>1061</ele>
        <time>2014-10-30T13:00:08Z</time>
      </trkpt>
      <trkpt lat="45.30393" lon="5.87432">
        <ele>1063</ele>
        <time>2014-10-30T13:00:16Z</time>
      </trkpt>
      <trkpt lat="45.30394" lon="5.87405">
        <ele>1068</ele>
        <time>2014-10-30T13:00:24Z</time>
      </trkpt>
      <trkpt lat="45.30388" lon="5.87378">
        <ele>1068</ele>
        <time>2014-10-30T13:00:32Z</time>
      </trkpt>
      <trkpt lat="45.30381" lon="5.87354">
        <ele>1069</ele>
        <time>2014-10-30T13:00:39Z</time>
      </trkpt>
      <trkpt lat="45.30374" lon="5.87327">
        <ele>1075</ele>
        <time>2014-10-30T13:00:47Z</time>
      </trkpt>
      <trkpt lat="45.30366" lon="5.87302">
        <ele>1075</ele>
        <time>2014-10-30T13:00:55Z</time>
      </trkpt>
      <trkpt lat="45.30359" lon="5.87275">
        <ele>1075</ele>
        <time>2014-10-30T13:01:03Z</time>
      </trkpt>
      <trkpt lat="45.30351" lon="5.87249">
        <ele>1078</ele>
        <time>2014-10-30T13:01:11Z</time>
      </trkpt>
      <trkpt lat="45.30342" lon="5.87224">
        <ele>1080</ele>
        <time>2014-10-30T13:01:19Z</time>
      </trkpt>
      <trkpt lat="45.30335" lon="5.87199">
        <ele>1082</ele>
        <time>2014-10-30T13:01:27Z</time>
      </trkpt>
      <trkpt lat="45.30353" lon="5.87207">
        <ele>1083</ele>
        <time>2014-10-30T13:01:39Z</time>
      </trkpt>
      <trkpt lat="45.30364" lon="5.8723">
        <ele>1083</ele>
        <time>2014-10-30T13:01:47Z</time>
      </trkpt>
      <trkpt lat="45.30377" lon="5.87249">
        <ele>1084</ele>
        <time>2014-10-30T13:01:55Z</time>
      </trkpt>
      <trkpt lat="45.3039" lon="5.8727">
        <ele>1080</ele>
        <time>2014-10-30T13:02:03Z</time>
      </trkpt>
      <trkpt lat="45.30402" lon="5.8729">
        <ele>1080</ele>
        <time>2014-10-30T13:02:11Z</time>
      </trkpt>
      <trkpt lat="45.30413" lon="5.87311">
        <ele>1080</ele>
        <time>2014-10-30T13:02:19Z</time>
      </trkpt>
      <trkpt lat="45.30425" lon="5.87331">
        <ele>1088</ele>
        <time>2014-10-30T13:02:27Z</time>
      </trkpt>
      <trkpt lat="45.30436" lon="5.87352">
        <ele>1088</ele>
        <time>2014-10-30T13:02:35Z</time>
      </trkpt>
      <trkpt lat="45.30447" lon="5.87376">
        <ele>1089</ele>
        <time>2014-10-30T13:02:44Z</time>
      </trkpt>
      <trkpt lat="45.30455" lon="5.87401">
        <ele>1089</ele>
        <time>2014-10-30T13:02:53Z</time>
      </trkpt>
      <trkpt lat="45.30463" lon="5.87425">
        <ele>1084</ele>
        <time>2014-10-30T13:03:01Z</time>
      </trkpt>
      <trkpt lat="45.30471" lon="5.8745">
        <ele>1084</ele>
        <time>2014-10-30T13:03:10Z</time>
      </trkpt>
      <trkpt lat="45.30481" lon="5.87472">
        <ele>1084</ele>
        <time>2014-10-30T13:03:18Z</time>
      </trkpt>
      <trkpt lat="45.30495" lon="5.87493">
        <ele>1087</ele>
        <time>2014-10-30T13:03:27Z</time>
      </trkpt>
      <trkpt lat="45.3051" lon="5.8751">
        <ele>1090</ele>
        <time>2014-10-30T13:03:35Z</time>
      </trkpt>
      <trkpt lat="45.30527" lon="5.87525">
        <ele>1090</ele>
        <time>2014-10-30T13:03:43Z</time>
      </trkpt>
      <trkpt lat="45.30545" lon="5.87537">
        <ele>1091</ele>
        <time>2014-10-30T13:03:51Z</time>
      </trkpt>
      <trkpt lat="45.30563" lon="5.87538">
        <ele>1092</ele>
        <time>2014-10-30T13:03:59Z</time>
      </trkpt>
      <trkpt lat="45.30578" lon="5.8752">
        <ele>1097</ele>
        <time>2014-10-30T13:04:08Z</time>
      </trkpt>
      <trkpt lat="45.30591" lon="5.87498">
        <ele>1108</ele>
        <time>2014-10-30T13:04:17Z</time>
      </trkpt>
      <trkpt lat="45.30603" lon="5.87478">
        <ele>1112</ele>
        <time>2014-10-30T13:04:26Z</time>
      </trkpt>
      <trkpt lat="45.30619" lon="5.87466">
        <ele>1114</ele>
        <time>2014-10-30T13:04:36Z</time>
      </trkpt>
      <trkpt lat="45.30638" lon="5.87464">
        <ele>1115</ele>
        <time>2014-10-30T13:04:46Z</time>
      </trkpt>
      <trkpt lat="45.30657" lon="5.87464">
        <ele>1115</ele>
        <time>2014-10-30T13:04:57Z</time>
      </trkpt>
      <trkpt lat="45.30675" lon="5.87463">
        <ele>1120</ele>
        <time>2014-10-30T13:05:07Z</time>
      </trkpt>
      <trkpt lat="45.30693" lon="5.87462">
        <ele>1122</ele>
        <time>2014-10-30T13:05:17Z</time>
      </trkpt>
      <trkpt lat="45.30712" lon="5.87465">
        <ele>1123</ele>
        <time>2014-10-30T13:05:27Z</time>
      </trkpt>
      <trkpt lat="45.30731" lon="5.8747">
        <ele>1123</ele>
        <time>2014-10-30T13:05:38Z</time>
      </trkpt>
      <trkpt lat="45.3075" lon="5.87481">
        <ele>1122</ele>
        <time>2014-10-30T13:05:48Z</time>
      </trkpt>
      <trkpt lat="45.30765" lon="5.87495">
        <ele>1127</ele>
        <time>2014-10-30T13:05:57Z</time>
      </trkpt>
      <trkpt lat="45.30779" lon="5.87511">
        <ele>1122</ele>
        <time>2014-10-30T13:06:06Z</time>
      </trkpt>
      <trkpt lat="45.30794" lon="5.87529">
        <ele>1123</ele>
        <time>2014-10-30T13:06:16Z</time>
      </trkpt>
      <trkpt lat="45.30809" lon="5.87546">
        <ele>1123</ele>
        <time>2014-10-30T13:06:26Z</time>
      </trkpt>
      <trkpt lat="45.30824" lon="5.87563">
        <ele>1123</ele>
        <time>2014-10-30T13:06:35Z</time>
      </trkpt>
      <trkpt lat="45.3084" lon="5.87577">
        <ele>1128</ele>
        <time>2014-10-30T13:06:44Z</time>
      </trkpt>
      <trkpt lat="45.30859" lon="5.87578">
        <ele>1132</ele>
        <time>2014-10-30T13:06:54Z</time>
      </trkpt>
      <trkpt lat="45.30877" lon="5.8757">
        <ele>1135</ele>
        <time>2014-10-30T13:07:03Z</time>
      </trkpt>
      <trkpt lat="45.30889" lon="5.8755">
        <ele>1137</ele>
        <time>2014-10-30T13:07:13Z</time>
      </trkpt>
      <trkpt lat="45.30907" lon="5.87555">
        <ele>1137</ele>
        <time>2014-10-30T13:07:25Z</time>
      </trkpt>
      <trkpt lat="45.30923" lon="5.87571">
        <ele>1143</ele>
        <time>2014-10-30T13:07:35Z</time>
      </trkpt>
      <trkpt lat="45.30938" lon="5.87589">
        <ele>1139</ele>
        <time>2014-10-30T13:07:43Z</time>
      </trkpt>
      <trkpt lat="45.30953" lon="5.87605">
        <ele>1140</ele>
        <time>2014-10-30T13:07:54Z</time>
      </trkpt>
      <trkpt lat="45.30953" lon="5.87576">
        <ele>1150</ele>
        <time>2014-10-30T13:09:57Z</time>
      </trkpt>
      <trkpt lat="45.30941" lon="5.87556">
        <ele>1149</ele>
        <time>2014-10-30T13:10:04Z</time>
      </trkpt>
      <trkpt lat="45.30938" lon="5.87531">
        <ele>1151</ele>
        <time>2014-10-30T13:10:13Z</time>
      </trkpt>
      <trkpt lat="45.30957" lon="5.87542">
        <ele>1153</ele>
        <time>2014-10-30T13:10:22Z</time>
      </trkpt>
      <trkpt lat="45.30973" lon="5.87559">
        <ele>1154</ele>
        <time>2014-10-30T13:10:30Z</time>
      </trkpt>
      <trkpt lat="45.3099" lon="5.8757">
        <ele>1155</ele>
        <time>2014-10-30T13:10:39Z</time>
      </trkpt>
      <trkpt lat="45.31008" lon="5.8758">
        <ele>1161</ele>
        <time>2014-10-30T13:10:50Z</time>
      </trkpt>
      <trkpt lat="45.31023" lon="5.87596">
        <ele>1158</ele>
        <time>2014-10-30T13:10:57Z</time>
      </trkpt>
      <trkpt lat="45.3104" lon="5.87609">
        <ele>1160</ele>
        <time>2014-10-30T13:11:05Z</time>
      </trkpt>
      <trkpt lat="45.31057" lon="5.87625">
        <ele>1160</ele>
        <time>2014-10-30T13:11:11Z</time>
      </trkpt>
      <trkpt lat="45.31073" lon="5.87641">
        <ele>1160</ele>
        <time>2014-10-30T13:11:17Z</time>
      </trkpt>
      <trkpt lat="45.31086" lon="5.8766">
        <ele>1165</ele>
        <time>2014-10-30T13:11:22Z</time>
      </trkpt>
      <trkpt lat="45.31097" lon="5.87683">
        <ele>1162</ele>
        <time>2014-10-30T13:11:28Z</time>
      </trkpt>
      <trkpt lat="45.31111" lon="5.87705">
        <ele>1163</ele>
        <time>2014-10-30T13:11:35Z</time>
      </trkpt>
      <trkpt lat="45.31126" lon="5.87723">
        <ele>1163</ele>
        <time>2014-10-30T13:11:42Z</time>
      </trkpt>
      <trkpt lat="45.31143" lon="5.87733">
        <ele>1166</ele>
        <time>2014-10-30T13:11:50Z</time>
      </trkpt>
      <trkpt lat="45.31161" lon="5.87746">
        <ele>1168</ele>
        <time>2014-10-30T13:11:57Z</time>
      </trkpt>
      <trkpt lat="45.31177" lon="5.87758">
        <ele>1168</ele>
        <time>2014-10-30T13:12:02Z</time>
      </trkpt>
      <trkpt lat="45.31193" lon="5.87769">
        <ele>1168</ele>
        <time>2014-10-30T13:12:09Z</time>
      </trkpt>
      <trkpt lat="45.31211" lon="5.8778">
        <ele>1168</ele>
        <time>2014-10-30T13:12:16Z</time>
      </trkpt>
      <trkpt lat="45.31228" lon="5.87791">
        <ele>1167</ele>
        <time>2014-10-30T13:12:22Z</time>
      </trkpt>
      <trkpt lat="45.31249" lon="5.87797">
        <ele>1167</ele>
        <time>2014-10-30T13:12:28Z</time>
      </trkpt>
      <trkpt lat="45.31268" lon="5.87805">
        <ele>1171</ele>
        <time>2014-10-30T13:12:32Z</time>
      </trkpt>
      <trkpt lat="45.31286" lon="5.87812">
        <ele>1171</ele>
        <time>2014-10-30T13:12:36Z</time>
      </trkpt>
      <trkpt lat="45.31307" lon="5.87825">
        <ele>1170</ele>
        <time>2014-10-30T13:12:41Z</time>
      </trkpt>
      <trkpt lat="45.31327" lon="5.87839">
        <ele>1161</ele>
        <time>2014-10-30T13:12:46Z</time>
      </trkpt>
      <trkpt lat="45.31344" lon="5.87849">
        <ele>1157</ele>
        <time>2014-10-30T13:12:50Z</time>
      </trkpt>
      <trkpt lat="45.31365" lon="5.87857">
        <ele>1154</ele>
        <time>2014-10-30T13:12:55Z</time>
      </trkpt>
      <trkpt lat="45.31385" lon="5.87857">
        <ele>1153</ele>
        <time>2014-10-30T13:13:00Z</time>
      </trkpt>
      <trkpt lat="45.31404" lon="5.8784">
        <ele>1155</ele>
        <time>2014-10-30T13:13:05Z</time>
      </trkpt>
      <trkpt lat="45.31421" lon="5.87818">
        <ele>1157</ele>
        <time>2014-10-30T13:13:09Z</time>
      </trkpt>
      <trkpt lat="45.31436" lon="5.87799">
        <ele>1157</ele>
        <time>2014-10-30T13:13:12Z</time>
      </trkpt>
      <trkpt lat="45.31447" lon="5.87779">
        <ele>1158</ele>
        <time>2014-10-30T13:13:15Z</time>
      </trkpt>
      <trkpt lat="45.31461" lon="5.8776">
        <ele>1158</ele>
        <time>2014-10-30T13:13:18Z</time>
      </trkpt>
      <trkpt lat="45.31478" lon="5.87749">
        <ele>1165</ele>
        <time>2014-10-30T13:13:21Z</time>
      </trkpt>
      <trkpt lat="45.31497" lon="5.87745">
        <ele>1157</ele>
        <time>2014-10-30T13:13:24Z</time>
      </trkpt>
      <trkpt lat="45.31519" lon="5.87739">
        <ele>1161</ele>
        <time>2014-10-30T13:13:27Z</time>
      </trkpt>
      <trkpt lat="45.31542" lon="5.87737">
        <ele>1163</ele>
        <time>2014-10-30T13:13:30Z</time>
      </trkpt>
      <trkpt lat="45.31561" lon="5.8774">
        <ele>1162</ele>
        <time>2014-10-30T13:13:33Z</time>
      </trkpt>
      <trkpt lat="45.31579" lon="5.87761">
        <ele>1151</ele>
        <time>2014-10-30T13:13:37Z</time>
      </trkpt>
      <trkpt lat="45.31599" lon="5.87773">
        <ele>1152</ele>
        <time>2014-10-30T13:13:41Z</time>
      </trkpt>
      <trkpt lat="45.3162" lon="5.87774">
        <ele>1152</ele>
        <time>2014-10-30T13:13:44Z</time>
      </trkpt>
      <trkpt lat="45.31638" lon="5.87796">
        <ele>1150</ele>
        <time>2014-10-30T13:13:47Z</time>
      </trkpt>
      <trkpt lat="45.31655" lon="5.87815">
        <ele>1148</ele>
        <time>2014-10-30T13:13:50Z</time>
      </trkpt>
      <trkpt lat="45.31676" lon="5.87814">
        <ele>1150</ele>
        <time>2014-10-30T13:13:53Z</time>
      </trkpt>
      <trkpt lat="45.31697" lon="5.87801">
        <ele>1154</ele>
        <time>2014-10-30T13:13:57Z</time>
      </trkpt>
      <trkpt lat="45.31717" lon="5.87798">
        <ele>1154</ele>
        <time>2014-10-30T13:14:01Z</time>
      </trkpt>
      <trkpt lat="45.31738" lon="5.878">
        <ele>1153</ele>
        <time>2014-10-30T13:14:05Z</time>
      </trkpt>
      <trkpt lat="45.31757" lon="5.87787">
        <ele>1157</ele>
        <time>2014-10-30T13:14:09Z</time>
      </trkpt>
      <trkpt lat="45.31773" lon="5.87773">
        <ele>1159</ele>
        <time>2014-10-30T13:14:12Z</time>
      </trkpt>
      <trkpt lat="45.31791" lon="5.87787">
        <ele>1156</ele>
        <time>2014-10-30T13:14:16Z</time>
      </trkpt>
      <trkpt lat="45.31808" lon="5.87801">
        <ele>1154</ele>
        <time>2014-10-30T13:14:20Z</time>
      </trkpt>
      <trkpt lat="45.31826" lon="5.87824">
        <ele>1150</ele>
        <time>2014-10-30T13:14:24Z</time>
      </trkpt>
      <trkpt lat="45.31833" lon="5.87856">
        <ele>1138</ele>
        <time>2014-10-30T13:14:28Z</time>
      </trkpt>
      <trkpt lat="45.31843" lon="5.87881">
        <ele>1141</ele>
        <time>2014-10-30T13:14:32Z</time>
      </trkpt>
      <trkpt lat="45.31862" lon="5.87894">
        <ele>1142</ele>
        <time>2014-10-30T13:14:38Z</time>
      </trkpt>
      <trkpt lat="45.31883" lon="5.87899">
        <ele>1144</ele>
        <time>2014-10-30T13:14:44Z</time>
      </trkpt>
      <trkpt lat="45.31902" lon="5.87905">
        <ele>1145</ele>
        <time>2014-10-30T13:14:50Z</time>
      </trkpt>
      <trkpt lat="45.31922" lon="5.87911">
        <ele>1149</ele>
        <time>2014-10-30T13:14:57Z</time>
      </trkpt>
      <trkpt lat="45.31941" lon="5.87916">
        <ele>1156</ele>
        <time>2014-10-30T13:15:04Z</time>
      </trkpt>
      <trkpt lat="45.3196" lon="5.87919">
        <ele>1145</ele>
        <time>2014-10-30T13:15:12Z</time>
      </trkpt>
      <trkpt lat="45.3198" lon="5.87932">
        <ele>1148</ele>
        <time>2014-10-30T13:15:19Z</time>
      </trkpt>
      <trkpt lat="45.31997" lon="5.87943">
        <ele>1148</ele>
        <time>2014-10-30T13:15:24Z</time>
      </trkpt>
      <trkpt lat="45.32014" lon="5.87958">
        <ele>1154</ele>
        <time>2014-10-30T13:15:28Z</time>
      </trkpt>
      <trkpt lat="45.32025" lon="5.8798">
        <ele>1151</ele>
        <time>2014-10-30T13:15:32Z</time>
      </trkpt>
      <trkpt lat="45.3203" lon="5.8801">
        <ele>1136</ele>
        <time>2014-10-30T13:15:37Z</time>
      </trkpt>
      <trkpt lat="45.32045" lon="5.88027">
        <ele>1136</ele>
        <time>2014-10-30T13:15:44Z</time>
      </trkpt>
      <trkpt lat="45.32065" lon="5.88033">
        <ele>1137</ele>
        <time>2014-10-30T13:15:53Z</time>
      </trkpt>
      <trkpt lat="45.32084" lon="5.88029">
        <ele>1148</ele>
        <time>2014-10-30T13:16:00Z</time>
      </trkpt>
      <trkpt lat="45.32104" lon="5.88022">
        <ele>1150</ele>
        <time>2014-10-30T13:16:07Z</time>
      </trkpt>
      <trkpt lat="45.32119" lon="5.88039">
        <ele>1149</ele>
        <time>2014-10-30T13:16:16Z</time>
      </trkpt>
      <trkpt lat="45.3213" lon="5.88059">
        <ele>1148</ele>
        <time>2014-10-30T13:16:27Z</time>
      </trkpt>
      <trkpt lat="45.32146" lon="5.88072">
        <ele>1149</ele>
        <time>2014-10-30T13:16:38Z</time>
      </trkpt>
      <trkpt lat="45.32162" lon="5.88085">
        <ele>1148</ele>
        <time>2014-10-30T13:16:48Z</time>
      </trkpt>
      <trkpt lat="45.32178" lon="5.881">
        <ele>1155</ele>
        <time>2014-10-30T13:17:00Z</time>
      </trkpt>
      <trkpt lat="45.32195" lon="5.88112">
        <ele>1158</ele>
        <time>2014-10-30T13:17:10Z</time>
      </trkpt>
      <trkpt lat="45.32213" lon="5.88122">
        <ele>1160</ele>
        <time>2014-10-30T13:17:23Z</time>
      </trkpt>
      <trkpt lat="45.32229" lon="5.88136">
        <ele>1161</ele>
        <time>2014-10-30T13:17:33Z</time>
      </trkpt>
      <trkpt lat="45.32241" lon="5.88158">
        <ele>1163</ele>
        <time>2014-10-30T13:17:42Z</time>
      </trkpt>
      <trkpt lat="45.32255" lon="5.88176">
        <ele>1172</ele>
        <time>2014-10-30T13:17:52Z</time>
      </trkpt>
      <trkpt lat="45.32267" lon="5.88195">
        <ele>1179</ele>
        <time>2014-10-30T13:18:03Z</time>
      </trkpt>
      <trkpt lat="45.32265" lon="5.88223">
        <ele>1179</ele>
        <time>2014-10-30T13:18:19Z</time>
      </trkpt>
      <trkpt lat="45.32268" lon="5.88248">
        <ele>1176</ele>
        <time>2014-10-30T13:18:28Z</time>
      </trkpt>
      <trkpt lat="45.32265" lon="5.88276">
        <ele>1181</ele>
        <time>2014-10-30T13:18:39Z</time>
      </trkpt>
      <trkpt lat="45.3226" lon="5.88301">
        <ele>1182</ele>
        <time>2014-10-30T13:18:48Z</time>
      </trkpt>
      <trkpt lat="45.32254" lon="5.88326">
        <ele>1175</ele>
        <time>2014-10-30T13:19:00Z</time>
      </trkpt>
      <trkpt lat="45.32248" lon="5.88352">
        <ele>1163</ele>
        <time>2014-10-30T13:19:11Z</time>
      </trkpt>
      <trkpt lat="45.3224" lon="5.88378">
        <ele>1161</ele>
        <time>2014-10-30T13:19:22Z</time>
      </trkpt>
      <trkpt lat="45.32236" lon="5.88405">
        <ele>1166</ele>
        <time>2014-10-30T13:19:34Z</time>
      </trkpt>
      <trkpt lat="45.32236" lon="5.88432">
        <ele>1165</ele>
        <time>2014-10-30T13:19:43Z</time>
      </trkpt>
      <trkpt lat="45.32243" lon="5.88457">
        <ele>1162</ele>
        <time>2014-10-30T13:19:53Z</time>
      </trkpt>
      <trkpt lat="45.32248" lon="5.88482">
        <ele>1164</ele>
        <time>2014-10-30T13:20:03Z</time>
      </trkpt>
      <trkpt lat="45.32256" lon="5.88506">
        <ele>1175</ele>
        <time>2014-10-30T13:20:11Z</time>
      </trkpt>
      <trkpt lat="45.32266" lon="5.88529">
        <ele>1176</ele>
        <time>2014-10-30T13:20:17Z</time>
      </trkpt>
      <trkpt lat="45.32281" lon="5.88543">
        <ele>1177</ele>
        <time>2014-10-30T13:20:26Z</time>
      </trkpt>
      <trkpt lat="45.32298" lon="5.88549">
        <ele>1179</ele>
        <time>2014-10-30T13:20:36Z</time>
      </trkpt>
      <trkpt lat="45.32317" lon="5.88551">
        <ele>1180</ele>
        <time>2014-10-30T13:20:48Z</time>
      </trkpt>
      <trkpt lat="45.32336" lon="5.88552">
        <ele>1194</ele>
        <time>2014-10-30T13:20:59Z</time>
      </trkpt>
      <trkpt lat="45.32352" lon="5.88563">
        <ele>1193</ele>
        <time>2014-10-30T13:21:10Z</time>
      </trkpt>
      <trkpt lat="45.32367" lon="5.88581">
        <ele>1194</ele>
        <time>2014-10-30T13:21:19Z</time>
      </trkpt>
      <trkpt lat="45.32382" lon="5.88596">
        <ele>1183</ele>
        <time>2014-10-30T13:21:28Z</time>
      </trkpt>
      <trkpt lat="45.32399" lon="5.88608">
        <ele>1185</ele>
        <time>2014-10-30T13:21:37Z</time>
      </trkpt>
      <trkpt lat="45.32415" lon="5.88618">
        <ele>1184</ele>
        <time>2014-10-30T13:21:46Z</time>
      </trkpt>
      <trkpt lat="45.32434" lon="5.88625">
        <ele>1187</ele>
        <time>2014-10-30T13:21:55Z</time>
      </trkpt>
      <trkpt lat="45.32454" lon="5.88621">
        <ele>1188</ele>
        <time>2014-10-30T13:22:04Z</time>
      </trkpt>
      <trkpt lat="45.3247" lon="5.88608">
        <ele>1189</ele>
        <time>2014-10-30T13:22:13Z</time>
      </trkpt>
      <trkpt lat="45.32482" lon="5.88589">
        <ele>1192</ele>
        <time>2014-10-30T13:22:22Z</time>
      </trkpt>
      <trkpt lat="45.32493" lon="5.88566">
        <ele>1205</ele>
        <time>2014-10-30T13:22:31Z</time>
      </trkpt>
      <trkpt lat="45.32502" lon="5.88542">
        <ele>1200</ele>
        <time>2014-10-30T13:22:40Z</time>
      </trkpt>
      <trkpt lat="45.32514" lon="5.8852">
        <ele>1205</ele>
        <time>2014-10-30T13:22:49Z</time>
      </trkpt>
      <trkpt lat="45.32522" lon="5.88497">
        <ele>1218</ele>
        <time>2014-10-30T13:22:56Z</time>
      </trkpt>
      <trkpt lat="45.32532" lon="5.88475">
        <ele>1217</ele>
        <time>2014-10-30T13:23:04Z</time>
      </trkpt>
      <trkpt lat="45.32541" lon="5.8845">
        <ele>1217</ele>
        <time>2014-10-30T13:23:12Z</time>
      </trkpt>
      <trkpt lat="45.32552" lon="5.88428">
        <ele>1217</ele>
        <time>2014-10-30T13:23:20Z</time>
      </trkpt>
      <trkpt lat="45.32563" lon="5.88404">
        <ele>1229</ele>
        <time>2014-10-30T13:23:28Z</time>
      </trkpt>
      <trkpt lat="45.32581" lon="5.88391">
        <ele>1229</ele>
        <time>2014-10-30T13:23:35Z</time>
      </trkpt>
      <trkpt lat="45.32597" lon="5.88374">
        <ele>1222</ele>
        <time>2014-10-30T13:23:42Z</time>
      </trkpt>
      <trkpt lat="45.32616" lon="5.88371">
        <ele>1221</ele>
        <time>2014-10-30T13:23:48Z</time>
      </trkpt>
      <trkpt lat="45.32636" lon="5.88375">
        <ele>1219</ele>
        <time>2014-10-30T13:23:57Z</time>
      </trkpt>
      <trkpt lat="45.32655" lon="5.88369">
        <ele>1219</ele>
        <time>2014-10-30T13:24:07Z</time>
      </trkpt>
      <trkpt lat="45.32662" lon="5.88345">
        <ele>1225</ele>
        <time>2014-10-30T13:24:15Z</time>
      </trkpt>
      <trkpt lat="45.32672" lon="5.88321">
        <ele>1236</ele>
        <time>2014-10-30T13:24:24Z</time>
      </trkpt>
      <trkpt lat="45.32691" lon="5.88318">
        <ele>1242</ele>
        <time>2014-10-30T13:24:35Z</time>
      </trkpt>
      <trkpt lat="45.32697" lon="5.88344">
        <ele>1223</ele>
        <time>2014-10-30T13:24:43Z</time>
      </trkpt>
      <trkpt lat="45.3271" lon="5.88371">
        <ele>1220</ele>
        <time>2014-10-30T13:24:48Z</time>
      </trkpt>
      <trkpt lat="45.32722" lon="5.88395">
        <ele>1216</ele>
        <time>2014-10-30T13:24:53Z</time>
      </trkpt>
      <trkpt lat="45.3274" lon="5.88403">
        <ele>1213</ele>
        <time>2014-10-30T13:25:00Z</time>
      </trkpt>
      <trkpt lat="45.32758" lon="5.88409">
        <ele>1215</ele>
        <time>2014-10-30T13:25:07Z</time>
      </trkpt>
      <trkpt lat="45.32778" lon="5.88415">
        <ele>1221</ele>
        <time>2014-10-30T13:25:13Z</time>
      </trkpt>
      <trkpt lat="45.32792" lon="5.88433">
        <ele>1202</ele>
        <time>2014-10-30T13:25:20Z</time>
      </trkpt>
      <trkpt lat="45.3281" lon="5.88439">
        <ele>1204</ele>
        <time>2014-10-30T13:25:29Z</time>
      </trkpt>
      <trkpt lat="45.32828" lon="5.88435">
        <ele>1208</ele>
        <time>2014-10-30T13:25:37Z</time>
      </trkpt>
      <trkpt lat="45.32843" lon="5.88421">
        <ele>1218</ele>
        <time>2014-10-30T13:25:47Z</time>
      </trkpt>
      <trkpt lat="45.32852" lon="5.88396">
        <ele>1233</ele>
        <time>2014-10-30T13:25:57Z</time>
      </trkpt>
      <trkpt lat="45.32865" lon="5.88377">
        <ele>1238</ele>
        <time>2014-10-30T13:26:28Z</time>
      </trkpt>
      <trkpt lat="45.32884" lon="5.88374">
        <ele>1239</ele>
        <time>2014-10-30T13:26:39Z</time>
      </trkpt>
      <trkpt lat="45.329" lon="5.88385">
        <ele>1237</ele>
        <time>2014-10-30T13:26:48Z</time>
      </trkpt>
      <trkpt lat="45.32913" lon="5.88406">
        <ele>1234</ele>
        <time>2014-10-30T13:26:56Z</time>
      </trkpt>
      <trkpt lat="45.32924" lon="5.88428">
        <ele>1234</ele>
        <time>2014-10-30T13:27:06Z</time>
      </trkpt>
      <trkpt lat="45.32927" lon="5.88454">
        <ele>1235</ele>
        <time>2014-10-30T13:27:14Z</time>
      </trkpt>
      <trkpt lat="45.32933" lon="5.88481">
        <ele>1229</ele>
        <time>2014-10-30T13:27:22Z</time>
      </trkpt>
      <trkpt lat="45.3295" lon="5.88494">
        <ele>1233</ele>
        <time>2014-10-30T13:27:31Z</time>
      </trkpt>
      <trkpt lat="45.32953" lon="5.88519">
        <ele>1223</ele>
        <time>2014-10-30T13:27:38Z</time>
      </trkpt>
      <trkpt lat="45.32945" lon="5.88547">
        <ele>1220</ele>
        <time>2014-10-30T13:27:44Z</time>
      </trkpt>
      <trkpt lat="45.32956" lon="5.88569">
        <ele>1220</ele>
        <time>2014-10-30T13:27:50Z</time>
      </trkpt>
      <trkpt lat="45.3297" lon="5.88591">
        <ele>1214</ele>
        <time>2014-10-30T13:27:57Z</time>
      </trkpt>
      <trkpt lat="45.32985" lon="5.88608">
        <ele>1215</ele>
        <time>2014-10-30T13:28:05Z</time>
      </trkpt>
      <trkpt lat="45.33004" lon="5.88607">
        <ele>1233</ele>
        <time>2014-10-30T13:28:13Z</time>
      </trkpt>
      <trkpt lat="45.33023" lon="5.88603">
        <ele>1235</ele>
        <time>2014-10-30T13:28:21Z</time>
      </trkpt>
      <trkpt lat="45.33042" lon="5.88603">
        <ele>1239</ele>
        <time>2014-10-30T13:28:29Z</time>
      </trkpt>
      <trkpt lat="45.33046" lon="5.88628">
        <ele>1238</ele>
        <time>2014-10-30T13:28:40Z</time>
      </trkpt>
      <trkpt lat="45.33041" lon="5.88654">
        <ele>1236</ele>
        <time>2014-10-30T13:28:48Z</time>
      </trkpt>
      <trkpt lat="45.33047" lon="5.88678">
        <ele>1232</ele>
        <time>2014-10-30T13:28:56Z</time>
      </trkpt>
      <trkpt lat="45.33057" lon="5.88703">
        <ele>1233</ele>
        <time>2014-10-30T13:29:03Z</time>
      </trkpt>
      <trkpt lat="45.33063" lon="5.88727">
        <ele>1235</ele>
        <time>2014-10-30T13:29:10Z</time>
      </trkpt>
      <trkpt lat="45.33063" lon="5.88755">
        <ele>1235</ele>
        <time>2014-10-30T13:29:19Z</time>
      </trkpt>
      <trkpt lat="45.33064" lon="5.88783">
        <ele>1232</ele>
        <time>2014-10-30T13:29:27Z</time>
      </trkpt>
      <trkpt lat="45.33067" lon="5.88809">
        <ele>1233</ele>
        <time>2014-10-30T13:29:35Z</time>
      </trkpt>
      <trkpt lat="45.33072" lon="5.88835">
        <ele>1236</ele>
        <time>2014-10-30T13:29:42Z</time>
      </trkpt>
      <trkpt lat="45.33079" lon="5.8886">
        <ele>1230</ele>
        <time>2014-10-30T13:29:49Z</time>
      </trkpt>
      <trkpt lat="45.33093" lon="5.88883">
        <ele>1246</ele>
        <time>2014-10-30T13:29:56Z</time>
      </trkpt>
      <trkpt lat="45.33108" lon="5.88901">
        <ele>1245</ele>
        <time>2014-10-30T13:30:02Z</time>
      </trkpt>
      <trkpt lat="45.33124" lon="5.88916">
        <ele>1248</ele>
        <time>2014-10-30T13:30:09Z</time>
      </trkpt>
      <trkpt lat="45.33141" lon="5.88927">
        <ele>1237</ele>
        <time>2014-10-30T13:30:17Z</time>
      </trkpt>
      <trkpt lat="45.3316" lon="5.88933">
        <ele>1240</ele>
        <time>2014-10-30T13:30:26Z</time>
      </trkpt>
      <trkpt lat="45.33179" lon="5.88936">
        <ele>1244</ele>
        <time>2014-10-30T13:30:35Z</time>
      </trkpt>
      <trkpt lat="45.33197" lon="5.88938">
        <ele>1243</ele>
        <time>2014-10-30T13:30:43Z</time>
      </trkpt>
      <trkpt lat="45.33217" lon="5.88939">
        <ele>1244</ele>
        <time>2014-10-30T13:30:50Z</time>
      </trkpt>
      <trkpt lat="45.33237" lon="5.88937">
        <ele>1246</ele>
        <time>2014-10-30T13:30:57Z</time>
      </trkpt>
      <trkpt lat="45.33256" lon="5.88932">
        <ele>1251</ele>
        <time>2014-10-30T13:31:05Z</time>
      </trkpt>
      <trkpt lat="45.33273" lon="5.88923">
        <ele>1250</ele>
        <time>2014-10-30T13:31:14Z</time>
      </trkpt>
      <trkpt lat="45.33293" lon="5.8892">
        <ele>1250</ele>
        <time>2014-10-30T13:31:23Z</time>
      </trkpt>
      <trkpt lat="45.33311" lon="5.88929">
        <ele>1250</ele>
        <time>2014-10-30T13:31:31Z</time>
      </trkpt>
      <trkpt lat="45.33328" lon="5.8894">
        <ele>1250</ele>
        <time>2014-10-30T13:31:39Z</time>
      </trkpt>
      <trkpt lat="45.33347" lon="5.88948">
        <ele>1256</ele>
        <time>2014-10-30T13:31:47Z</time>
      </trkpt>
      <trkpt lat="45.33365" lon="5.88954">
        <ele>1257</ele>
        <time>2014-10-30T13:31:55Z</time>
      </trkpt>
      <trkpt lat="45.33383" lon="5.8896">
        <ele>1258</ele>
        <time>2014-10-30T13:32:03Z</time>
      </trkpt>
      <trkpt lat="45.334" lon="5.88968">
        <ele>1258</ele>
        <time>2014-10-30T13:32:09Z</time>
      </trkpt>
      <trkpt lat="45.33419" lon="5.8898">
        <ele>1267</ele>
        <time>2014-10-30T13:32:15Z</time>
      </trkpt>
      <trkpt lat="45.33435" lon="5.88999">
        <ele>1266</ele>
        <time>2014-10-30T13:32:21Z</time>
      </trkpt>
      <trkpt lat="45.33452" lon="5.89013">
        <ele>1254</ele>
        <time>2014-10-30T13:32:27Z</time>
      </trkpt>
      <trkpt lat="45.3347" lon="5.89026">
        <ele>1256</ele>
        <time>2014-10-30T13:32:33Z</time>
      </trkpt>
      <trkpt lat="45.33487" lon="5.8904">
        <ele>1255</ele>
        <time>2014-10-30T13:32:39Z</time>
      </trkpt>
      <trkpt lat="45.33503" lon="5.8905">
        <ele>1264</ele>
        <time>2014-10-30T13:32:45Z</time>
      </trkpt>
      <trkpt lat="45.33522" lon="5.89058">
        <ele>1264</ele>
        <time>2014-10-30T13:32:52Z</time>
      </trkpt>
      <trkpt lat="45.33541" lon="5.89066">
        <ele>1265</ele>
        <time>2014-10-30T13:32:59Z</time>
      </trkpt>
      <trkpt lat="45.33561" lon="5.89074">
        <ele>1266</ele>
        <time>2014-10-30T13:33:06Z</time>
      </trkpt>
      <trkpt lat="45.33579" lon="5.89079">
        <ele>1264</ele>
        <time>2014-10-30T13:33:13Z</time>
      </trkpt>
      <trkpt lat="45.33599" lon="5.8909">
        <ele>1261</ele>
        <time>2014-10-30T13:33:19Z</time>
      </trkpt>
      <trkpt lat="45.33617" lon="5.89093">
        <ele>1262</ele>
        <time>2014-10-30T13:33:25Z</time>
      </trkpt>
      <trkpt lat="45.33637" lon="5.89097">
        <ele>1265</ele>
        <time>2014-10-30T13:33:32Z</time>
      </trkpt>
      <trkpt lat="45.33655" lon="5.89107">
        <ele>1266</ele>
        <time>2014-10-30T13:33:40Z</time>
      </trkpt>
      <trkpt lat="45.33673" lon="5.89119">
        <ele>1274</ele>
        <time>2014-10-30T13:33:46Z</time>
      </trkpt>
      <trkpt lat="45.33689" lon="5.89134">
        <ele>1271</ele>
        <time>2014-10-30T13:33:51Z</time>
      </trkpt>
      <trkpt lat="45.33707" lon="5.89143">
        <ele>1272</ele>
        <time>2014-10-30T13:33:57Z</time>
      </trkpt>
      <trkpt lat="45.33726" lon="5.89147">
        <ele>1273</ele>
        <time>2014-10-30T13:34:04Z</time>
      </trkpt>
      <trkpt lat="45.33745" lon="5.8915">
        <ele>1272</ele>
        <time>2014-10-30T13:34:11Z</time>
      </trkpt>
      <trkpt lat="45.33765" lon="5.89162">
        <ele>1279</ele>
        <time>2014-10-30T13:34:17Z</time>
      </trkpt>
      <trkpt lat="45.33783" lon="5.89172">
        <ele>1268</ele>
        <time>2014-10-30T13:34:23Z</time>
      </trkpt>
      <trkpt lat="45.33801" lon="5.89182">
        <ele>1270</ele>
        <time>2014-10-30T13:34:30Z</time>
      </trkpt>
      <trkpt lat="45.33821" lon="5.89187">
        <ele>1273</ele>
        <time>2014-10-30T13:34:38Z</time>
      </trkpt>
      <trkpt lat="45.3384" lon="5.89195">
        <ele>1281</ele>
        <time>2014-10-30T13:34:44Z</time>
      </trkpt>
      <trkpt lat="45.33858" lon="5.89207">
        <ele>1280</ele>
        <time>2014-10-30T13:34:51Z</time>
      </trkpt>
      <trkpt lat="45.33875" lon="5.89219">
        <ele>1279</ele>
        <time>2014-10-30T13:34:58Z</time>
      </trkpt>
      <trkpt lat="45.33893" lon="5.89228">
        <ele>1279</ele>
        <time>2014-10-30T13:35:05Z</time>
      </trkpt>
      <trkpt lat="45.33912" lon="5.89233">
        <ele>1277</ele>
        <time>2014-10-30T13:35:12Z</time>
      </trkpt>
      <trkpt lat="45.33931" lon="5.89238">
        <ele>1282</ele>
        <time>2014-10-30T13:35:19Z</time>
      </trkpt>
      <trkpt lat="45.33949" lon="5.89245">
        <ele>1284</ele>
        <time>2014-10-30T13:35:26Z</time>
      </trkpt>
      <trkpt lat="45.33967" lon="5.89252">
        <ele>1266</ele>
        <time>2014-10-30T13:35:33Z</time>
      </trkpt>
      <trkpt lat="45.33985" lon="5.89252">
        <ele>1270</ele>
        <time>2014-10-30T13:35:39Z</time>
      </trkpt>
      <trkpt lat="45.34004" lon="5.89242">
        <ele>1278</ele>
        <time>2014-10-30T13:35:46Z</time>
      </trkpt>
      <trkpt lat="45.34022" lon="5.8923">
        <ele>1281</ele>
        <time>2014-10-30T13:35:52Z</time>
      </trkpt>
      <trkpt lat="45.34038" lon="5.89215">
        <ele>1282</ele>
        <time>2014-10-30T13:35:58Z</time>
      </trkpt>
      <trkpt lat="45.34055" lon="5.89197">
        <ele>1284</ele>
        <time>2014-10-30T13:36:04Z</time>
      </trkpt>
      <trkpt lat="45.34072" lon="5.89185">
        <ele>1285</ele>
        <time>2014-10-30T13:36:09Z</time>
      </trkpt>
      <trkpt lat="45.34089" lon="5.89176">
        <ele>1285</ele>
        <time>2014-10-30T13:36:14Z</time>
      </trkpt>
      <trkpt lat="45.34107" lon="5.89169">
        <ele>1284</ele>
        <time>2014-10-30T13:36:19Z</time>
      </trkpt>
      <trkpt lat="45.34125" lon="5.89182">
        <ele>1284</ele>
        <time>2014-10-30T13:36:25Z</time>
      </trkpt>
      <trkpt lat="45.34139" lon="5.89201">
        <ele>1282</ele>
        <time>2014-10-30T13:36:30Z</time>
      </trkpt>
      <trkpt lat="45.34151" lon="5.89222">
        <ele>1279</ele>
        <time>2014-10-30T13:36:35Z</time>
      </trkpt>
      <trkpt lat="45.3416" lon="5.89245">
        <ele>1276</ele>
        <time>2014-10-30T13:36:40Z</time>
      </trkpt>
      <trkpt lat="45.34179" lon="5.89261">
        <ele>1269</ele>
        <time>2014-10-30T13:36:46Z</time>
      </trkpt>
      <trkpt lat="45.34199" lon="5.89266">
        <ele>1266</ele>
        <time>2014-10-30T13:36:51Z</time>
      </trkpt>
      <trkpt lat="45.3422" lon="5.89263">
        <ele>1267</ele>
        <time>2014-10-30T13:36:56Z</time>
      </trkpt>
      <trkpt lat="45.34239" lon="5.89251">
        <ele>1271</ele>
        <time>2014-10-30T13:37:01Z</time>
      </trkpt>
      <trkpt lat="45.34254" lon="5.89238">
        <ele>1284</ele>
        <time>2014-10-30T13:37:05Z</time>
      </trkpt>
      <trkpt lat="45.34275" lon="5.89227">
        <ele>1290</ele>
        <time>2014-10-30T13:37:10Z</time>
      </trkpt>
      <trkpt lat="45.34297" lon="5.8922">
        <ele>1292</ele>
        <time>2014-10-30T13:37:15Z</time>
      </trkpt>
      <trkpt lat="45.3432" lon="5.8922">
        <ele>1291</ele>
        <time>2014-10-30T13:37:20Z</time>
      </trkpt>
      <trkpt lat="45.34339" lon="5.89223">
        <ele>1293</ele>
        <time>2014-10-30T13:37:24Z</time>
      </trkpt>
      <trkpt lat="45.34355" lon="5.89238">
        <ele>1292</ele>
        <time>2014-10-30T13:37:29Z</time>
      </trkpt>
      <trkpt lat="45.34357" lon="5.89268">
        <ele>1277</ele>
        <time>2014-10-30T13:37:34Z</time>
      </trkpt>
      <trkpt lat="45.3435" lon="5.89297">
        <ele>1274</ele>
        <time>2014-10-30T13:37:39Z</time>
      </trkpt>
      <trkpt lat="45.34349" lon="5.89324">
        <ele>1269</ele>
        <time>2014-10-30T13:37:44Z</time>
      </trkpt>
      <trkpt lat="45.34363" lon="5.89339">
        <ele>1262</ele>
        <time>2014-10-30T13:37:48Z</time>
      </trkpt>
      <trkpt lat="45.34385" lon="5.89347">
        <ele>1265</ele>
        <time>2014-10-30T13:37:53Z</time>
      </trkpt>
      <trkpt lat="45.34404" lon="5.89355">
        <ele>1268</ele>
        <time>2014-10-30T13:37:57Z</time>
      </trkpt>
      <trkpt lat="45.34423" lon="5.89348">
        <ele>1276</ele>
        <time>2014-10-30T13:38:01Z</time>
      </trkpt>
      <trkpt lat="45.34442" lon="5.8934">
        <ele>1274</ele>
        <time>2014-10-30T13:38:06Z</time>
      </trkpt>
      <trkpt lat="45.34458" lon="5.89327">
        <ele>1287</ele>
        <time>2014-10-30T13:38:10Z</time>
      </trkpt>
      <trkpt lat="45.34474" lon="5.89315">
        <ele>1287</ele>
        <time>2014-10-30T13:38:14Z</time>
      </trkpt>
      <trkpt lat="45.34496" lon="5.89314">
        <ele>1285</ele>
        <time>2014-10-30T13:38:19Z</time>
      </trkpt>
      <trkpt lat="45.34515" lon="5.89314">
        <ele>1284</ele>
        <time>2014-10-30T13:38:23Z</time>
      </trkpt>
      <trkpt lat="45.34538" lon="5.89315">
        <ele>1284</ele>
        <time>2014-10-30T13:38:27Z</time>
      </trkpt>
      <trkpt lat="45.34557" lon="5.8933">
        <ele>1281</ele>
        <time>2014-10-30T13:38:30Z</time>
      </trkpt>
      <trkpt lat="45.34576" lon="5.89332">
        <ele>1275</ele>
        <time>2014-10-30T13:38:40Z</time>
      </trkpt>
      <trkpt lat="45.34592" lon="5.89349">
        <ele>1268</ele>
        <time>2014-10-30T13:45:39Z</time>
      </trkpt>
      <trkpt lat="45.34583" lon="5.89323">
        <ele>1277</ele>
        <time>2014-10-30T13:46:36Z</time>
      </trkpt>
      <trkpt lat="45.34602" lon="5.89334">
        <ele>1268</ele>
        <time>2014-10-30T13:50:31Z</time>
      </trkpt>
      <trkpt lat="45.34619" lon="5.89341">
        <ele>1268</ele>
        <time>2014-10-30T13:50:35Z</time>
      </trkpt>
      <trkpt lat="45.3464" lon="5.89352">
        <ele>1268</ele>
        <time>2014-10-30T13:50:39Z</time>
      </trkpt>
      <trkpt lat="45.34662" lon="5.89364">
        <ele>1268</ele>
        <time>2014-10-30T13:50:43Z</time>
      </trkpt>
      <trkpt lat="45.34677" lon="5.8938">
        <ele>1272</ele>
        <time>2014-10-30T13:50:46Z</time>
      </trkpt>
      <trkpt lat="45.3469" lon="5.89398">
        <ele>1271</ele>
        <time>2014-10-30T13:50:49Z</time>
      </trkpt>
      <trkpt lat="45.34704" lon="5.89425">
        <ele>1265</ele>
        <time>2014-10-30T13:50:53Z</time>
      </trkpt>
      <trkpt lat="45.3471" lon="5.89456">
        <ele>1264</ele>
        <time>2014-10-30T13:50:57Z</time>
      </trkpt>
      <trkpt lat="45.34719" lon="5.89485">
        <ele>1265</ele>
        <time>2014-10-30T13:51:01Z</time>
      </trkpt>
      <trkpt lat="45.34729" lon="5.89506">
        <ele>1261</ele>
        <time>2014-10-30T13:51:04Z</time>
      </trkpt>
      <trkpt lat="45.3474" lon="5.89533">
        <ele>1258</ele>
        <time>2014-10-30T13:51:08Z</time>
      </trkpt>
      <trkpt lat="45.34748" lon="5.89555">
        <ele>1257</ele>
        <time>2014-10-30T13:51:12Z</time>
      </trkpt>
      <trkpt lat="45.34764" lon="5.89575">
        <ele>1267</ele>
        <time>2014-10-30T13:51:16Z</time>
      </trkpt>
      <trkpt lat="45.3478" lon="5.89589">
        <ele>1264</ele>
        <time>2014-10-30T13:51:19Z</time>
      </trkpt>
      <trkpt lat="45.34794" lon="5.89605">
        <ele>1265</ele>
        <time>2014-10-30T13:51:22Z</time>
      </trkpt>
      <trkpt lat="45.34805" lon="5.89634">
        <ele>1265</ele>
        <time>2014-10-30T13:51:26Z</time>
      </trkpt>
      <trkpt lat="45.34812" lon="5.89659">
        <ele>1265</ele>
        <time>2014-10-30T13:51:30Z</time>
      </trkpt>
      <trkpt lat="45.34819" lon="5.89685">
        <ele>1258</ele>
        <time>2014-10-30T13:51:56Z</time>
      </trkpt>
      <trkpt lat="45.34806" lon="5.89704">
        <ele>1253</ele>
        <time>2014-10-30T13:52:04Z</time>
      </trkpt>
      <trkpt lat="45.34788" lon="5.89711">
        <ele>1251</ele>
        <time>2014-10-30T13:52:09Z</time>
      </trkpt>
      <trkpt lat="45.3477" lon="5.89697">
        <ele>1249</ele>
        <time>2014-10-30T13:52:14Z</time>
      </trkpt>
      <trkpt lat="45.34748" lon="5.89699">
        <ele>1233</ele>
        <time>2014-10-30T13:52:19Z</time>
      </trkpt>
      <trkpt lat="45.34727" lon="5.897">
        <ele>1231</ele>
        <time>2014-10-30T13:52:26Z</time>
      </trkpt>
      <trkpt lat="45.34705" lon="5.89705">
        <ele>1227</ele>
        <time>2014-10-30T13:52:32Z</time>
      </trkpt>
      <trkpt lat="45.34689" lon="5.89716">
        <ele>1223</ele>
        <time>2014-10-30T13:52:37Z</time>
      </trkpt>
      <trkpt lat="45.34666" lon="5.89709">
        <ele>1207</ele>
        <time>2014-10-30T13:53:53Z</time>
      </trkpt>
      <trkpt lat="45.34646" lon="5.89711">
        <ele>1206</ele>
        <time>2014-10-30T13:53:56Z</time>
      </trkpt>
      <trkpt lat="45.34626" lon="5.89701">
        <ele>1204</ele>
        <time>2014-10-30T13:54:00Z</time>
      </trkpt>
      <trkpt lat="45.34605" lon="5.89694">
        <ele>1202</ele>
        <time>2014-10-30T13:54:05Z</time>
      </trkpt>
      <trkpt lat="45.34585" lon="5.89676">
        <ele>1200</ele>
        <time>2014-10-30T13:54:10Z</time>
      </trkpt>
      <trkpt lat="45.34564" lon="5.89667">
        <ele>1201</ele>
        <time>2014-10-30T13:54:14Z</time>
      </trkpt>
      <trkpt lat="45.34545" lon="5.89653">
        <ele>1202</ele>
        <time>2014-10-30T13:54:18Z</time>
      </trkpt>
      <trkpt lat="45.34528" lon="5.89644">
        <ele>1202</ele>
        <time>2014-10-30T13:54:22Z</time>
      </trkpt>
      <trkpt lat="45.34509" lon="5.89648">
        <ele>1200</ele>
        <time>2014-10-30T13:54:31Z</time>
      </trkpt>
      <trkpt lat="45.34489" lon="5.89654">
        <ele>1196</ele>
        <time>2014-10-30T13:54:37Z</time>
      </trkpt>
      <trkpt lat="45.34468" lon="5.89657">
        <ele>1197</ele>
        <time>2014-10-30T13:54:44Z</time>
      </trkpt>
      <trkpt lat="45.34447" lon="5.89661">
        <ele>1195</ele>
        <time>2014-10-30T13:54:48Z</time>
      </trkpt>
      <trkpt lat="45.34424" lon="5.89662">
        <ele>1191</ele>
        <time>2014-10-30T13:54:52Z</time>
      </trkpt>
      <trkpt lat="45.34406" lon="5.89662">
        <ele>1188</ele>
        <time>2014-10-30T13:54:55Z</time>
      </trkpt>
      <trkpt lat="45.34388" lon="5.89674">
        <ele>1178</ele>
        <time>2014-10-30T13:54:58Z</time>
      </trkpt>
      <trkpt lat="45.34372" lon="5.89687">
        <ele>1176</ele>
        <time>2014-10-30T13:55:01Z</time>
      </trkpt>
      <trkpt lat="45.34353" lon="5.89694">
        <ele>1174</ele>
        <time>2014-10-30T13:55:05Z</time>
      </trkpt>
      <trkpt lat="45.34332" lon="5.89699">
        <ele>1163</ele>
        <time>2014-10-30T13:55:09Z</time>
      </trkpt>
      <trkpt lat="45.34312" lon="5.89709">
        <ele>1160</ele>
        <time>2014-10-30T13:55:13Z</time>
      </trkpt>
      <trkpt lat="45.34294" lon="5.89723">
        <ele>1157</ele>
        <time>2014-10-30T13:55:17Z</time>
      </trkpt>
      <trkpt lat="45.34276" lon="5.89733">
        <ele>1154</ele>
        <time>2014-10-30T13:55:20Z</time>
      </trkpt>
      <trkpt lat="45.34257" lon="5.89753">
        <ele>1145</ele>
        <time>2014-10-30T13:55:23Z</time>
      </trkpt>
      <trkpt lat="45.34243" lon="5.89769">
        <ele>1138</ele>
        <time>2014-10-30T13:55:26Z</time>
      </trkpt>
      <trkpt lat="45.34225" lon="5.89776">
        <ele>1135</ele>
        <time>2014-10-30T13:55:29Z</time>
      </trkpt>
      <trkpt lat="45.34206" lon="5.89763">
        <ele>1133</ele>
        <time>2014-10-30T13:55:33Z</time>
      </trkpt>
      <trkpt lat="45.3419" lon="5.89744">
        <ele>1137</ele>
        <time>2014-10-30T13:55:37Z</time>
      </trkpt>
      <trkpt lat="45.34172" lon="5.8974">
        <ele>1133</ele>
        <time>2014-10-30T13:55:47Z</time>
      </trkpt>
      <trkpt lat="45.34155" lon="5.89726">
        <ele>1133</ele>
        <time>2014-10-30T13:56:01Z</time>
      </trkpt>
      <trkpt lat="45.34138" lon="5.89739">
        <ele>1132</ele>
        <time>2014-10-30T13:56:07Z</time>
      </trkpt>
      <trkpt lat="45.34123" lon="5.89763">
        <ele>1121</ele>
        <time>2014-10-30T13:56:11Z</time>
      </trkpt>
      <trkpt lat="45.34113" lon="5.89786">
        <ele>1119</ele>
        <time>2014-10-30T13:56:18Z</time>
      </trkpt>
      <trkpt lat="45.34098" lon="5.89808">
        <ele>1116</ele>
        <time>2014-10-30T13:56:24Z</time>
      </trkpt>
      <trkpt lat="45.34078" lon="5.89814">
        <ele>1110</ele>
        <time>2014-10-30T13:56:29Z</time>
      </trkpt>
      <trkpt lat="45.34058" lon="5.89828">
        <ele>1109</ele>
        <time>2014-10-30T13:56:32Z</time>
      </trkpt>
      <trkpt lat="45.34038" lon="5.89831">
        <ele>1107</ele>
        <time>2014-10-30T13:56:35Z</time>
      </trkpt>
      <trkpt lat="45.3402" lon="5.89828">
        <ele>1103</ele>
        <time>2014-10-30T13:56:38Z</time>
      </trkpt>
      <trkpt lat="45.34002" lon="5.89834">
        <ele>1094</ele>
        <time>2014-10-30T13:56:42Z</time>
      </trkpt>
      <trkpt lat="45.3398" lon="5.89843">
        <ele>1087</ele>
        <time>2014-10-30T13:56:47Z</time>
      </trkpt>
      <trkpt lat="45.33959" lon="5.89847">
        <ele>1085</ele>
        <time>2014-10-30T13:56:50Z</time>
      </trkpt>
      <trkpt lat="45.33942" lon="5.89857">
        <ele>1084</ele>
        <time>2014-10-30T13:56:55Z</time>
      </trkpt>
      <trkpt lat="45.33924" lon="5.89864">
        <ele>1083</ele>
        <time>2014-10-30T13:57:00Z</time>
      </trkpt>
      <trkpt lat="45.33907" lon="5.89877">
        <ele>1074</ele>
        <time>2014-10-30T13:57:03Z</time>
      </trkpt>
      <trkpt lat="45.33894" lon="5.89895">
        <ele>1071</ele>
        <time>2014-10-30T13:57:08Z</time>
      </trkpt>
      <trkpt lat="45.33878" lon="5.89913">
        <ele>1068</ele>
        <time>2014-10-30T13:57:12Z</time>
      </trkpt>
      <trkpt lat="45.3386" lon="5.89929">
        <ele>1053</ele>
        <time>2014-10-30T13:57:16Z</time>
      </trkpt>
      <trkpt lat="45.33843" lon="5.89946">
        <ele>1051</ele>
        <time>2014-10-30T13:57:20Z</time>
      </trkpt>
      <trkpt lat="45.33828" lon="5.89963">
        <ele>1040</ele>
        <time>2014-10-30T13:57:23Z</time>
      </trkpt>
      <trkpt lat="45.33812" lon="5.89983">
        <ele>1037</ele>
        <time>2014-10-30T13:57:26Z</time>
      </trkpt>
      <trkpt lat="45.33799" lon="5.90011">
        <ele>1025</ele>
        <time>2014-10-30T13:57:30Z</time>
      </trkpt>
      <trkpt lat="45.33788" lon="5.90034">
        <ele>1021</ele>
        <time>2014-10-30T13:57:34Z</time>
      </trkpt>
      <trkpt lat="45.33776" lon="5.90062">
        <ele>1017</ele>
        <time>2014-10-30T13:57:37Z</time>
      </trkpt>
      <trkpt lat="45.33766" lon="5.90091">
        <ele>1007</ele>
        <time>2014-10-30T13:57:40Z</time>
      </trkpt>
      <trkpt lat="45.33757" lon="5.90116">
        <ele>1006</ele>
        <time>2014-10-30T13:57:43Z</time>
      </trkpt>
      <trkpt lat="45.33726" lon="5.90152">
        <ele>998</ele>
        <time>2014-10-30T13:57:52Z</time>
      </trkpt>
      <trkpt lat="45.33738" lon="5.90174">
        <ele>994</ele>
        <time>2014-10-30T13:59:06Z</time>
      </trkpt>
      <trkpt lat="45.33749" lon="5.90201">
        <ele>991</ele>
        <time>2014-10-30T13:59:11Z</time>
      </trkpt>
      <trkpt lat="45.33754" lon="5.90227">
        <ele>992</ele>
        <time>2014-10-30T13:59:17Z</time>
      </trkpt>
      <trkpt lat="45.33765" lon="5.90248">
        <ele>991</ele>
        <time>2014-10-30T13:59:23Z</time>
      </trkpt>
      <trkpt lat="45.33782" lon="5.90264">
        <ele>988</ele>
        <time>2014-10-30T13:59:30Z</time>
      </trkpt>
      <trkpt lat="45.33798" lon="5.90277">
        <ele>989</ele>
        <time>2014-10-30T13:59:37Z</time>
      </trkpt>
      <trkpt lat="45.33816" lon="5.90286">
        <ele>990</ele>
        <time>2014-10-30T13:59:42Z</time>
      </trkpt>
      <trkpt lat="45.33832" lon="5.90302">
        <ele>990</ele>
        <time>2014-10-30T13:59:49Z</time>
      </trkpt>
      <trkpt lat="45.33848" lon="5.90316">
        <ele>996</ele>
        <time>2014-10-30T13:59:55Z</time>
      </trkpt>
      <trkpt lat="45.33865" lon="5.90328">
        <ele>997</ele>
        <time>2014-10-30T14:00:00Z</time>
      </trkpt>
      <trkpt lat="45.33883" lon="5.90341">
        <ele>992</ele>
        <time>2014-10-30T14:00:05Z</time>
      </trkpt>
      <trkpt lat="45.33902" lon="5.90351">
        <ele>993</ele>
        <time>2014-10-30T14:00:09Z</time>
      </trkpt>
      <trkpt lat="45.33921" lon="5.90354">
        <ele>996</ele>
        <time>2014-10-30T14:00:13Z</time>
      </trkpt>
      <trkpt lat="45.3394" lon="5.90358">
        <ele>995</ele>
        <time>2014-10-30T14:00:17Z</time>
      </trkpt>
      <trkpt lat="45.33962" lon="5.90361">
        <ele>995</ele>
        <time>2014-10-30T14:00:21Z</time>
      </trkpt>
      <trkpt lat="45.33983" lon="5.90354">
        <ele>996</ele>
        <time>2014-10-30T14:00:25Z</time>
      </trkpt>
      <trkpt lat="45.34001" lon="5.90343">
        <ele>1000</ele>
        <time>2014-10-30T14:00:28Z</time>
      </trkpt>
      <trkpt lat="45.34021" lon="5.90335">
        <ele>999</ele>
        <time>2014-10-30T14:00:31Z</time>
      </trkpt>
      <trkpt lat="45.34039" lon="5.90346">
        <ele>999</ele>
        <time>2014-10-30T14:00:34Z</time>
      </trkpt>
      <trkpt lat="45.34048" lon="5.90369">
        <ele>998</ele>
        <time>2014-10-30T14:00:37Z</time>
      </trkpt>
      <trkpt lat="45.34052" lon="5.90397">
        <ele>996</ele>
        <time>2014-10-30T14:00:41Z</time>
      </trkpt>
      <trkpt lat="45.34059" lon="5.90424">
        <ele>988</ele>
        <time>2014-10-30T14:00:46Z</time>
      </trkpt>
      <trkpt lat="45.34074" lon="5.9044">
        <ele>988</ele>
        <time>2014-10-30T14:00:51Z</time>
      </trkpt>
      <trkpt lat="45.34092" lon="5.90455">
        <ele>995</ele>
        <time>2014-10-30T14:00:56Z</time>
      </trkpt>
      <trkpt lat="45.3411" lon="5.90469">
        <ele>995</ele>
        <time>2014-10-30T14:01:01Z</time>
      </trkpt>
      <trkpt lat="45.34127" lon="5.90481">
        <ele>996</ele>
        <time>2014-10-30T14:01:06Z</time>
      </trkpt>
      <trkpt lat="45.34143" lon="5.90494">
        <ele>998</ele>
        <time>2014-10-30T14:01:10Z</time>
      </trkpt>
      <trkpt lat="45.34162" lon="5.90508">
        <ele>995</ele>
        <time>2014-10-30T14:01:15Z</time>
      </trkpt>
      <trkpt lat="45.34179" lon="5.9052">
        <ele>998</ele>
        <time>2014-10-30T14:01:20Z</time>
      </trkpt>
      <trkpt lat="45.34198" lon="5.90528">
        <ele>997</ele>
        <time>2014-10-30T14:01:25Z</time>
      </trkpt>
      <trkpt lat="45.34217" lon="5.90525">
        <ele>998</ele>
        <time>2014-10-30T14:01:30Z</time>
      </trkpt>
      <trkpt lat="45.34236" lon="5.90514">
        <ele>1002</ele>
        <time>2014-10-30T14:01:35Z</time>
      </trkpt>
      <trkpt lat="45.34252" lon="5.90501">
        <ele>1008</ele>
        <time>2014-10-30T14:01:40Z</time>
      </trkpt>
      <trkpt lat="45.3427" lon="5.90489">
        <ele>1015</ele>
        <time>2014-10-30T14:01:47Z</time>
      </trkpt>
      <trkpt lat="45.34289" lon="5.90487">
        <ele>1017</ele>
        <time>2014-10-30T14:01:52Z</time>
      </trkpt>
      <trkpt lat="45.34308" lon="5.90493">
        <ele>1017</ele>
        <time>2014-10-30T14:01:56Z</time>
      </trkpt>
      <trkpt lat="45.34325" lon="5.90506">
        <ele>1011</ele>
        <time>2014-10-30T14:02:03Z</time>
      </trkpt>
      <trkpt lat="45.34341" lon="5.90522">
        <ele>1015</ele>
        <time>2014-10-30T14:02:10Z</time>
      </trkpt>
      <trkpt lat="45.34355" lon="5.90538">
        <ele>1015</ele>
        <time>2014-10-30T14:02:17Z</time>
      </trkpt>
      <trkpt lat="45.34372" lon="5.90553">
        <ele>1015</ele>
        <time>2014-10-30T14:02:27Z</time>
      </trkpt>
      <trkpt lat="45.34391" lon="5.90559">
        <ele>1016</ele>
        <time>2014-10-30T14:02:35Z</time>
      </trkpt>
      <trkpt lat="45.3441" lon="5.90555">
        <ele>1017</ele>
        <time>2014-10-30T14:02:43Z</time>
      </trkpt>
      <trkpt lat="45.34428" lon="5.90559">
        <ele>1024</ele>
        <time>2014-10-30T14:02:50Z</time>
      </trkpt>
      <trkpt lat="45.34445" lon="5.90568">
        <ele>1025</ele>
        <time>2014-10-30T14:02:55Z</time>
      </trkpt>
      <trkpt lat="45.34462" lon="5.90583">
        <ele>1026</ele>
        <time>2014-10-30T14:03:00Z</time>
      </trkpt>
      <trkpt lat="45.34477" lon="5.906">
        <ele>1019</ele>
        <time>2014-10-30T14:03:05Z</time>
      </trkpt>
      <trkpt lat="45.3449" lon="5.90623">
        <ele>1017</ele>
        <time>2014-10-30T14:03:11Z</time>
      </trkpt>
      <trkpt lat="45.34503" lon="5.90643">
        <ele>1022</ele>
        <time>2014-10-30T14:03:17Z</time>
      </trkpt>
      <trkpt lat="45.34523" lon="5.90648">
        <ele>1023</ele>
        <time>2014-10-30T14:03:24Z</time>
      </trkpt>
      <trkpt lat="45.34543" lon="5.90649">
        <ele>1026</ele>
        <time>2014-10-30T14:03:30Z</time>
      </trkpt>
      <trkpt lat="45.34557" lon="5.90669">
        <ele>1022</ele>
        <time>2014-10-30T14:03:36Z</time>
      </trkpt>
      <trkpt lat="45.34562" lon="5.90698">
        <ele>1020</ele>
        <time>2014-10-30T14:03:42Z</time>
      </trkpt>
      <trkpt lat="45.34562" lon="5.90727">
        <ele>1019</ele>
        <time>2014-10-30T14:03:47Z</time>
      </trkpt>
      <trkpt lat="45.34553" lon="5.90751">
        <ele>1013</ele>
        <time>2014-10-30T14:03:52Z</time>
      </trkpt>
      <trkpt lat="45.3455" lon="5.90777">
        <ele>1011</ele>
        <time>2014-10-30T14:03:57Z</time>
      </trkpt>
      <trkpt lat="45.34559" lon="5.90803">
        <ele>1011</ele>
        <time>2014-10-30T14:04:03Z</time>
      </trkpt>
      <trkpt lat="45.34577" lon="5.90818">
        <ele>1013</ele>
        <time>2014-10-30T14:04:09Z</time>
      </trkpt>
      <trkpt lat="45.34596" lon="5.90828">
        <ele>1019</ele>
        <time>2014-10-30T14:04:13Z</time>
      </trkpt>
      <trkpt lat="45.34614" lon="5.90834">
        <ele>1015</ele>
        <time>2014-10-30T14:04:17Z</time>
      </trkpt>
      <trkpt lat="45.34632" lon="5.90842">
        <ele>1016</ele>
        <time>2014-10-30T14:04:21Z</time>
      </trkpt>
      <trkpt lat="45.34653" lon="5.90856">
        <ele>1017</ele>
        <time>2014-10-30T14:04:25Z</time>
      </trkpt>
      <trkpt lat="45.34671" lon="5.90876">
        <ele>1023</ele>
        <time>2014-10-30T14:04:29Z</time>
      </trkpt>
      <trkpt lat="45.34686" lon="5.90899">
        <ele>1022</ele>
        <time>2014-10-30T14:04:33Z</time>
      </trkpt>
      <trkpt lat="45.34697" lon="5.90924">
        <ele>1018</ele>
        <time>2014-10-30T14:04:37Z</time>
      </trkpt>
      <trkpt lat="45.34706" lon="5.90954">
        <ele>1019</ele>
        <time>2014-10-30T14:04:41Z</time>
      </trkpt>
      <trkpt lat="45.34713" lon="5.90977">
        <ele>1019</ele>
        <time>2014-10-30T14:04:44Z</time>
      </trkpt>
      <trkpt lat="45.3472" lon="5.91002">
        <ele>1015</ele>
        <time>2014-10-30T14:04:47Z</time>
      </trkpt>
      <trkpt lat="45.34724" lon="5.91027">
        <ele>1014</ele>
        <time>2014-10-30T14:04:50Z</time>
      </trkpt>
      <trkpt lat="45.34729" lon="5.91053">
        <ele>1013</ele>
        <time>2014-10-30T14:04:53Z</time>
      </trkpt>
      <trkpt lat="45.34736" lon="5.91078">
        <ele>1014</ele>
        <time>2014-10-30T14:04:56Z</time>
      </trkpt>
      <trkpt lat="45.34743" lon="5.91103">
        <ele>1009</ele>
        <time>2014-10-30T14:04:59Z</time>
      </trkpt>
      <trkpt lat="45.34752" lon="5.91134">
        <ele>1019</ele>
        <time>2014-10-30T14:05:03Z</time>
      </trkpt>
      <trkpt lat="45.34761" lon="5.91157">
        <ele>1016</ele>
        <time>2014-10-30T14:05:06Z</time>
      </trkpt>
      <trkpt lat="45.34776" lon="5.91178">
        <ele>1014</ele>
        <time>2014-10-30T14:05:10Z</time>
      </trkpt>
      <trkpt lat="45.34789" lon="5.91199">
        <ele>1016</ele>
        <time>2014-10-30T14:05:15Z</time>
      </trkpt>
      <trkpt lat="45.34803" lon="5.9122">
        <ele>1017</ele>
        <time>2014-10-30T14:05:21Z</time>
      </trkpt>
      <trkpt lat="45.34812" lon="5.91244">
        <ele>1018</ele>
        <time>2014-10-30T14:05:27Z</time>
      </trkpt>
      <trkpt lat="45.34828" lon="5.91264">
        <ele>1016</ele>
        <time>2014-10-30T14:05:33Z</time>
      </trkpt>
      <trkpt lat="45.34844" lon="5.91281">
        <ele>1024</ele>
        <time>2014-10-30T14:05:40Z</time>
      </trkpt>
      <trkpt lat="45.34862" lon="5.91295">
        <ele>1024</ele>
        <time>2014-10-30T14:05:48Z</time>
      </trkpt>
      <trkpt lat="45.34878" lon="5.91308">
        <ele>1025</ele>
        <time>2014-10-30T14:05:57Z</time>
      </trkpt>
      <trkpt lat="45.34896" lon="5.91319">
        <ele>1026</ele>
        <time>2014-10-30T14:06:04Z</time>
      </trkpt>
      <trkpt lat="45.34913" lon="5.91331">
        <ele>1028</ele>
        <time>2014-10-30T14:06:11Z</time>
      </trkpt>
      <trkpt lat="45.3493" lon="5.91341">
        <ele>1028</ele>
        <time>2014-10-30T14:06:17Z</time>
      </trkpt>
      <trkpt lat="45.34946" lon="5.91352">
        <ele>1028</ele>
        <time>2014-10-30T14:06:23Z</time>
      </trkpt>
      <trkpt lat="45.34964" lon="5.91366">
        <ele>1029</ele>
        <time>2014-10-30T14:06:30Z</time>
      </trkpt>
      <trkpt lat="45.34981" lon="5.91379">
        <ele>1029</ele>
        <time>2014-10-30T14:06:38Z</time>
      </trkpt>
      <trkpt lat="45.34997" lon="5.91396">
        <ele>1028</ele>
        <time>2014-10-30T14:06:46Z</time>
      </trkpt>
      <trkpt lat="45.35014" lon="5.91408">
        <ele>1034</ele>
        <time>2014-10-30T14:06:53Z</time>
      </trkpt>
      <trkpt lat="45.3503" lon="5.91423">
        <ele>1030</ele>
        <time>2014-10-30T14:07:00Z</time>
      </trkpt>
      <trkpt lat="45.35046" lon="5.91441">
        <ele>1031</ele>
        <time>2014-10-30T14:07:07Z</time>
      </trkpt>
      <trkpt lat="45.35064" lon="5.91456">
        <ele>1031</ele>
        <time>2014-10-30T14:07:13Z</time>
      </trkpt>
      <trkpt lat="45.35083" lon="5.91469">
        <ele>1031</ele>
        <time>2014-10-30T14:07:19Z</time>
      </trkpt>
      <trkpt lat="45.35101" lon="5.91481">
        <ele>1039</ele>
        <time>2014-10-30T14:07:24Z</time>
      </trkpt>
      <trkpt lat="45.35116" lon="5.91496">
        <ele>1040</ele>
        <time>2014-10-30T14:07:30Z</time>
      </trkpt>
      <trkpt lat="45.3513" lon="5.91513">
        <ele>1036</ele>
        <time>2014-10-30T14:07:36Z</time>
      </trkpt>
      <trkpt lat="45.35145" lon="5.91529">
        <ele>1037</ele>
        <time>2014-10-30T14:07:42Z</time>
      </trkpt>
      <trkpt lat="45.35159" lon="5.91546">
        <ele>1036</ele>
        <time>2014-10-30T14:07:48Z</time>
      </trkpt>
      <trkpt lat="45.35175" lon="5.9156">
        <ele>1043</ele>
        <time>2014-10-30T14:07:53Z</time>
      </trkpt>
      <trkpt lat="45.35191" lon="5.91572">
        <ele>1043</ele>
        <time>2014-10-30T14:07:58Z</time>
      </trkpt>
      <trkpt lat="45.35206" lon="5.9159">
        <ele>1039</ele>
        <time>2014-10-30T14:08:04Z</time>
      </trkpt>
      <trkpt lat="45.35223" lon="5.91606">
        <ele>1040</ele>
        <time>2014-10-30T14:08:11Z</time>
      </trkpt>
      <trkpt lat="45.35238" lon="5.91621">
        <ele>1040</ele>
        <time>2014-10-30T14:08:17Z</time>
      </trkpt>
      <trkpt lat="45.35257" lon="5.91635">
        <ele>1047</ele>
        <time>2014-10-30T14:08:23Z</time>
      </trkpt>
      <trkpt lat="45.35273" lon="5.91653">
        <ele>1046</ele>
        <time>2014-10-30T14:08:29Z</time>
      </trkpt>
      <trkpt lat="45.35289" lon="5.91669">
        <ele>1045</ele>
        <time>2014-10-30T14:08:35Z</time>
      </trkpt>
      <trkpt lat="45.35303" lon="5.91688">
        <ele>1046</ele>
        <time>2014-10-30T14:08:41Z</time>
      </trkpt>
      <trkpt lat="45.35312" lon="5.91715">
        <ele>1046</ele>
        <time>2014-10-30T14:08:48Z</time>
      </trkpt>
      <trkpt lat="45.35319" lon="5.9174">
        <ele>1047</ele>
        <time>2014-10-30T14:08:54Z</time>
      </trkpt>
      <trkpt lat="45.35325" lon="5.91766">
        <ele>1048</ele>
        <time>2014-10-30T14:09:01Z</time>
      </trkpt>
      <trkpt lat="45.35339" lon="5.91786">
        <ele>1054</ele>
        <time>2014-10-30T14:09:08Z</time>
      </trkpt>
      <trkpt lat="45.35343" lon="5.91813">
        <ele>1055</ele>
        <time>2014-10-30T14:09:18Z</time>
      </trkpt>
      <trkpt lat="45.35338" lon="5.9184">
        <ele>1056</ele>
        <time>2014-10-30T14:09:27Z</time>
      </trkpt>
      <trkpt lat="45.35324" lon="5.91861">
        <ele>1053</ele>
        <time>2014-10-30T14:09:33Z</time>
      </trkpt>
      <trkpt lat="45.35305" lon="5.91871">
        <ele>1052</ele>
        <time>2014-10-30T14:09:41Z</time>
      </trkpt>
      <trkpt lat="45.35289" lon="5.91886">
        <ele>1051</ele>
        <time>2014-10-30T14:09:48Z</time>
      </trkpt>
      <trkpt lat="45.35279" lon="5.9191">
        <ele>1050</ele>
        <time>2014-10-30T14:09:53Z</time>
      </trkpt>
      <trkpt lat="45.35272" lon="5.91934">
        <ele>1050</ele>
        <time>2014-10-30T14:09:57Z</time>
      </trkpt>
      <trkpt lat="45.35269" lon="5.91961">
        <ele>1050</ele>
        <time>2014-10-30T14:10:02Z</time>
      </trkpt>
      <trkpt lat="45.35271" lon="5.91987">
        <ele>1049</ele>
        <time>2014-10-30T14:10:10Z</time>
      </trkpt>
      <trkpt lat="45.35289" lon="5.92001">
        <ele>1043</ele>
        <time>2014-10-30T14:10:18Z</time>
      </trkpt>
      <trkpt lat="45.35286" lon="5.92026">
        <ele>1042</ele>
        <time>2014-10-30T14:11:13Z</time>
      </trkpt>
      <trkpt lat="45.35267" lon="5.92036">
        <ele>1040</ele>
        <time>2014-10-30T14:11:19Z</time>
      </trkpt>
      <trkpt lat="45.35249" lon="5.92045">
        <ele>1036</ele>
        <time>2014-10-30T14:11:23Z</time>
      </trkpt>
      <trkpt lat="45.3523" lon="5.92055">
        <ele>1034</ele>
        <time>2014-10-30T14:11:26Z</time>
      </trkpt>
      <trkpt lat="45.35213" lon="5.92069">
        <ele>1032</ele>
        <time>2014-10-30T14:11:30Z</time>
      </trkpt>
      <trkpt lat="45.35205" lon="5.92093">
        <ele>1014</ele>
        <time>2014-10-30T14:11:38Z</time>
      </trkpt>
      <trkpt lat="45.35182" lon="5.92095">
        <ele>1015</ele>
        <time>2014-10-30T14:11:49Z</time>
      </trkpt>
      <trkpt lat="45.35164" lon="5.92101">
        <ele>1010</ele>
        <time>2014-10-30T14:11:52Z</time>
      </trkpt>
      <trkpt lat="45.35144" lon="5.92108">
        <ele>1005</ele>
        <time>2014-10-30T14:11:57Z</time>
      </trkpt>
      <trkpt lat="45.35123" lon="5.9212">
        <ele>1001</ele>
        <time>2014-10-30T14:12:01Z</time>
      </trkpt>
      <trkpt lat="45.35105" lon="5.9213">
        <ele>999</ele>
        <time>2014-10-30T14:12:05Z</time>
      </trkpt>
      <trkpt lat="45.35088" lon="5.92143">
        <ele>994</ele>
        <time>2014-10-30T14:12:10Z</time>
      </trkpt>
      <trkpt lat="45.35071" lon="5.92156">
        <ele>991</ele>
        <time>2014-10-30T14:12:20Z</time>
      </trkpt>
      <trkpt lat="45.35057" lon="5.92173">
        <ele>966</ele>
        <time>2014-10-30T14:12:36Z</time>
      </trkpt>
      <trkpt lat="45.35047" lon="5.92195">
        <ele>959</ele>
        <time>2014-10-30T14:12:53Z</time>
      </trkpt>
      <trkpt lat="45.35033" lon="5.92211">
        <ele>953</ele>
        <time>2014-10-30T14:13:18Z</time>
      </trkpt>
      <trkpt lat="45.35015" lon="5.92225">
        <ele>946</ele>
        <time>2014-10-30T14:13:36Z</time>
      </trkpt>
      <trkpt lat="45.34992" lon="5.92228">
        <ele>946</ele>
        <time>2014-10-30T14:13:40Z</time>
      </trkpt>
      <trkpt lat="45.3497" lon="5.92225">
        <ele>952</ele>
        <time>2014-10-30T14:13:44Z</time>
      </trkpt>
      <trkpt lat="45.34949" lon="5.92222">
        <ele>953</ele>
        <time>2014-10-30T14:13:49Z</time>
      </trkpt>
      <trkpt lat="45.34927" lon="5.92219">
        <ele>953</ele>
        <time>2014-10-30T14:13:54Z</time>
      </trkpt>
      <trkpt lat="45.34909" lon="5.92221">
        <ele>955</ele>
        <time>2014-10-30T14:14:00Z</time>
      </trkpt>
      <trkpt lat="45.34894" lon="5.92237">
        <ele>950</ele>
        <time>2014-10-30T14:14:06Z</time>
      </trkpt>
      <trkpt lat="45.34885" lon="5.92259">
        <ele>911</ele>
        <time>2014-10-30T14:14:20Z</time>
      </trkpt>
      <trkpt lat="45.3487" lon="5.92276">
        <ele>907</ele>
        <time>2014-10-30T14:14:27Z</time>
      </trkpt>
      <trkpt lat="45.34853" lon="5.92292">
        <ele>902</ele>
        <time>2014-10-30T14:14:34Z</time>
      </trkpt>
      <trkpt lat="45.34839" lon="5.92311">
        <ele>894</ele>
        <time>2014-10-30T14:14:43Z</time>
      </trkpt>
      <trkpt lat="45.34847" lon="5.92337">
        <ele>868</ele>
        <time>2014-10-30T14:15:05Z</time>
      </trkpt>
      <trkpt lat="45.34859" lon="5.92358">
        <ele>860</ele>
        <time>2014-10-30T14:15:11Z</time>
      </trkpt>
      <trkpt lat="45.34864" lon="5.92386">
        <ele>852</ele>
        <time>2014-10-30T14:15:20Z</time>
      </trkpt>
      <trkpt lat="45.34878" lon="5.92407">
        <ele>848</ele>
        <time>2014-10-30T14:15:26Z</time>
      </trkpt>
      <trkpt lat="45.34896" lon="5.92427">
        <ele>820</ele>
        <time>2014-10-30T14:15:31Z</time>
      </trkpt>
      <trkpt lat="45.34903" lon="5.92452">
        <ele>812</ele>
        <time>2014-10-30T14:15:44Z</time>
      </trkpt>
      <trkpt lat="45.34907" lon="5.92479">
        <ele>800</ele>
        <time>2014-10-30T14:15:52Z</time>
      </trkpt>
      <trkpt lat="45.34924" lon="5.92491">
        <ele>793</ele>
        <time>2014-10-30T14:15:57Z</time>
      </trkpt>
      <trkpt lat="45.34942" lon="5.925">
        <ele>796</ele>
        <time>2014-10-30T14:16:02Z</time>
      </trkpt>
      <trkpt lat="45.34963" lon="5.92497">
        <ele>797</ele>
        <time>2014-10-30T14:16:06Z</time>
      </trkpt>
      <trkpt lat="45.34986" lon="5.92495">
        <ele>791</ele>
        <time>2014-10-30T14:16:10Z</time>
      </trkpt>
      <trkpt lat="45.35004" lon="5.92493">
        <ele>785</ele>
        <time>2014-10-30T14:16:13Z</time>
      </trkpt>
      <trkpt lat="45.35027" lon="5.92488">
        <ele>793</ele>
        <time>2014-10-30T14:16:16Z</time>
      </trkpt>
      <trkpt lat="45.3505" lon="5.92483">
        <ele>794</ele>
        <time>2014-10-30T14:16:19Z</time>
      </trkpt>
      <trkpt lat="45.35068" lon="5.92477">
        <ele>794</ele>
        <time>2014-10-30T14:16:22Z</time>
      </trkpt>
      <trkpt lat="45.35086" lon="5.92478">
        <ele>794</ele>
        <time>2014-10-30T14:16:29Z</time>
      </trkpt>
      <trkpt lat="45.35067" lon="5.92482">
        <ele>792</ele>
        <time>2014-10-30T14:16:45Z</time>
      </trkpt>
      <trkpt lat="45.35051" lon="5.92494">
        <ele>792</ele>
        <time>2014-10-30T14:16:51Z</time>
      </trkpt>
      <trkpt lat="45.35032" lon="5.925">
        <ele>762</ele>
        <time>2014-10-30T14:16:56Z</time>
      </trkpt>
      <trkpt lat="45.35014" lon="5.92513">
        <ele>764</ele>
        <time>2014-10-30T14:17:00Z</time>
      </trkpt>
      <trkpt lat="45.34996" lon="5.92528">
        <ele>761</ele>
        <time>2014-10-30T14:17:04Z</time>
      </trkpt>
      <trkpt lat="45.3498" lon="5.92541">
        <ele>755</ele>
        <time>2014-10-30T14:17:08Z</time>
      </trkpt>
      <trkpt lat="45.34964" lon="5.9256">
        <ele>750</ele>
        <time>2014-10-30T14:17:12Z</time>
      </trkpt>
      <trkpt lat="45.34947" lon="5.92571">
        <ele>748</ele>
        <time>2014-10-30T14:17:16Z</time>
      </trkpt>
      <trkpt lat="45.34934" lon="5.92589">
        <ele>723</ele>
        <time>2014-10-30T14:17:19Z</time>
      </trkpt>
      <trkpt lat="45.34917" lon="5.92608">
        <ele>721</ele>
        <time>2014-10-30T14:17:23Z</time>
      </trkpt>
      <trkpt lat="45.34907" lon="5.92633">
        <ele>711</ele>
        <time>2014-10-30T14:17:27Z</time>
      </trkpt>
      <trkpt lat="45.34912" lon="5.92662">
        <ele>698</ele>
        <time>2014-10-30T14:17:32Z</time>
      </trkpt>
      <trkpt lat="45.34933" lon="5.92662">
        <ele>701</ele>
        <time>2014-10-30T14:17:37Z</time>
      </trkpt>
      <trkpt lat="45.34953" lon="5.92673">
        <ele>680</ele>
        <time>2014-10-30T14:17:42Z</time>
      </trkpt>
      <trkpt lat="45.34972" lon="5.92687">
        <ele>677</ele>
        <time>2014-10-30T14:17:46Z</time>
      </trkpt>
      <trkpt lat="45.34992" lon="5.92709">
        <ele>672</ele>
        <time>2014-10-30T14:17:49Z</time>
      </trkpt>
      <trkpt lat="45.35008" lon="5.92725">
        <ele>669</ele>
        <time>2014-10-30T14:17:52Z</time>
      </trkpt>
      <trkpt lat="45.34999" lon="5.92754">
        <ele>653</ele>
        <time>2014-10-30T14:17:59Z</time>
      </trkpt>
      <trkpt lat="45.3498" lon="5.92768">
        <ele>647</ele>
        <time>2014-10-30T14:18:02Z</time>
      </trkpt>
      <trkpt lat="45.34962" lon="5.92779">
        <ele>645</ele>
        <time>2014-10-30T14:18:04Z</time>
      </trkpt>
      <trkpt lat="45.34946" lon="5.92791">
        <ele>644</ele>
        <time>2014-10-30T14:18:06Z</time>
      </trkpt>
      <trkpt lat="45.34924" lon="5.92809">
        <ele>640</ele>
        <time>2014-10-30T14:18:09Z</time>
      </trkpt>
      <trkpt lat="45.349" lon="5.92821">
        <ele>637</ele>
        <time>2014-10-30T14:18:12Z</time>
      </trkpt>
      <trkpt lat="45.34874" lon="5.92828">
        <ele>638</ele>
        <time>2014-10-30T14:18:15Z</time>
      </trkpt>
      <trkpt lat="45.34853" lon="5.92835">
        <ele>623</ele>
        <time>2014-10-30T14:18:19Z</time>
      </trkpt>
      <trkpt lat="45.34834" lon="5.92839">
        <ele>626</ele>
        <time>2014-10-30T14:18:24Z</time>
      </trkpt>
      <trkpt lat="45.34816" lon="5.92848">
        <ele>616</ele>
        <time>2014-10-30T14:18:28Z</time>
      </trkpt>
      <trkpt lat="45.34796" lon="5.9286">
        <ele>610</ele>
        <time>2014-10-30T14:18:32Z</time>
      </trkpt>
      <trkpt lat="45.34774" lon="5.92869">
        <ele>607</ele>
        <time>2014-10-30T14:18:36Z</time>
      </trkpt>
      <trkpt lat="45.34751" lon="5.92865">
        <ele>607</ele>
        <time>2014-10-30T14:18:40Z</time>
      </trkpt>
      <trkpt lat="45.34731" lon="5.92864">
        <ele>594</ele>
        <time>2014-10-30T14:18:43Z</time>
      </trkpt>
      <trkpt lat="45.34708" lon="5.92859">
        <ele>592</ele>
        <time>2014-10-30T14:18:46Z</time>
      </trkpt>
      <trkpt lat="45.34683" lon="5.92856">
        <ele>590</ele>
        <time>2014-10-30T14:18:49Z</time>
      </trkpt>
      <trkpt lat="45.34663" lon="5.92848">
        <ele>584</ele>
        <time>2014-10-30T14:18:52Z</time>
      </trkpt>
      <trkpt lat="45.34645" lon="5.92839">
        <ele>582</ele>
        <time>2014-10-30T14:18:55Z</time>
      </trkpt>
      <trkpt lat="45.34623" lon="5.92841">
        <ele>578</ele>
        <time>2014-10-30T14:18:58Z</time>
      </trkpt>
      <trkpt lat="45.34601" lon="5.9285">
        <ele>577</ele>
        <time>2014-10-30T14:19:02Z</time>
      </trkpt>
      <trkpt lat="45.34581" lon="5.92859">
        <ele>573</ele>
        <time>2014-10-30T14:19:05Z</time>
      </trkpt>
      <trkpt lat="45.34562" lon="5.92863">
        <ele>571</ele>
        <time>2014-10-30T14:19:08Z</time>
      </trkpt>
      <trkpt lat="45.34548" lon="5.92879">
        <ele>567</ele>
        <time>2014-10-30T14:19:13Z</time>
      </trkpt>
      <trkpt lat="45.34555" lon="5.92907">
        <ele>561</ele>
        <time>2014-10-30T14:19:17Z</time>
      </trkpt>
      <trkpt lat="45.34565" lon="5.92935">
        <ele>540</ele>
        <time>2014-10-30T14:19:21Z</time>
      </trkpt>
      <trkpt lat="45.34568" lon="5.92968">
        <ele>533</ele>
        <time>2014-10-30T14:19:25Z</time>
      </trkpt>
      <trkpt lat="45.3456" lon="5.92997">
        <ele>530</ele>
        <time>2014-10-30T14:19:29Z</time>
      </trkpt>
      <trkpt lat="45.34542" lon="5.93009">
        <ele>512</ele>
        <time>2014-10-30T14:19:33Z</time>
      </trkpt>
      <trkpt lat="45.34523" lon="5.93006">
        <ele>511</ele>
        <time>2014-10-30T14:19:36Z</time>
      </trkpt>
      <trkpt lat="45.34504" lon="5.93002">
        <ele>513</ele>
        <time>2014-10-30T14:19:39Z</time>
      </trkpt>
      <trkpt lat="45.34483" lon="5.93002">
        <ele>504</ele>
        <time>2014-10-30T14:19:42Z</time>
      </trkpt>
      <trkpt lat="45.34462" lon="5.9301">
        <ele>498</ele>
        <time>2014-10-30T14:19:45Z</time>
      </trkpt>
      <trkpt lat="45.3444" lon="5.93022">
        <ele>495</ele>
        <time>2014-10-30T14:19:49Z</time>
      </trkpt>
      <trkpt lat="45.34424" lon="5.93037">
        <ele>492</ele>
        <time>2014-10-30T14:19:54Z</time>
      </trkpt>
      <trkpt lat="45.34429" lon="5.93063">
        <ele>484</ele>
        <time>2014-10-30T14:20:01Z</time>
      </trkpt>
      <trkpt lat="45.34442" lon="5.93084">
        <ele>472</ele>
        <time>2014-10-30T14:20:04Z</time>
      </trkpt>
      <trkpt lat="45.34457" lon="5.93107">
        <ele>472</ele>
        <time>2014-10-30T14:20:07Z</time>
      </trkpt>
      <trkpt lat="45.34472" lon="5.93133">
        <ele>471</ele>
        <time>2014-10-30T14:20:10Z</time>
      </trkpt>
      <trkpt lat="45.34487" lon="5.93159">
        <ele>470</ele>
        <time>2014-10-30T14:20:13Z</time>
      </trkpt>
      <trkpt lat="45.34497" lon="5.93188">
        <ele>465</ele>
        <time>2014-10-30T14:20:16Z</time>
      </trkpt>
      <trkpt lat="45.34498" lon="5.93225">
        <ele>462</ele>
        <time>2014-10-30T14:20:19Z</time>
      </trkpt>
      <trkpt lat="45.34495" lon="5.93252">
        <ele>460</ele>
        <time>2014-10-30T14:20:21Z</time>
      </trkpt>
      <trkpt lat="45.34493" lon="5.93279">
        <ele>458</ele>
        <time>2014-10-30T14:20:23Z</time>
      </trkpt>
      <trkpt lat="45.34496" lon="5.93316">
        <ele>457</ele>
        <time>2014-10-30T14:20:26Z</time>
      </trkpt>
      <trkpt lat="45.34509" lon="5.93342">
        <ele>457</ele>
        <time>2014-10-30T14:20:29Z</time>
      </trkpt>
      <trkpt lat="45.34528" lon="5.93358">
        <ele>458</ele>
        <time>2014-10-30T14:20:33Z</time>
      </trkpt>
      <trkpt lat="45.34546" lon="5.93373">
        <ele>458</ele>
        <time>2014-10-30T14:20:37Z</time>
      </trkpt>
      <trkpt lat="45.34567" lon="5.93388">
        <ele>458</ele>
        <time>2014-10-30T14:20:41Z</time>
      </trkpt>
      <trkpt lat="45.34588" lon="5.93401">
        <ele>462</ele>
        <time>2014-10-30T14:20:45Z</time>
      </trkpt>
      <trkpt lat="45.34604" lon="5.93412">
        <ele>463</ele>
        <time>2014-10-30T14:20:49Z</time>
      </trkpt>
      <trkpt lat="45.3462" lon="5.93426">
        <ele>459</ele>
        <time>2014-10-30T14:20:54Z</time>
      </trkpt>
      <trkpt lat="45.34635" lon="5.9344">
        <ele>460</ele>
        <time>2014-10-30T14:20:58Z</time>
      </trkpt>
      <trkpt lat="45.34652" lon="5.93459">
        <ele>460</ele>
        <time>2014-10-30T14:21:02Z</time>
      </trkpt>
      <trkpt lat="45.34665" lon="5.93477">
        <ele>460</ele>
        <time>2014-10-30T14:21:06Z</time>
      </trkpt>
      <trkpt lat="45.34674" lon="5.935">
        <ele>462</ele>
        <time>2014-10-30T14:21:12Z</time>
      </trkpt>
      <trkpt lat="45.34683" lon="5.93524">
        <ele>463</ele>
        <time>2014-10-30T14:21:21Z</time>
      </trkpt>
      <trkpt lat="45.34691" lon="5.9355">
        <ele>463</ele>
        <time>2014-10-30T14:21:29Z</time>
      </trkpt>
      <trkpt lat="45.34703" lon="5.93571">
        <ele>464</ele>
        <time>2014-10-30T14:21:34Z</time>
      </trkpt>
      <trkpt lat="45.3471" lon="5.93597">
        <ele>462</ele>
        <time>2014-10-30T14:21:39Z</time>
      </trkpt>
      <trkpt lat="45.34719" lon="5.93626">
        <ele>461</ele>
        <time>2014-10-30T14:21:44Z</time>
      </trkpt>
      <trkpt lat="45.34731" lon="5.93649">
        <ele>460</ele>
        <time>2014-10-30T14:21:48Z</time>
      </trkpt>
      <trkpt lat="45.34744" lon="5.93669">
        <ele>456</ele>
        <time>2014-10-30T14:21:53Z</time>
      </trkpt>
      <trkpt lat="45.34756" lon="5.9369">
        <ele>455</ele>
        <time>2014-10-30T14:21:57Z</time>
      </trkpt>
      <trkpt lat="45.34773" lon="5.93702">
        <ele>454</ele>
        <time>2014-10-30T14:22:01Z</time>
      </trkpt>
      <trkpt lat="45.34788" lon="5.93719">
        <ele>453</ele>
        <time>2014-10-30T14:22:04Z</time>
      </trkpt>
      <trkpt lat="45.34805" lon="5.93744">
        <ele>452</ele>
        <time>2014-10-30T14:22:07Z</time>
      </trkpt>
      <trkpt lat="45.34822" lon="5.93758">
        <ele>445</ele>
        <time>2014-10-30T14:22:09Z</time>
      </trkpt>
      <trkpt lat="45.34839" lon="5.93779">
        <ele>444</ele>
        <time>2014-10-30T14:22:11Z</time>
      </trkpt>
      <trkpt lat="45.34853" lon="5.93795">
        <ele>442</ele>
        <time>2014-10-30T14:22:13Z</time>
      </trkpt>
      <trkpt lat="45.34875" lon="5.93814">
        <ele>441</ele>
        <time>2014-10-30T14:22:16Z</time>
      </trkpt>
      <trkpt lat="45.34892" lon="5.93824">
        <ele>440</ele>
        <time>2014-10-30T14:22:18Z</time>
      </trkpt>
      <trkpt lat="45.34913" lon="5.93841">
        <ele>433</ele>
        <time>2014-10-30T14:22:21Z</time>
      </trkpt>
      <trkpt lat="45.34923" lon="5.93862">
        <ele>429</ele>
        <time>2014-10-30T14:22:24Z</time>
      </trkpt>
      <trkpt lat="45.34935" lon="5.9389">
        <ele>424</ele>
        <time>2014-10-30T14:22:29Z</time>
      </trkpt>
      <trkpt lat="45.34951" lon="5.93915">
        <ele>423</ele>
        <time>2014-10-30T14:22:32Z</time>
      </trkpt>
      <trkpt lat="45.34973" lon="5.9393">
        <ele>407</ele>
        <time>2014-10-30T14:22:35Z</time>
      </trkpt>
      <trkpt lat="45.34991" lon="5.93937">
        <ele>407</ele>
        <time>2014-10-30T14:22:37Z</time>
      </trkpt>
      <trkpt lat="45.35014" lon="5.9395">
        <ele>404</ele>
        <time>2014-10-30T14:22:40Z</time>
      </trkpt>
      <trkpt lat="45.35031" lon="5.93961">
        <ele>401</ele>
        <time>2014-10-30T14:22:42Z</time>
      </trkpt>
      <trkpt lat="45.3505" lon="5.93971">
        <ele>400</ele>
        <time>2014-10-30T14:22:44Z</time>
      </trkpt>
      <trkpt lat="45.3507" lon="5.93983">
        <ele>396</ele>
        <time>2014-10-30T14:22:46Z</time>
      </trkpt>
      <trkpt lat="45.35093" lon="5.93997">
        <ele>392</ele>
        <time>2014-10-30T14:22:48Z</time>
      </trkpt>
      <trkpt lat="45.35114" lon="5.94015">
        <ele>379</ele>
        <time>2014-10-30T14:22:50Z</time>
      </trkpt>
      <trkpt lat="45.35136" lon="5.94033">
        <ele>376</ele>
        <time>2014-10-30T14:22:52Z</time>
      </trkpt>
      <trkpt lat="45.35157" lon="5.94046">
        <ele>374</ele>
        <time>2014-10-30T14:22:54Z</time>
      </trkpt>
      <trkpt lat="45.35175" lon="5.94055">
        <ele>374</ele>
        <time>2014-10-30T14:22:56Z</time>
      </trkpt>
      <trkpt lat="45.35194" lon="5.94066">
        <ele>373</ele>
        <time>2014-10-30T14:22:58Z</time>
      </trkpt>
      <trkpt lat="45.35211" lon="5.9408">
        <ele>372</ele>
        <time>2014-10-30T14:23:01Z</time>
      </trkpt>
      <trkpt lat="45.35233" lon="5.94085">
        <ele>359</ele>
        <time>2014-10-30T14:23:06Z</time>
      </trkpt>
      <trkpt lat="45.35251" lon="5.94073">
        <ele>368</ele>
        <time>2014-10-30T14:23:09Z</time>
      </trkpt>
      <trkpt lat="45.35273" lon="5.94062">
        <ele>372</ele>
        <time>2014-10-30T14:23:13Z</time>
      </trkpt>
      <trkpt lat="45.35289" lon="5.94073">
        <ele>370</ele>
        <time>2014-10-30T14:23:17Z</time>
      </trkpt>
      <trkpt lat="45.35277" lon="5.94094">
        <ele>354</ele>
        <time>2014-10-30T14:23:22Z</time>
      </trkpt>
      <trkpt lat="45.35265" lon="5.94114">
        <ele>352</ele>
        <time>2014-10-30T14:23:26Z</time>
      </trkpt>
      <trkpt lat="45.35252" lon="5.9414">
        <ele>345</ele>
        <time>2014-10-30T14:23:31Z</time>
      </trkpt>
      <trkpt lat="45.35247" lon="5.94166">
        <ele>337</ele>
        <time>2014-10-30T14:23:35Z</time>
      </trkpt>
      <trkpt lat="45.35243" lon="5.94191">
        <ele>329</ele>
        <time>2014-10-30T14:23:43Z</time>
      </trkpt>
      <trkpt lat="45.35261" lon="5.94199">
        <ele>327</ele>
        <time>2014-10-30T14:26:17Z</time>
      </trkpt>
      <trkpt lat="45.35254" lon="5.94224">
        <ele>321</ele>
        <time>2014-10-30T14:26:55Z</time>
      </trkpt>
      <trkpt lat="45.35248" lon="5.94253">
        <ele>312</ele>
        <time>2014-10-30T14:27:00Z</time>
      </trkpt>
      <trkpt lat="45.3524" lon="5.94277">
        <ele>308</ele>
        <time>2014-10-30T14:27:30Z</time>
      </trkpt>
      <trkpt lat="45.35226" lon="5.94301">
        <ele>305</ele>
        <time>2014-10-30T14:27:35Z</time>
      </trkpt>
      <trkpt lat="45.35213" lon="5.94327">
        <ele>303</ele>
        <time>2014-10-30T14:27:40Z</time>
      </trkpt>
      <trkpt lat="45.35204" lon="5.94349">
        <ele>293</ele>
        <time>2014-10-30T14:27:44Z</time>
      </trkpt>
      <trkpt lat="45.35195" lon="5.94373">
        <ele>291</ele>
        <time>2014-10-30T14:27:48Z</time>
      </trkpt>
      <trkpt lat="45.35183" lon="5.94395">
        <ele>289</ele>
        <time>2014-10-30T14:27:52Z</time>
      </trkpt>
      <trkpt lat="45.35165" lon="5.94402">
        <ele>285</ele>
        <time>2014-10-30T14:28:04Z</time>
      </trkpt>
      <trkpt lat="45.35146" lon="5.94398">
        <ele>286</ele>
        <time>2014-10-30T14:28:11Z</time>
      </trkpt>
      <trkpt lat="45.35127" lon="5.94393">
        <ele>286</ele>
        <time>2014-10-30T14:28:24Z</time>
      </trkpt>
      <trkpt lat="45.35109" lon="5.9439">
        <ele>286</ele>
        <time>2014-10-30T14:28:30Z</time>
      </trkpt>
      <trkpt lat="45.3509" lon="5.94393">
        <ele>285</ele>
        <time>2014-10-30T14:28:36Z</time>
      </trkpt>
      <trkpt lat="45.35067" lon="5.94389">
        <ele>283</ele>
        <time>2014-10-30T14:28:41Z</time>
      </trkpt>
      <trkpt lat="45.35049" lon="5.94391">
        <ele>283</ele>
        <time>2014-10-30T14:28:44Z</time>
      </trkpt>
      <trkpt lat="45.35029" lon="5.9439">
        <ele>282</ele>
        <time>2014-10-30T14:28:47Z</time>
      </trkpt>
      <trkpt lat="45.35007" lon="5.94384">
        <ele>282</ele>
        <time>2014-10-30T14:28:51Z</time>
      </trkpt>
      <trkpt lat="45.34991" lon="5.9437">
        <ele>282</ele>
        <time>2014-10-30T14:28:55Z</time>
      </trkpt>
      <trkpt lat="45.34971" lon="5.94359">
        <ele>282</ele>
        <time>2014-10-30T14:29:00Z</time>
      </trkpt>
      <trkpt lat="45.34955" lon="5.94348">
        <ele>282</ele>
        <time>2014-10-30T14:29:05Z</time>
      </trkpt>
      <trkpt lat="45.34938" lon="5.94335">
        <ele>283</ele>
        <time>2014-10-30T14:29:13Z</time>
      </trkpt>
      <trkpt lat="45.3492" lon="5.94324">
        <ele>290</ele>
        <time>2014-10-30T14:29:20Z</time>
      </trkpt>
      <trkpt lat="45.34901" lon="5.94318">
        <ele>289</ele>
        <time>2014-10-30T14:29:26Z</time>
      </trkpt>
      <trkpt lat="45.34881" lon="5.9431">
        <ele>290</ele>
        <time>2014-10-30T14:29:31Z</time>
      </trkpt>
      <trkpt lat="45.34862" lon="5.94301">
        <ele>290</ele>
        <time>2014-10-30T14:29:36Z</time>
      </trkpt>
      <trkpt lat="45.34843" lon="5.94291">
        <ele>291</ele>
        <time>2014-10-30T14:29:43Z</time>
      </trkpt>
      <trkpt lat="45.34825" lon="5.94277">
        <ele>288</ele>
        <time>2014-10-30T14:29:50Z</time>
      </trkpt>
      <trkpt lat="45.34806" lon="5.94268">
        <ele>288</ele>
        <time>2014-10-30T14:29:55Z</time>
      </trkpt>
      <trkpt lat="45.34787" lon="5.94266">
        <ele>287</ele>
        <time>2014-10-30T14:29:59Z</time>
      </trkpt>
      <trkpt lat="45.34765" lon="5.94263">
        <ele>288</ele>
        <time>2014-10-30T14:30:04Z</time>
      </trkpt>
      <trkpt lat="45.34744" lon="5.94257">
        <ele>287</ele>
        <time>2014-10-30T14:30:09Z</time>
      </trkpt>
      <trkpt lat="45.34724" lon="5.94249">
        <ele>294</ele>
        <time>2014-10-30T14:30:14Z</time>
      </trkpt>
      <trkpt lat="45.34705" lon="5.9424">
        <ele>294</ele>
        <time>2014-10-30T14:30:19Z</time>
      </trkpt>
      <trkpt lat="45.34687" lon="5.9423">
        <ele>293</ele>
        <time>2014-10-30T14:30:23Z</time>
      </trkpt>
      <trkpt lat="45.34669" lon="5.94217">
        <ele>294</ele>
        <time>2014-10-30T14:30:27Z</time>
      </trkpt>
      <trkpt lat="45.3465" lon="5.94203">
        <ele>292</ele>
        <time>2014-10-30T14:30:32Z</time>
      </trkpt>
      <trkpt lat="45.34632" lon="5.94188">
        <ele>293</ele>
        <time>2014-10-30T14:30:38Z</time>
      </trkpt>
      <trkpt lat="45.34613" lon="5.94182">
        <ele>292</ele>
        <time>2014-10-30T14:30:44Z</time>
      </trkpt>
      <trkpt lat="45.34594" lon="5.9418">
        <ele>293</ele>
        <time>2014-10-30T14:30:50Z</time>
      </trkpt>
      <trkpt lat="45.34575" lon="5.94177">
        <ele>291</ele>
        <time>2014-10-30T14:30:55Z</time>
      </trkpt>
      <trkpt lat="45.34553" lon="5.94175">
        <ele>288</ele>
        <time>2014-10-30T14:31:00Z</time>
      </trkpt>
      <trkpt lat="45.34533" lon="5.94172">
        <ele>288</ele>
        <time>2014-10-30T14:31:05Z</time>
      </trkpt>
      <trkpt lat="45.34514" lon="5.94176">
        <ele>289</ele>
        <time>2014-10-30T14:31:10Z</time>
      </trkpt>
      <trkpt lat="45.34494" lon="5.94182">
        <ele>287</ele>
        <time>2014-10-30T14:31:14Z</time>
      </trkpt>
      <trkpt lat="45.34471" lon="5.94182">
        <ele>284</ele>
        <time>2014-10-30T14:31:18Z</time>
      </trkpt>
      <trkpt lat="45.34451" lon="5.94191">
        <ele>282</ele>
        <time>2014-10-30T14:31:21Z</time>
      </trkpt>
      <trkpt lat="45.34429" lon="5.94188">
        <ele>282</ele>
        <time>2014-10-30T14:31:24Z</time>
      </trkpt>
      <trkpt lat="45.34406" lon="5.94183">
        <ele>279</ele>
        <time>2014-10-30T14:31:27Z</time>
      </trkpt>
      <trkpt lat="45.34387" lon="5.94174">
        <ele>278</ele>
        <time>2014-10-30T14:31:30Z</time>
      </trkpt>
      <trkpt lat="45.34368" lon="5.94163">
        <ele>285</ele>
        <time>2014-10-30T14:31:34Z</time>
      </trkpt>
      <trkpt lat="45.34348" lon="5.94156">
        <ele>282</ele>
        <time>2014-10-30T14:31:38Z</time>
      </trkpt>
      <trkpt lat="45.34331" lon="5.94147">
        <ele>277</ele>
        <time>2014-10-30T14:31:42Z</time>
      </trkpt>
      <trkpt lat="45.34311" lon="5.94133">
        <ele>278</ele>
        <time>2014-10-30T14:31:47Z</time>
      </trkpt>
      <trkpt lat="45.34294" lon="5.94122">
        <ele>279</ele>
        <time>2014-10-30T14:31:51Z</time>
      </trkpt>
      <trkpt lat="45.34277" lon="5.94109">
        <ele>279</ele>
        <time>2014-10-30T14:31:55Z</time>
      </trkpt>
      <trkpt lat="45.34258" lon="5.94094">
        <ele>279</ele>
        <time>2014-10-30T14:32:00Z</time>
      </trkpt>
      <trkpt lat="45.34239" lon="5.9408">
        <ele>281</ele>
        <time>2014-10-30T14:32:06Z</time>
      </trkpt>
      <trkpt lat="45.3422" lon="5.94085">
        <ele>274</ele>
        <time>2014-10-30T14:32:13Z</time>
      </trkpt>
      <trkpt lat="45.34212" lon="5.94109">
        <ele>273</ele>
        <time>2014-10-30T14:32:16Z</time>
      </trkpt>
      <trkpt lat="45.34202" lon="5.94135">
        <ele>271</ele>
        <time>2014-10-30T14:32:19Z</time>
      </trkpt>
      <trkpt lat="45.34195" lon="5.9416">
        <ele>270</ele>
        <time>2014-10-30T14:32:22Z</time>
      </trkpt>
      <trkpt lat="45.34185" lon="5.94189">
        <ele>263</ele>
        <time>2014-10-30T14:32:25Z</time>
      </trkpt>
      <trkpt lat="45.34172" lon="5.94208">
        <ele>262</ele>
        <time>2014-10-30T14:32:29Z</time>
      </trkpt>
      <trkpt lat="45.34154" lon="5.942">
        <ele>257</ele>
        <time>2014-10-30T14:32:33Z</time>
      </trkpt>
      <trkpt lat="45.34134" lon="5.9419">
        <ele>256</ele>
        <time>2014-10-30T14:32:37Z</time>
      </trkpt>
      <trkpt lat="45.34113" lon="5.9418">
        <ele>255</ele>
        <time>2014-10-30T14:32:40Z</time>
      </trkpt>
      <trkpt lat="45.3409" lon="5.94174">
        <ele>255</ele>
        <time>2014-10-30T14:32:43Z</time>
      </trkpt>
      <trkpt lat="45.34067" lon="5.94182">
        <ele>251</ele>
        <time>2014-10-30T14:32:46Z</time>
      </trkpt>
      <trkpt lat="45.34043" lon="5.94198">
        <ele>249</ele>
        <time>2014-10-30T14:32:49Z</time>
      </trkpt>
      <trkpt lat="45.34025" lon="5.94209">
        <ele>248</ele>
        <time>2014-10-30T14:32:51Z</time>
      </trkpt>
      <trkpt lat="45.34007" lon="5.9422">
        <ele>247</ele>
        <time>2014-10-30T14:32:53Z</time>
      </trkpt>
      <trkpt lat="45.33988" lon="5.9423">
        <ele>245</ele>
        <time>2014-10-30T14:32:55Z</time>
      </trkpt>
      <trkpt lat="45.3397" lon="5.94237">
        <ele>245</ele>
        <time>2014-10-30T14:32:57Z</time>
      </trkpt>
      <trkpt lat="45.33952" lon="5.94248">
        <ele>244</ele>
        <time>2014-10-30T14:33:02Z</time>
      </trkpt>
      <trkpt lat="45.33946" lon="5.94276">
        <ele>241</ele>
        <time>2014-10-30T14:33:07Z</time>
      </trkpt>
      <trkpt lat="45.33945" lon="5.94302">
        <ele>241</ele>
        <time>2014-10-30T14:33:10Z</time>
      </trkpt>
      <trkpt lat="45.33928" lon="5.94321">
        <ele>240</ele>
        <time>2014-10-30T14:33:14Z</time>
      </trkpt>
      <trkpt lat="45.33908" lon="5.94328">
        <ele>240</ele>
        <time>2014-10-30T14:33:17Z</time>
      </trkpt>
      <trkpt lat="45.33891" lon="5.94334">
        <ele>238</ele>
        <time>2014-10-30T14:33:20Z</time>
      </trkpt>
      <trkpt lat="45.33871" lon="5.94346">
        <ele>238</ele>
        <time>2014-10-30T14:33:24Z</time>
      </trkpt>
      <trkpt lat="45.33854" lon="5.9436">
        <ele>237</ele>
        <time>2014-10-30T14:33:28Z</time>
      </trkpt>
      <trkpt lat="45.33849" lon="5.94388">
        <ele>237</ele>
        <time>2014-10-30T14:33:33Z</time>
      </trkpt>
      <trkpt lat="45.33846" lon="5.94416">
        <ele>236</ele>
        <time>2014-10-30T14:33:37Z</time>
      </trkpt>
      <trkpt lat="45.33842" lon="5.94446">
        <ele>236</ele>
        <time>2014-10-30T14:33:41Z</time>
      </trkpt>
      <trkpt lat="45.33837" lon="5.94476">
        <ele>236</ele>
        <time>2014-10-30T14:33:45Z</time>
      </trkpt>
      <trkpt lat="45.33832" lon="5.94504">
        <ele>236</ele>
        <time>2014-10-30T14:33:49Z</time>
      </trkpt>
      <trkpt lat="45.33826" lon="5.94532">
        <ele>236</ele>
        <time>2014-10-30T14:33:53Z</time>
      </trkpt>
      <trkpt lat="45.33822" lon="5.9456">
        <ele>236</ele>
        <time>2014-10-30T14:33:57Z</time>
      </trkpt>
      <trkpt lat="45.33818" lon="5.94587">
        <ele>236</ele>
        <time>2014-10-30T14:34:01Z</time>
      </trkpt>
      <trkpt lat="45.33816" lon="5.94615">
        <ele>236</ele>
        <time>2014-10-30T14:34:05Z</time>
      </trkpt>
      <trkpt lat="45.33816" lon="5.94642">
        <ele>236</ele>
        <time>2014-10-30T14:34:09Z</time>
      </trkpt>
      <trkpt lat="45.33832" lon="5.94663">
        <ele>235</ele>
        <time>2014-10-30T14:34:14Z</time>
      </trkpt>
      <trkpt lat="45.33852" lon="5.94679">
        <ele>235</ele>
        <time>2014-10-30T14:34:19Z</time>
      </trkpt>
      <trkpt lat="45.33868" lon="5.94693">
        <ele>235</ele>
        <time>2014-10-30T14:34:23Z</time>
      </trkpt>
      <trkpt lat="45.33886" lon="5.94707">
        <ele>236</ele>
        <time>2014-10-30T14:34:27Z</time>
      </trkpt>
      <trkpt lat="45.33903" lon="5.94724">
        <ele>236</ele>
        <time>2014-10-30T14:34:31Z</time>
      </trkpt>
      <trkpt lat="45.3392" lon="5.94741">
        <ele>236</ele>
        <time>2014-10-30T14:34:35Z</time>
      </trkpt>
      <trkpt lat="45.33938" lon="5.94755">
        <ele>236</ele>
        <time>2014-10-30T14:34:39Z</time>
      </trkpt>
      <trkpt lat="45.33957" lon="5.94768">
        <ele>236</ele>
        <time>2014-10-30T14:34:43Z</time>
      </trkpt>
      <trkpt lat="45.33972" lon="5.94788">
        <ele>236</ele>
        <time>2014-10-30T14:34:47Z</time>
      </trkpt>
      <trkpt lat="45.33976" lon="5.94816">
        <ele>236</ele>
        <time>2014-10-30T14:34:51Z</time>
      </trkpt>
      <trkpt lat="45.33974" lon="5.94845">
        <ele>236</ele>
        <time>2014-10-30T14:34:55Z</time>
      </trkpt>
      <trkpt lat="45.33976" lon="5.94874">
        <ele>236</ele>
        <time>2014-10-30T14:34:59Z</time>
      </trkpt>
      <trkpt lat="45.33988" lon="5.94901">
        <ele>236</ele>
        <time>2014-10-30T14:35:03Z</time>
      </trkpt>
      <trkpt lat="45.34005" lon="5.9492">
        <ele>236</ele>
        <time>2014-10-30T14:35:07Z</time>
      </trkpt>
      <trkpt lat="45.34023" lon="5.94935">
        <ele>236</ele>
        <time>2014-10-30T14:35:11Z</time>
      </trkpt>
      <trkpt lat="45.34042" lon="5.94944">
        <ele>236</ele>
        <time>2014-10-30T14:35:15Z</time>
      </trkpt>
      <trkpt lat="45.34062" lon="5.94952">
        <ele>236</ele>
        <time>2014-10-30T14:35:19Z</time>
      </trkpt>
      <trkpt lat="45.3408" lon="5.94963">
        <ele>236</ele>
        <time>2014-10-30T14:35:23Z</time>
      </trkpt>
      <trkpt lat="45.34098" lon="5.94973">
        <ele>236</ele>
        <time>2014-10-30T14:35:27Z</time>
      </trkpt>
      <trkpt lat="45.34116" lon="5.94982">
        <ele>236</ele>
        <time>2014-10-30T14:35:31Z</time>
      </trkpt>
      <trkpt lat="45.34134" lon="5.9499">
        <ele>237</ele>
        <time>2014-10-30T14:35:35Z</time>
      </trkpt>
      <trkpt lat="45.34152" lon="5.95">
        <ele>237</ele>
        <time>2014-10-30T14:35:39Z</time>
      </trkpt>
      <trkpt lat="45.34169" lon="5.95008">
        <ele>237</ele>
        <time>2014-10-30T14:35:43Z</time>
      </trkpt>
      <trkpt lat="45.3419" lon="5.95018">
        <ele>236</ele>
        <time>2014-10-30T14:35:48Z</time>
      </trkpt>
      <trkpt lat="45.34208" lon="5.95026">
        <ele>236</ele>
        <time>2014-10-30T14:35:52Z</time>
      </trkpt>
      <trkpt lat="45.34225" lon="5.95035">
        <ele>236</ele>
        <time>2014-10-30T14:35:56Z</time>
      </trkpt>
      <trkpt lat="45.34246" lon="5.95039">
        <ele>236</ele>
        <time>2014-10-30T14:36:01Z</time>
      </trkpt>
      <trkpt lat="45.34257" lon="5.95012">
        <ele>236</ele>
        <time>2014-10-30T14:36:06Z</time>
      </trkpt>
      <trkpt lat="45.34273" lon="5.94991">
        <ele>236</ele>
        <time>2014-10-30T14:36:11Z</time>
      </trkpt>
      <trkpt lat="45.34291" lon="5.95001">
        <ele>237</ele>
        <time>2014-10-30T14:36:15Z</time>
      </trkpt>
      <trkpt lat="45.34307" lon="5.95014">
        <ele>237</ele>
        <time>2014-10-30T14:36:19Z</time>
      </trkpt>
      <trkpt lat="45.34325" lon="5.95028">
        <ele>237</ele>
        <time>2014-10-30T14:36:23Z</time>
      </trkpt>
      <trkpt lat="45.34342" lon="5.95042">
        <ele>238</ele>
        <time>2014-10-30T14:36:27Z</time>
      </trkpt>
      <trkpt lat="45.34358" lon="5.95057">
        <ele>238</ele>
        <time>2014-10-30T14:36:31Z</time>
      </trkpt>
      <trkpt lat="45.34376" lon="5.95072">
        <ele>238</ele>
        <time>2014-10-30T14:36:35Z</time>
      </trkpt>
      <trkpt lat="45.34395" lon="5.95083">
        <ele>238</ele>
        <time>2014-10-30T14:36:39Z</time>
      </trkpt>
      <trkpt lat="45.34413" lon="5.95098">
        <ele>239</ele>
        <time>2014-10-30T14:36:43Z</time>
      </trkpt>
      <trkpt lat="45.34433" lon="5.95096">
        <ele>238</ele>
        <time>2014-10-30T14:36:47Z</time>
      </trkpt>
      <trkpt lat="45.3445" lon="5.95087">
        <ele>238</ele>
        <time>2014-10-30T14:36:51Z</time>
      </trkpt>
      <trkpt lat="45.34469" lon="5.95086">
        <ele>238</ele>
        <time>2014-10-30T14:36:55Z</time>
      </trkpt>
      <trkpt lat="45.34487" lon="5.95092">
        <ele>238</ele>
        <time>2014-10-30T14:36:59Z</time>
      </trkpt>
      <trkpt lat="45.34508" lon="5.95093">
        <ele>238</ele>
        <time>2014-10-30T14:37:03Z</time>
      </trkpt>
      <trkpt lat="45.34528" lon="5.95088">
        <ele>238</ele>
        <time>2014-10-30T14:37:07Z</time>
      </trkpt>
      <trkpt lat="45.34546" lon="5.9508">
        <ele>239</ele>
        <time>2014-10-30T14:37:11Z</time>
      </trkpt>
      <trkpt lat="45.34565" lon="5.95072">
        <ele>239</ele>
        <time>2014-10-30T14:37:15Z</time>
      </trkpt>
      <trkpt lat="45.34581" lon="5.9506">
        <ele>239</ele>
        <time>2014-10-30T14:37:19Z</time>
      </trkpt>
      <trkpt lat="45.34598" lon="5.95049">
        <ele>239</ele>
        <time>2014-10-30T14:37:23Z</time>
      </trkpt>
      <trkpt lat="45.34617" lon="5.95039">
        <ele>239</ele>
        <time>2014-10-30T14:37:27Z</time>
      </trkpt>
      <trkpt lat="45.34636" lon="5.95033">
        <ele>239</ele>
        <time>2014-10-30T14:37:31Z</time>
      </trkpt>
      <trkpt lat="45.34655" lon="5.95028">
        <ele>239</ele>
        <time>2014-10-30T14:37:35Z</time>
      </trkpt>
      <trkpt lat="45.34674" lon="5.95021">
        <ele>238</ele>
        <time>2014-10-30T14:37:39Z</time>
      </trkpt>
      <trkpt lat="45.34692" lon="5.95014">
        <ele>238</ele>
        <time>2014-10-30T14:37:43Z</time>
      </trkpt>
      <trkpt lat="45.34711" lon="5.95012">
        <ele>238</ele>
        <time>2014-10-30T14:37:48Z</time>
      </trkpt>
      <trkpt lat="45.34729" lon="5.95002">
        <ele>238</ele>
        <time>2014-10-30T14:38:03Z</time>
      </trkpt>
      <trkpt lat="45.34746" lon="5.94995">
        <ele>238</ele>
        <time>2014-10-30T14:38:08Z</time>
      </trkpt>
      <trkpt lat="45.34766" lon="5.94987">
        <ele>238</ele>
        <time>2014-10-30T14:38:13Z</time>
      </trkpt>
      <trkpt lat="45.34787" lon="5.9498">
        <ele>238</ele>
        <time>2014-10-30T14:38:18Z</time>
      </trkpt>
      <trkpt lat="45.34808" lon="5.94972">
        <ele>238</ele>
        <time>2014-10-30T14:38:23Z</time>
      </trkpt>
      <trkpt lat="45.34825" lon="5.94967">
        <ele>238</ele>
        <time>2014-10-30T14:38:27Z</time>
      </trkpt>
      <trkpt lat="45.34844" lon="5.94963">
        <ele>239</ele>
        <time>2014-10-30T14:38:31Z</time>
      </trkpt>
      <trkpt lat="45.34866" lon="5.94964">
        <ele>239</ele>
        <time>2014-10-30T14:38:36Z</time>
      </trkpt>
      <trkpt lat="45.34888" lon="5.9497">
        <ele>239</ele>
        <time>2014-10-30T14:38:41Z</time>
      </trkpt>
      <trkpt lat="45.34905" lon="5.94974">
        <ele>239</ele>
        <time>2014-10-30T14:38:45Z</time>
      </trkpt>
      <trkpt lat="45.34926" lon="5.94979">
        <ele>240</ele>
        <time>2014-10-30T14:38:50Z</time>
      </trkpt>
      <trkpt lat="45.34935" lon="5.95002">
        <ele>240</ele>
        <time>2014-10-30T14:38:58Z</time>
      </trkpt>
      <trkpt lat="45.34926" lon="5.95029">
        <ele>240</ele>
        <time>2014-10-30T14:39:03Z</time>
      </trkpt>
      <trkpt lat="45.34917" lon="5.95054">
        <ele>241</ele>
        <time>2014-10-30T14:39:07Z</time>
      </trkpt>
      <trkpt lat="45.34909" lon="5.95078">
        <ele>241</ele>
        <time>2014-10-30T14:39:11Z</time>
      </trkpt>
      <trkpt lat="45.349" lon="5.95104">
        <ele>240</ele>
        <time>2014-10-30T14:39:15Z</time>
      </trkpt>
      <trkpt lat="45.34892" lon="5.95129">
        <ele>240</ele>
        <time>2014-10-30T14:39:19Z</time>
      </trkpt>
      <trkpt lat="45.34881" lon="5.95157">
        <ele>240</ele>
        <time>2014-10-30T14:39:24Z</time>
      </trkpt>
      <trkpt lat="45.34889" lon="5.95133">
        <ele>240</ele>
        <time>2014-10-30T14:39:50Z</time>
      </trkpt>
      <trkpt lat="45.34899" lon="5.95109">
        <ele>240</ele>
        <time>2014-10-30T14:39:55Z</time>
      </trkpt>
      <trkpt lat="45.34909" lon="5.95083">
        <ele>241</ele>
        <time>2014-10-30T14:40:00Z</time>
      </trkpt>
      <trkpt lat="45.34919" lon="5.95055">
        <ele>241</ele>
        <time>2014-10-30T14:40:05Z</time>
      </trkpt>
      <trkpt lat="45.34929" lon="5.95027">
        <ele>240</ele>
        <time>2014-10-30T14:40:10Z</time>
      </trkpt>
      <trkpt lat="45.3494" lon="5.95001">
        <ele>240</ele>
        <time>2014-10-30T14:40:15Z</time>
      </trkpt>
      <trkpt lat="45.34957" lon="5.9499">
        <ele>240</ele>
        <time>2014-10-30T14:40:20Z</time>
      </trkpt>
      <trkpt lat="45.34978" lon="5.94994">
        <ele>240</ele>
        <time>2014-10-30T14:40:25Z</time>
      </trkpt>
      <trkpt lat="45.34998" lon="5.94999">
        <ele>241</ele>
        <time>2014-10-30T14:40:30Z</time>
      </trkpt>
      <trkpt lat="45.35014" lon="5.9498">
        <ele>240</ele>
        <time>2014-10-30T14:40:35Z</time>
      </trkpt>
      <trkpt lat="45.35022" lon="5.9495">
        <ele>240</ele>
        <time>2014-10-30T14:40:40Z</time>
      </trkpt>
      <trkpt lat="45.3503" lon="5.94922">
        <ele>240</ele>
        <time>2014-10-30T14:40:45Z</time>
      </trkpt>
      <trkpt lat="45.35037" lon="5.94893">
        <ele>240</ele>
        <time>2014-10-30T14:40:50Z</time>
      </trkpt>
      <trkpt lat="45.35044" lon="5.94865">
        <ele>240</ele>
        <time>2014-10-30T14:40:55Z</time>
      </trkpt>
      <trkpt lat="45.3505" lon="5.94836">
        <ele>241</ele>
        <time>2014-10-30T14:41:00Z</time>
      </trkpt>
      <trkpt lat="45.35058" lon="5.94808">
        <ele>242</ele>
        <time>2014-10-30T14:41:05Z</time>
      </trkpt>
      <trkpt lat="45.35069" lon="5.94781">
        <ele>242</ele>
        <time>2014-10-30T14:41:10Z</time>
      </trkpt>
      <trkpt lat="45.3508" lon="5.94755">
        <ele>243</ele>
        <time>2014-10-30T14:41:15Z</time>
      </trkpt>
      <trkpt lat="45.35092" lon="5.94732">
        <ele>244</ele>
        <time>2014-10-30T14:41:20Z</time>
      </trkpt>
      <trkpt lat="45.35111" lon="5.94739">
        <ele>244</ele>
        <time>2014-10-30T14:41:26Z</time>
      </trkpt>
      <trkpt lat="45.35129" lon="5.9475">
        <ele>244</ele>
        <time>2014-10-30T14:41:31Z</time>
      </trkpt>
      <trkpt lat="45.35148" lon="5.94762">
        <ele>243</ele>
        <time>2014-10-30T14:41:36Z</time>
      </trkpt>
      <trkpt lat="45.35166" lon="5.94751">
        <ele>243</ele>
        <time>2014-10-30T14:41:45Z</time>
      </trkpt>
      <trkpt lat="45.3518" lon="5.94735">
        <ele>243</ele>
        <time>2014-10-30T14:41:51Z</time>
      </trkpt>
      <trkpt lat="45.352" lon="5.94738">
        <ele>242</ele>
        <time>2014-10-30T14:41:56Z</time>
      </trkpt>
      <trkpt lat="45.35221" lon="5.94743">
        <ele>242</ele>
        <time>2014-10-30T14:42:01Z</time>
      </trkpt>
      <trkpt lat="45.35241" lon="5.94748">
        <ele>241</ele>
        <time>2014-10-30T14:42:06Z</time>
      </trkpt>
      <trkpt lat="45.35261" lon="5.9475">
        <ele>241</ele>
        <time>2014-10-30T14:42:11Z</time>
      </trkpt>
      <trkpt lat="45.35281" lon="5.94755">
        <ele>241</ele>
        <time>2014-10-30T14:42:16Z</time>
      </trkpt>
      <trkpt lat="45.35299" lon="5.9476">
        <ele>242</ele>
        <time>2014-10-30T14:42:20Z</time>
      </trkpt>
      <trkpt lat="45.35317" lon="5.94766">
        <ele>242</ele>
        <time>2014-10-30T14:42:24Z</time>
      </trkpt>
      <trkpt lat="45.35334" lon="5.94774">
        <ele>244</ele>
        <time>2014-10-30T14:42:28Z</time>
      </trkpt>
      <trkpt lat="45.35352" lon="5.94787">
        <ele>244</ele>
        <time>2014-10-30T14:42:33Z</time>
      </trkpt>
      <trkpt lat="45.35371" lon="5.94799">
        <ele>245</ele>
        <time>2014-10-30T14:42:38Z</time>
      </trkpt>
      <trkpt lat="45.35391" lon="5.9481">
        <ele>245</ele>
        <time>2014-10-30T14:42:43Z</time>
      </trkpt>
      <trkpt lat="45.3541" lon="5.94821">
        <ele>245</ele>
        <time>2014-10-30T14:42:48Z</time>
      </trkpt>
      <trkpt lat="45.35427" lon="5.94834">
        <ele>245</ele>
        <time>2014-10-30T14:42:53Z</time>
      </trkpt>
      <trkpt lat="45.35445" lon="5.94847">
        <ele>246</ele>
        <time>2014-10-30T14:42:58Z</time>
      </trkpt>
      <trkpt lat="45.35462" lon="5.94862">
        <ele>246</ele>
        <time>2014-10-30T14:43:03Z</time>
      </trkpt>
      <trkpt lat="45.35477" lon="5.9488">
        <ele>246</ele>
        <time>2014-10-30T14:43:08Z</time>
      </trkpt>
      <trkpt lat="45.35493" lon="5.94896">
        <ele>247</ele>
        <time>2014-10-30T14:43:13Z</time>
      </trkpt>
      <trkpt lat="45.3551" lon="5.9491">
        <ele>249</ele>
        <time>2014-10-30T14:43:32Z</time>
      </trkpt>
      <trkpt lat="45.35524" lon="5.94926">
        <ele>249</ele>
        <time>2014-10-30T14:43:39Z</time>
      </trkpt>
      <trkpt lat="45.35541" lon="5.94943">
        <ele>250</ele>
        <time>2014-10-30T14:43:46Z</time>
      </trkpt>
      <trkpt lat="45.35557" lon="5.9496">
        <ele>250</ele>
        <time>2014-10-30T14:43:53Z</time>
      </trkpt>
      <trkpt lat="45.35572" lon="5.94974">
        <ele>250</ele>
        <time>2014-10-30T14:44:00Z</time>
      </trkpt>
      <trkpt lat="45.35586" lon="5.94992">
        <ele>252</ele>
        <time>2014-10-30T14:44:07Z</time>
      </trkpt>
      <trkpt lat="45.35601" lon="5.95008">
        <ele>254</ele>
        <time>2014-10-30T14:44:44Z</time>
      </trkpt>
      <trkpt lat="45.35615" lon="5.95022">
        <ele>255</ele>
        <time>2014-10-30T14:44:52Z</time>
      </trkpt>
      <trkpt lat="45.3563" lon="5.95039">
        <ele>256</ele>
        <time>2014-10-30T14:45:00Z</time>
      </trkpt>
      <trkpt lat="45.35646" lon="5.95056">
        <ele>257</ele>
        <time>2014-10-30T14:45:09Z</time>
      </trkpt>
      <trkpt lat="45.35662" lon="5.95074">
        <ele>259</ele>
        <time>2014-10-30T14:45:17Z</time>
      </trkpt>
      <trkpt lat="45.35677" lon="5.9509">
        <ele>261</ele>
        <time>2014-10-30T14:45:25Z</time>
      </trkpt>
      <trkpt lat="45.35693" lon="5.95104">
        <ele>263</ele>
        <time>2014-10-30T14:45:34Z</time>
      </trkpt>
      <trkpt lat="45.35709" lon="5.9512">
        <ele>263</ele>
        <time>2014-10-30T14:45:43Z</time>
      </trkpt>
      <trkpt lat="45.35725" lon="5.95134">
        <ele>264</ele>
        <time>2014-10-30T14:45:52Z</time>
      </trkpt>
      <trkpt lat="45.35742" lon="5.95144">
        <ele>264</ele>
        <time>2014-10-30T14:46:01Z</time>
      </trkpt>
      <trkpt lat="45.3576" lon="5.95155">
        <ele>267</ele>
        <time>2014-10-30T14:46:10Z</time>
      </trkpt>
      <trkpt lat="45.35778" lon="5.95163">
        <ele>268</ele>
        <time>2014-10-30T14:46:18Z</time>
      </trkpt>
      <trkpt lat="45.35796" lon="5.95171">
        <ele>269</ele>
        <time>2014-10-30T14:46:27Z</time>
      </trkpt>
      <trkpt lat="45.35814" lon="5.95181">
        <ele>269</ele>
        <time>2014-10-30T14:46:35Z</time>
      </trkpt>
      <trkpt lat="45.35833" lon="5.95182">
        <ele>270</ele>
        <time>2014-10-30T14:46:44Z</time>
      </trkpt>
      <trkpt lat="45.3585" lon="5.95173">
        <ele>273</ele>
        <time>2014-10-30T14:46:52Z</time>
      </trkpt>
      <trkpt lat="45.3587" lon="5.95167">
        <ele>274</ele>
        <time>2014-10-30T14:47:01Z</time>
      </trkpt>
      <trkpt lat="45.35888" lon="5.95157">
        <ele>275</ele>
        <time>2014-10-30T14:47:09Z</time>
      </trkpt>
      <trkpt lat="45.35906" lon="5.9515">
        <ele>275</ele>
        <time>2014-10-30T14:47:16Z</time>
      </trkpt>
      <trkpt lat="45.35925" lon="5.95145">
        <ele>277</ele>
        <time>2014-10-30T14:47:23Z</time>
      </trkpt>
      <trkpt lat="45.35944" lon="5.9514">
        <ele>278</ele>
        <time>2014-10-30T14:47:32Z</time>
      </trkpt>
      <trkpt lat="45.3596" lon="5.95123">
        <ele>278</ele>
        <time>2014-10-30T14:47:41Z</time>
      </trkpt>
      <trkpt lat="45.35977" lon="5.95109">
        <ele>278</ele>
        <time>2014-10-30T14:47:50Z</time>
      </trkpt>
      <trkpt lat="45.35995" lon="5.951">
        <ele>279</ele>
        <time>2014-10-30T14:47:58Z</time>
      </trkpt>
      <trkpt lat="45.36013" lon="5.9509">
        <ele>281</ele>
        <time>2014-10-30T14:48:06Z</time>
      </trkpt>
      <trkpt lat="45.36031" lon="5.95078">
        <ele>282</ele>
        <time>2014-10-30T14:48:14Z</time>
      </trkpt>
      <trkpt lat="45.36047" lon="5.95067">
        <ele>283</ele>
        <time>2014-10-30T14:48:21Z</time>
      </trkpt>
      <trkpt lat="45.36066" lon="5.95068">
        <ele>284</ele>
        <time>2014-10-30T14:48:29Z</time>
      </trkpt>
      <trkpt lat="45.36084" lon="5.95079">
        <ele>286</ele>
        <time>2014-10-30T14:48:38Z</time>
      </trkpt>
      <trkpt lat="45.36103" lon="5.95089">
        <ele>287</ele>
        <time>2014-10-30T14:48:48Z</time>
      </trkpt>
      <trkpt lat="45.36124" lon="5.95104">
        <ele>288</ele>
        <time>2014-10-30T14:48:56Z</time>
      </trkpt>
      <trkpt lat="45.36142" lon="5.95109">
        <ele>288</ele>
        <time>2014-10-30T14:49:05Z</time>
      </trkpt>
      <trkpt lat="45.36157" lon="5.95093">
        <ele>290</ele>
        <time>2014-10-30T14:49:17Z</time>
      </trkpt>
      <trkpt lat="45.36175" lon="5.95083">
        <ele>292</ele>
        <time>2014-10-30T14:49:26Z</time>
      </trkpt>
      <trkpt lat="45.36194" lon="5.9508">
        <ele>293</ele>
        <time>2014-10-30T14:49:34Z</time>
      </trkpt>
      <trkpt lat="45.36213" lon="5.95082">
        <ele>293</ele>
        <time>2014-10-30T14:49:43Z</time>
      </trkpt>
      <trkpt lat="45.36233" lon="5.9508">
        <ele>294</ele>
        <time>2014-10-30T14:49:53Z</time>
      </trkpt>
      <trkpt lat="45.36252" lon="5.95078">
        <ele>296</ele>
        <time>2014-10-30T14:50:03Z</time>
      </trkpt>
      <trkpt lat="45.36269" lon="5.95069">
        <ele>298</ele>
        <time>2014-10-30T14:50:13Z</time>
      </trkpt>
      <trkpt lat="45.36287" lon="5.9506">
        <ele>299</ele>
        <time>2014-10-30T14:50:24Z</time>
      </trkpt>
      <trkpt lat="45.36305" lon="5.95053">
        <ele>300</ele>
        <time>2014-10-30T14:50:34Z</time>
      </trkpt>
      <trkpt lat="45.36324" lon="5.95056">
        <ele>301</ele>
        <time>2014-10-30T14:50:44Z</time>
      </trkpt>
      <trkpt lat="45.36342" lon="5.95054">
        <ele>306</ele>
        <time>2014-10-30T14:50:53Z</time>
      </trkpt>
      <trkpt lat="45.36361" lon="5.95054">
        <ele>307</ele>
        <time>2014-10-30T14:51:01Z</time>
      </trkpt>
      <trkpt lat="45.36379" lon="5.95053">
        <ele>308</ele>
        <time>2014-10-30T14:51:12Z</time>
      </trkpt>
      <trkpt lat="45.36397" lon="5.95051">
        <ele>309</ele>
        <time>2014-10-30T14:51:23Z</time>
      </trkpt>
      <trkpt lat="45.36415" lon="5.9506">
        <ele>310</ele>
        <time>2014-10-30T14:51:35Z</time>
      </trkpt>
      <trkpt lat="45.36434" lon="5.95061">
        <ele>314</ele>
        <time>2014-10-30T14:51:44Z</time>
      </trkpt>
      <trkpt lat="45.36452" lon="5.95063">
        <ele>315</ele>
        <time>2014-10-30T14:51:53Z</time>
      </trkpt>
      <trkpt lat="45.36472" lon="5.95064">
        <ele>316</ele>
        <time>2014-10-30T14:52:01Z</time>
      </trkpt>
      <trkpt lat="45.36492" lon="5.95065">
        <ele>316</ele>
        <time>2014-10-30T14:52:09Z</time>
      </trkpt>
      <trkpt lat="45.3651" lon="5.95059">
        <ele>319</ele>
        <time>2014-10-30T14:52:17Z</time>
      </trkpt>
      <trkpt lat="45.36526" lon="5.95045">
        <ele>321</ele>
        <time>2014-10-30T14:52:26Z</time>
      </trkpt>
      <trkpt lat="45.36541" lon="5.95029">
        <ele>321</ele>
        <time>2014-10-30T14:52:34Z</time>
      </trkpt>
      <trkpt lat="45.36556" lon="5.95012">
        <ele>322</ele>
        <time>2014-10-30T14:52:43Z</time>
      </trkpt>
      <trkpt lat="45.36572" lon="5.94995">
        <ele>324</ele>
        <time>2014-10-30T14:52:53Z</time>
      </trkpt>
      <trkpt lat="45.36586" lon="5.94978">
        <ele>328</ele>
        <time>2014-10-30T14:53:02Z</time>
      </trkpt>
      <trkpt lat="45.36605" lon="5.94982">
        <ele>329</ele>
        <time>2014-10-30T14:53:12Z</time>
      </trkpt>
      <trkpt lat="45.36622" lon="5.94995">
        <ele>330</ele>
        <time>2014-10-30T14:53:20Z</time>
      </trkpt>
      <trkpt lat="45.3664" lon="5.95003">
        <ele>330</ele>
        <time>2014-10-30T14:53:28Z</time>
      </trkpt>
      <trkpt lat="45.36657" lon="5.94996">
        <ele>334</ele>
        <time>2014-10-30T14:53:37Z</time>
      </trkpt>
      <trkpt lat="45.36673" lon="5.94981">
        <ele>336</ele>
        <time>2014-10-30T14:53:48Z</time>
      </trkpt>
      <trkpt lat="45.36682" lon="5.94959">
        <ele>336</ele>
        <time>2014-10-30T14:53:58Z</time>
      </trkpt>
      <trkpt lat="45.36693" lon="5.94938">
        <ele>337</ele>
        <time>2014-10-30T14:54:07Z</time>
      </trkpt>
      <trkpt lat="45.36703" lon="5.94915">
        <ele>340</ele>
        <time>2014-10-30T14:54:17Z</time>
      </trkpt>
      <trkpt lat="45.36715" lon="5.94896">
        <ele>341</ele>
        <time>2014-10-30T14:54:26Z</time>
      </trkpt>
      <trkpt lat="45.36729" lon="5.9488">
        <ele>342</ele>
        <time>2014-10-30T14:54:35Z</time>
      </trkpt>
      <trkpt lat="45.36744" lon="5.94864">
        <ele>343</ele>
        <time>2014-10-30T14:54:43Z</time>
      </trkpt>
      <trkpt lat="45.36757" lon="5.94842">
        <ele>347</ele>
        <time>2014-10-30T14:54:52Z</time>
      </trkpt>
      <trkpt lat="45.36764" lon="5.94818">
        <ele>351</ele>
        <time>2014-10-30T14:55:00Z</time>
      </trkpt>
      <trkpt lat="45.36776" lon="5.94798">
        <ele>352</ele>
        <time>2014-10-30T14:55:08Z</time>
      </trkpt>
      <trkpt lat="45.36788" lon="5.94775">
        <ele>353</ele>
        <time>2014-10-30T14:55:19Z</time>
      </trkpt>
      <trkpt lat="45.36803" lon="5.94758">
        <ele>355</ele>
        <time>2014-10-30T14:55:31Z</time>
      </trkpt>
      <trkpt lat="45.36817" lon="5.9474">
        <ele>358</ele>
        <time>2014-10-30T14:55:43Z</time>
      </trkpt>
      <trkpt lat="45.36835" lon="5.94734">
        <ele>362</ele>
        <time>2014-10-30T14:55:57Z</time>
      </trkpt>
      <trkpt lat="45.36853" lon="5.94742">
        <ele>362</ele>
        <time>2014-10-30T14:56:09Z</time>
      </trkpt>
      <trkpt lat="45.36871" lon="5.94738">
        <ele>363</ele>
        <time>2014-10-30T14:56:18Z</time>
      </trkpt>
      <trkpt lat="45.36888" lon="5.94749">
        <ele>363</ele>
        <time>2014-10-30T14:56:26Z</time>
      </trkpt>
      <trkpt lat="45.36894" lon="5.94777">
        <ele>360</ele>
        <time>2014-10-30T14:56:35Z</time>
      </trkpt>
      <trkpt lat="45.36912" lon="5.94795">
        <ele>359</ele>
        <time>2014-10-30T14:56:41Z</time>
      </trkpt>
      <trkpt lat="45.36932" lon="5.94803">
        <ele>360</ele>
        <time>2014-10-30T14:56:48Z</time>
      </trkpt>
      <trkpt lat="45.36951" lon="5.94809">
        <ele>360</ele>
        <time>2014-10-30T14:56:54Z</time>
      </trkpt>
      <trkpt lat="45.36972" lon="5.94811">
        <ele>360</ele>
        <time>2014-10-30T14:57:00Z</time>
      </trkpt>
      <trkpt lat="45.36991" lon="5.94811">
        <ele>359</ele>
        <time>2014-10-30T14:57:06Z</time>
      </trkpt>
      <trkpt lat="45.37011" lon="5.94815">
        <ele>360</ele>
        <time>2014-10-30T14:57:14Z</time>
      </trkpt>
      <trkpt lat="45.3703" lon="5.94813">
        <ele>361</ele>
        <time>2014-10-30T14:57:20Z</time>
      </trkpt>
      <trkpt lat="45.37049" lon="5.94811">
        <ele>362</ele>
        <time>2014-10-30T14:57:26Z</time>
      </trkpt>
      <trkpt lat="45.37067" lon="5.94813">
        <ele>362</ele>
        <time>2014-10-30T14:57:31Z</time>
      </trkpt>
      <trkpt lat="45.37088" lon="5.94815">
        <ele>362</ele>
        <time>2014-10-30T14:57:36Z</time>
      </trkpt>
      <trkpt lat="45.37108" lon="5.94822">
        <ele>363</ele>
        <time>2014-10-30T14:57:41Z</time>
      </trkpt>
      <trkpt lat="45.37126" lon="5.94835">
        <ele>358</ele>
        <time>2014-10-30T14:57:46Z</time>
      </trkpt>
      <trkpt lat="45.37143" lon="5.94852">
        <ele>358</ele>
        <time>2014-10-30T14:57:51Z</time>
      </trkpt>
      <trkpt lat="45.3716" lon="5.94862">
        <ele>357</ele>
        <time>2014-10-30T14:57:55Z</time>
      </trkpt>
      <trkpt lat="45.37182" lon="5.94865">
        <ele>357</ele>
        <time>2014-10-30T14:58:00Z</time>
      </trkpt>
      <trkpt lat="45.37203" lon="5.94863">
        <ele>357</ele>
        <time>2014-10-30T14:58:05Z</time>
      </trkpt>
      <trkpt lat="45.37223" lon="5.94862">
        <ele>357</ele>
        <time>2014-10-30T14:58:10Z</time>
      </trkpt>
      <trkpt lat="45.37243" lon="5.94854">
        <ele>358</ele>
        <time>2014-10-30T14:58:15Z</time>
      </trkpt>
      <trkpt lat="45.37261" lon="5.94853">
        <ele>356</ele>
        <time>2014-10-30T14:58:19Z</time>
      </trkpt>
      <trkpt lat="45.37279" lon="5.94855">
        <ele>356</ele>
        <time>2014-10-30T14:58:22Z</time>
      </trkpt>
      <trkpt lat="45.37302" lon="5.94857">
        <ele>355</ele>
        <time>2014-10-30T14:58:25Z</time>
      </trkpt>
      <trkpt lat="45.37324" lon="5.94854">
        <ele>355</ele>
        <time>2014-10-30T14:58:28Z</time>
      </trkpt>
      <trkpt lat="45.37343" lon="5.94858">
        <ele>353</ele>
        <time>2014-10-30T14:58:31Z</time>
      </trkpt>
      <trkpt lat="45.37356" lon="5.94881">
        <ele>352</ele>
        <time>2014-10-30T14:58:35Z</time>
      </trkpt>
      <trkpt lat="45.37378" lon="5.94885">
        <ele>352</ele>
        <time>2014-10-30T14:58:39Z</time>
      </trkpt>
      <trkpt lat="45.374" lon="5.94886">
        <ele>352</ele>
        <time>2014-10-30T14:58:43Z</time>
      </trkpt>
      <trkpt lat="45.37423" lon="5.94888">
        <ele>351</ele>
        <time>2014-10-30T14:58:47Z</time>
      </trkpt>
      <trkpt lat="45.37444" lon="5.94895">
        <ele>351</ele>
        <time>2014-10-30T14:58:51Z</time>
      </trkpt>
      <trkpt lat="45.37462" lon="5.94903">
        <ele>350</ele>
        <time>2014-10-30T14:58:55Z</time>
      </trkpt>
      <trkpt lat="45.37482" lon="5.94912">
        <ele>350</ele>
        <time>2014-10-30T14:59:00Z</time>
      </trkpt>
      <trkpt lat="45.37502" lon="5.94914">
        <ele>349</ele>
        <time>2014-10-30T14:59:07Z</time>
      </trkpt>
      <trkpt lat="45.37522" lon="5.94908">
        <ele>351</ele>
        <time>2014-10-30T14:59:15Z</time>
      </trkpt>
      <trkpt lat="45.37541" lon="5.9491">
        <ele>352</ele>
        <time>2014-10-30T14:59:22Z</time>
      </trkpt>
      <trkpt lat="45.37561" lon="5.94911">
        <ele>353</ele>
        <time>2014-10-30T14:59:28Z</time>
      </trkpt>
      <trkpt lat="45.37582" lon="5.94911">
        <ele>352</ele>
        <time>2014-10-30T14:59:34Z</time>
      </trkpt>
      <trkpt lat="45.376" lon="5.94911">
        <ele>355</ele>
        <time>2014-10-30T14:59:39Z</time>
      </trkpt>
      <trkpt lat="45.37619" lon="5.94913">
        <ele>356</ele>
        <time>2014-10-30T14:59:44Z</time>
      </trkpt>
      <trkpt lat="45.37638" lon="5.9492">
        <ele>350</ele>
        <time>2014-10-30T14:59:48Z</time>
      </trkpt>
      <trkpt lat="45.37659" lon="5.94928">
        <ele>351</ele>
        <time>2014-10-30T14:59:52Z</time>
      </trkpt>
      <trkpt lat="45.37677" lon="5.94929">
        <ele>351</ele>
        <time>2014-10-30T14:59:56Z</time>
      </trkpt>
      <trkpt lat="45.37698" lon="5.94937">
        <ele>350</ele>
        <time>2014-10-30T15:00:01Z</time>
      </trkpt>
      <trkpt lat="45.37718" lon="5.94949">
        <ele>349</ele>
        <time>2014-10-30T15:00:06Z</time>
      </trkpt>
      <trkpt lat="45.37739" lon="5.94959">
        <ele>349</ele>
        <time>2014-10-30T15:00:11Z</time>
      </trkpt>
      <trkpt lat="45.37758" lon="5.94969">
        <ele>349</ele>
        <time>2014-10-30T15:00:16Z</time>
      </trkpt>
      <trkpt lat="45.37776" lon="5.94975">
        <ele>349</ele>
        <time>2014-10-30T15:00:20Z</time>
      </trkpt>
      <trkpt lat="45.37795" lon="5.94986">
        <ele>348</ele>
        <time>2014-10-30T15:00:25Z</time>
      </trkpt>
      <trkpt lat="45.37815" lon="5.95">
        <ele>347</ele>
        <time>2014-10-30T15:00:30Z</time>
      </trkpt>
      <trkpt lat="45.37833" lon="5.95012">
        <ele>344</ele>
        <time>2014-10-30T15:00:34Z</time>
      </trkpt>
      <trkpt lat="45.37853" lon="5.95021">
        <ele>344</ele>
        <time>2014-10-30T15:00:38Z</time>
      </trkpt>
      <trkpt lat="45.37873" lon="5.95023">
        <ele>345</ele>
        <time>2014-10-30T15:00:42Z</time>
      </trkpt>
      <trkpt lat="45.37892" lon="5.95025">
        <ele>345</ele>
        <time>2014-10-30T15:00:46Z</time>
      </trkpt>
      <trkpt lat="45.37911" lon="5.95021">
        <ele>346</ele>
        <time>2014-10-30T15:00:50Z</time>
      </trkpt>
      <trkpt lat="45.3793" lon="5.9502">
        <ele>346</ele>
        <time>2014-10-30T15:00:54Z</time>
      </trkpt>
      <trkpt lat="45.37949" lon="5.95019">
        <ele>345</ele>
        <time>2014-10-30T15:00:58Z</time>
      </trkpt>
      <trkpt lat="45.37969" lon="5.95018">
        <ele>345</ele>
        <time>2014-10-30T15:01:02Z</time>
      </trkpt>
      <trkpt lat="45.37988" lon="5.95021">
        <ele>345</ele>
        <time>2014-10-30T15:01:06Z</time>
      </trkpt>
      <trkpt lat="45.38007" lon="5.95023">
        <ele>346</ele>
        <time>2014-10-30T15:01:10Z</time>
      </trkpt>
      <trkpt lat="45.38026" lon="5.95028">
        <ele>346</ele>
        <time>2014-10-30T15:01:14Z</time>
      </trkpt>
      <trkpt lat="45.38045" lon="5.95036">
        <ele>346</ele>
        <time>2014-10-30T15:01:18Z</time>
      </trkpt>
      <trkpt lat="45.38063" lon="5.95048">
        <ele>346</ele>
        <time>2014-10-30T15:01:22Z</time>
      </trkpt>
      <trkpt lat="45.38078" lon="5.95064">
        <ele>345</ele>
        <time>2014-10-30T15:01:26Z</time>
      </trkpt>
      <trkpt lat="45.38097" lon="5.9508">
        <ele>347</ele>
        <time>2014-10-30T15:01:31Z</time>
      </trkpt>
      <trkpt lat="45.38115" lon="5.95095">
        <ele>344</ele>
        <time>2014-10-30T15:01:36Z</time>
      </trkpt>
      <trkpt lat="45.38134" lon="5.95105">
        <ele>345</ele>
        <time>2014-10-30T15:01:41Z</time>
      </trkpt>
      <trkpt lat="45.38153" lon="5.95118">
        <ele>345</ele>
        <time>2014-10-30T15:01:46Z</time>
      </trkpt>
      <trkpt lat="45.3817" lon="5.95131">
        <ele>350</ele>
        <time>2014-10-30T15:01:51Z</time>
      </trkpt>
      <trkpt lat="45.38188" lon="5.95147">
        <ele>349</ele>
        <time>2014-10-30T15:01:56Z</time>
      </trkpt>
      <trkpt lat="45.38203" lon="5.9516">
        <ele>350</ele>
        <time>2014-10-30T15:02:00Z</time>
      </trkpt>
      <trkpt lat="45.38221" lon="5.95175">
        <ele>348</ele>
        <time>2014-10-30T15:02:05Z</time>
      </trkpt>
      <trkpt lat="45.38239" lon="5.95189">
        <ele>349</ele>
        <time>2014-10-30T15:02:10Z</time>
      </trkpt>
      <trkpt lat="45.38253" lon="5.95207">
        <ele>352</ele>
        <time>2014-10-30T15:02:15Z</time>
      </trkpt>
      <trkpt lat="45.3827" lon="5.9522">
        <ele>352</ele>
        <time>2014-10-30T15:02:21Z</time>
      </trkpt>
      <trkpt lat="45.3829" lon="5.95233">
        <ele>352</ele>
        <time>2014-10-30T15:02:27Z</time>
      </trkpt>
      <trkpt lat="45.3831" lon="5.95238">
        <ele>353</ele>
        <time>2014-10-30T15:02:33Z</time>
      </trkpt>
      <trkpt lat="45.38331" lon="5.95238">
        <ele>353</ele>
        <time>2014-10-30T15:02:39Z</time>
      </trkpt>
      <trkpt lat="45.38351" lon="5.95227">
        <ele>355</ele>
        <time>2014-10-30T15:02:45Z</time>
      </trkpt>
      <trkpt lat="45.3837" lon="5.95214">
        <ele>355</ele>
        <time>2014-10-30T15:02:51Z</time>
      </trkpt>
      <trkpt lat="45.38388" lon="5.95207">
        <ele>356</ele>
        <time>2014-10-30T15:02:56Z</time>
      </trkpt>
      <trkpt lat="45.38408" lon="5.95205">
        <ele>356</ele>
        <time>2014-10-30T15:03:01Z</time>
      </trkpt>
      <trkpt lat="45.38428" lon="5.95208">
        <ele>359</ele>
        <time>2014-10-30T15:03:06Z</time>
      </trkpt>
      <trkpt lat="45.38446" lon="5.95215">
        <ele>359</ele>
        <time>2014-10-30T15:03:11Z</time>
      </trkpt>
      <trkpt lat="45.38464" lon="5.95227">
        <ele>360</ele>
        <time>2014-10-30T15:03:16Z</time>
      </trkpt>
      <trkpt lat="45.38481" lon="5.95238">
        <ele>360</ele>
        <time>2014-10-30T15:03:21Z</time>
      </trkpt>
      <trkpt lat="45.38499" lon="5.95249">
        <ele>360</ele>
        <time>2014-10-30T15:03:26Z</time>
      </trkpt>
      <trkpt lat="45.38519" lon="5.95261">
        <ele>359</ele>
        <time>2014-10-30T15:03:32Z</time>
      </trkpt>
      <trkpt lat="45.38538" lon="5.95272">
        <ele>359</ele>
        <time>2014-10-30T15:03:38Z</time>
      </trkpt>
      <trkpt lat="45.38556" lon="5.95283">
        <ele>360</ele>
        <time>2014-10-30T15:03:44Z</time>
      </trkpt>
      <trkpt lat="45.38576" lon="5.95289">
        <ele>360</ele>
        <time>2014-10-30T15:03:50Z</time>
      </trkpt>
      <trkpt lat="45.38595" lon="5.95294">
        <ele>366</ele>
        <time>2014-10-30T15:03:55Z</time>
      </trkpt>
      <trkpt lat="45.38616" lon="5.95296">
        <ele>368</ele>
        <time>2014-10-30T15:04:01Z</time>
      </trkpt>
      <trkpt lat="45.38632" lon="5.95314">
        <ele>369</ele>
        <time>2014-10-30T15:04:08Z</time>
      </trkpt>
      <trkpt lat="45.38626" lon="5.95338">
        <ele>370</ele>
        <time>2014-10-30T15:04:15Z</time>
      </trkpt>
      <trkpt lat="45.38613" lon="5.95361">
        <ele>369</ele>
        <time>2014-10-30T15:04:22Z</time>
      </trkpt>
      <trkpt lat="45.38598" lon="5.95383">
        <ele>368</ele>
        <time>2014-10-30T15:04:28Z</time>
      </trkpt>
      <trkpt lat="45.38584" lon="5.95402">
        <ele>367</ele>
        <time>2014-10-30T15:04:35Z</time>
      </trkpt>
      <trkpt lat="45.38571" lon="5.95419">
        <ele>362</ele>
        <time>2014-10-30T15:04:40Z</time>
      </trkpt>
      <trkpt lat="45.38558" lon="5.95442">
        <ele>360</ele>
        <time>2014-10-30T15:04:46Z</time>
      </trkpt>
      <trkpt lat="45.38551" lon="5.95467">
        <ele>360</ele>
        <time>2014-10-30T15:04:52Z</time>
      </trkpt>
      <trkpt lat="45.38556" lon="5.95493">
        <ele>362</ele>
        <time>2014-10-30T15:04:58Z</time>
      </trkpt>
      <trkpt lat="45.38568" lon="5.95513">
        <ele>363</ele>
        <time>2014-10-30T15:05:03Z</time>
      </trkpt>
      <trkpt lat="45.38581" lon="5.95538">
        <ele>361</ele>
        <time>2014-10-30T15:05:09Z</time>
      </trkpt>
      <trkpt lat="45.38594" lon="5.95555">
        <ele>369</ele>
        <time>2014-10-30T15:05:14Z</time>
      </trkpt>
      <trkpt lat="45.38611" lon="5.95572">
        <ele>370</ele>
        <time>2014-10-30T15:05:20Z</time>
      </trkpt>
      <trkpt lat="45.38628" lon="5.95587">
        <ele>367</ele>
        <time>2014-10-30T15:05:25Z</time>
      </trkpt>
      <trkpt lat="45.38644" lon="5.95604">
        <ele>369</ele>
        <time>2014-10-30T15:05:31Z</time>
      </trkpt>
      <trkpt lat="45.38658" lon="5.95622">
        <ele>368</ele>
        <time>2014-10-30T15:05:37Z</time>
      </trkpt>
      <trkpt lat="45.38675" lon="5.9564">
        <ele>376</ele>
        <time>2014-10-30T15:05:44Z</time>
      </trkpt>
      <trkpt lat="45.3869" lon="5.95658">
        <ele>376</ele>
        <time>2014-10-30T15:05:52Z</time>
      </trkpt>
      <trkpt lat="45.38705" lon="5.95674">
        <ele>374</ele>
        <time>2014-10-30T15:05:58Z</time>
      </trkpt>
      <trkpt lat="45.38719" lon="5.9569">
        <ele>375</ele>
        <time>2014-10-30T15:06:04Z</time>
      </trkpt>
      <trkpt lat="45.38732" lon="5.95711">
        <ele>375</ele>
        <time>2014-10-30T15:06:10Z</time>
      </trkpt>
      <trkpt lat="45.38743" lon="5.95732">
        <ele>376</ele>
        <time>2014-10-30T15:06:16Z</time>
      </trkpt>
      <trkpt lat="45.38756" lon="5.95754">
        <ele>379</ele>
        <time>2014-10-30T15:06:23Z</time>
      </trkpt>
      <trkpt lat="45.38767" lon="5.95774">
        <ele>380</ele>
        <time>2014-10-30T15:06:30Z</time>
      </trkpt>
      <trkpt lat="45.38781" lon="5.95795">
        <ele>380</ele>
        <time>2014-10-30T15:06:37Z</time>
      </trkpt>
      <trkpt lat="45.38796" lon="5.95814">
        <ele>381</ele>
        <time>2014-10-30T15:06:45Z</time>
      </trkpt>
      <trkpt lat="45.38814" lon="5.95826">
        <ele>382</ele>
        <time>2014-10-30T15:06:53Z</time>
      </trkpt>
      <trkpt lat="45.38833" lon="5.95837">
        <ele>383</ele>
        <time>2014-10-30T15:07:00Z</time>
      </trkpt>
      <trkpt lat="45.3885" lon="5.95852">
        <ele>387</ele>
        <time>2014-10-30T15:07:07Z</time>
      </trkpt>
      <trkpt lat="45.38863" lon="5.95871">
        <ele>387</ele>
        <time>2014-10-30T15:07:15Z</time>
      </trkpt>
      <trkpt lat="45.38876" lon="5.9589">
        <ele>388</ele>
        <time>2014-10-30T15:07:22Z</time>
      </trkpt>
      <trkpt lat="45.3889" lon="5.95909">
        <ele>389</ele>
        <time>2014-10-30T15:07:29Z</time>
      </trkpt>
      <trkpt lat="45.38904" lon="5.95927">
        <ele>389</ele>
        <time>2014-10-30T15:07:35Z</time>
      </trkpt>
      <trkpt lat="45.38918" lon="5.95946">
        <ele>395</ele>
        <time>2014-10-30T15:07:42Z</time>
      </trkpt>
      <trkpt lat="45.38932" lon="5.95963">
        <ele>395</ele>
        <time>2014-10-30T15:07:50Z</time>
      </trkpt>
      <trkpt lat="45.38949" lon="5.95976">
        <ele>395</ele>
        <time>2014-10-30T15:07:57Z</time>
      </trkpt>
      <trkpt lat="45.38967" lon="5.95991">
        <ele>397</ele>
        <time>2014-10-30T15:08:04Z</time>
      </trkpt>
      <trkpt lat="45.38985" lon="5.96001">
        <ele>397</ele>
        <time>2014-10-30T15:08:10Z</time>
      </trkpt>
      <trkpt lat="45.39003" lon="5.96011">
        <ele>401</ele>
        <time>2014-10-30T15:08:17Z</time>
      </trkpt>
      <trkpt lat="45.3902" lon="5.96021">
        <ele>402</ele>
        <time>2014-10-30T15:08:24Z</time>
      </trkpt>
      <trkpt lat="45.39039" lon="5.96031">
        <ele>403</ele>
        <time>2014-10-30T15:08:31Z</time>
      </trkpt>
      <trkpt lat="45.39058" lon="5.96041">
        <ele>404</ele>
        <time>2014-10-30T15:08:39Z</time>
      </trkpt>
      <trkpt lat="45.39077" lon="5.96051">
        <ele>404</ele>
        <time>2014-10-30T15:08:47Z</time>
      </trkpt>
      <trkpt lat="45.39096" lon="5.96058">
        <ele>408</ele>
        <time>2014-10-30T15:08:54Z</time>
      </trkpt>
      <trkpt lat="45.39115" lon="5.96063">
        <ele>408</ele>
        <time>2014-10-30T15:09:01Z</time>
      </trkpt>
      <trkpt lat="45.39132" lon="5.96071">
        <ele>408</ele>
        <time>2014-10-30T15:09:06Z</time>
      </trkpt>
      <trkpt lat="45.3915" lon="5.96079">
        <ele>408</ele>
        <time>2014-10-30T15:09:11Z</time>
      </trkpt>
      <trkpt lat="45.3917" lon="5.96082">
        <ele>407</ele>
        <time>2014-10-30T15:09:17Z</time>
      </trkpt>
      <trkpt lat="45.39189" lon="5.96088">
        <ele>406</ele>
        <time>2014-10-30T15:09:22Z</time>
      </trkpt>
      <trkpt lat="45.39209" lon="5.96094">
        <ele>406</ele>
        <time>2014-10-30T15:09:27Z</time>
      </trkpt>
      <trkpt lat="45.39227" lon="5.96102">
        <ele>405</ele>
        <time>2014-10-30T15:09:32Z</time>
      </trkpt>
      <trkpt lat="45.39246" lon="5.96106">
        <ele>405</ele>
        <time>2014-10-30T15:09:36Z</time>
      </trkpt>
      <trkpt lat="45.39265" lon="5.96113">
        <ele>405</ele>
        <time>2014-10-30T15:09:40Z</time>
      </trkpt>
      <trkpt lat="45.39283" lon="5.96123">
        <ele>404</ele>
        <time>2014-10-30T15:09:45Z</time>
      </trkpt>
      <trkpt lat="45.393" lon="5.96132">
        <ele>404</ele>
        <time>2014-10-30T15:09:50Z</time>
      </trkpt>
      <trkpt lat="45.39318" lon="5.96142">
        <ele>404</ele>
        <time>2014-10-30T15:09:55Z</time>
      </trkpt>
      <trkpt lat="45.39336" lon="5.96152">
        <ele>403</ele>
        <time>2014-10-30T15:10:00Z</time>
      </trkpt>
      <trkpt lat="45.39352" lon="5.96163">
        <ele>404</ele>
        <time>2014-10-30T15:10:05Z</time>
      </trkpt>
      <trkpt lat="45.3937" lon="5.96178">
        <ele>404</ele>
        <time>2014-10-30T15:10:11Z</time>
      </trkpt>
      <trkpt lat="45.39384" lon="5.96193">
        <ele>405</ele>
        <time>2014-10-30T15:10:17Z</time>
      </trkpt>
      <trkpt lat="45.39402" lon="5.96209">
        <ele>406</ele>
        <time>2014-10-30T15:10:24Z</time>
      </trkpt>
      <trkpt lat="45.39419" lon="5.96226">
        <ele>408</ele>
        <time>2014-10-30T15:10:31Z</time>
      </trkpt>
      <trkpt lat="45.39436" lon="5.96241">
        <ele>408</ele>
        <time>2014-10-30T15:10:38Z</time>
      </trkpt>
      <trkpt lat="45.39454" lon="5.96253">
        <ele>412</ele>
        <time>2014-10-30T15:10:46Z</time>
      </trkpt>
      <trkpt lat="45.39473" lon="5.96259">
        <ele>412</ele>
        <time>2014-10-30T15:10:56Z</time>
      </trkpt>
      <trkpt lat="45.39494" lon="5.96265">
        <ele>412</ele>
        <time>2014-10-30T15:11:04Z</time>
      </trkpt>
      <trkpt lat="45.39512" lon="5.96269">
        <ele>413</ele>
        <time>2014-10-30T15:11:09Z</time>
      </trkpt>
      <trkpt lat="45.3953" lon="5.96274">
        <ele>414</ele>
        <time>2014-10-30T15:11:16Z</time>
      </trkpt>
      <trkpt lat="45.39547" lon="5.96282">
        <ele>414</ele>
        <time>2014-10-30T15:11:23Z</time>
      </trkpt>
      <trkpt lat="45.39564" lon="5.96294">
        <ele>415</ele>
        <time>2014-10-30T15:11:31Z</time>
      </trkpt>
      <trkpt lat="45.39581" lon="5.96306">
        <ele>415</ele>
        <time>2014-10-30T15:11:37Z</time>
      </trkpt>
      <trkpt lat="45.39598" lon="5.96317">
        <ele>416</ele>
        <time>2014-10-30T15:11:43Z</time>
      </trkpt>
      <trkpt lat="45.39617" lon="5.96327">
        <ele>416</ele>
        <time>2014-10-30T15:11:49Z</time>
      </trkpt>
      <trkpt lat="45.39635" lon="5.96329">
        <ele>416</ele>
        <time>2014-10-30T15:11:55Z</time>
      </trkpt>
      <trkpt lat="45.39653" lon="5.96326">
        <ele>417</ele>
        <time>2014-10-30T15:12:01Z</time>
      </trkpt>
      <trkpt lat="45.39674" lon="5.9632">
        <ele>418</ele>
        <time>2014-10-30T15:12:08Z</time>
      </trkpt>
      <trkpt lat="45.39694" lon="5.96317">
        <ele>417</ele>
        <time>2014-10-30T15:12:14Z</time>
      </trkpt>
      <trkpt lat="45.39715" lon="5.96318">
        <ele>418</ele>
        <time>2014-10-30T15:12:20Z</time>
      </trkpt>
      <trkpt lat="45.39734" lon="5.96323">
        <ele>418</ele>
        <time>2014-10-30T15:12:25Z</time>
      </trkpt>
      <trkpt lat="45.39753" lon="5.96328">
        <ele>420</ele>
        <time>2014-10-30T15:12:30Z</time>
      </trkpt>
      <trkpt lat="45.3977" lon="5.96333">
        <ele>420</ele>
        <time>2014-10-30T15:12:35Z</time>
      </trkpt>
      <trkpt lat="45.39791" lon="5.96339">
        <ele>423</ele>
        <time>2014-10-30T15:12:41Z</time>
      </trkpt>
      <trkpt lat="45.39811" lon="5.96345">
        <ele>423</ele>
        <time>2014-10-30T15:12:47Z</time>
      </trkpt>
      <trkpt lat="45.39829" lon="5.96352">
        <ele>423</ele>
        <time>2014-10-30T15:12:53Z</time>
      </trkpt>
      <trkpt lat="45.39849" lon="5.96359">
        <ele>424</ele>
        <time>2014-10-30T15:12:59Z</time>
      </trkpt>
      <trkpt lat="45.39868" lon="5.9637">
        <ele>425</ele>
        <time>2014-10-30T15:13:05Z</time>
      </trkpt>
      <trkpt lat="45.39887" lon="5.96383">
        <ele>425</ele>
        <time>2014-10-30T15:13:11Z</time>
      </trkpt>
      <trkpt lat="45.39906" lon="5.96398">
        <ele>426</ele>
        <time>2014-10-30T15:13:17Z</time>
      </trkpt>
      <trkpt lat="45.39924" lon="5.96412">
        <ele>426</ele>
        <time>2014-10-30T15:13:23Z</time>
      </trkpt>
      <trkpt lat="45.3994" lon="5.96425">
        <ele>427</ele>
        <time>2014-10-30T15:13:28Z</time>
      </trkpt>
      <trkpt lat="45.39958" lon="5.96437">
        <ele>427</ele>
        <time>2014-10-30T15:13:33Z</time>
      </trkpt>
      <trkpt lat="45.39979" lon="5.9644">
        <ele>426</ele>
        <time>2014-10-30T15:13:38Z</time>
      </trkpt>
      <trkpt lat="45.39999" lon="5.96432">
        <ele>426</ele>
        <time>2014-10-30T15:13:43Z</time>
      </trkpt>
      <trkpt lat="45.40017" lon="5.96417">
        <ele>425</ele>
        <time>2014-10-30T15:13:48Z</time>
      </trkpt>
      <trkpt lat="45.40032" lon="5.96401">
        <ele>428</ele>
        <time>2014-10-30T15:13:53Z</time>
      </trkpt>
      <trkpt lat="45.4005" lon="5.96391">
        <ele>428</ele>
        <time>2014-10-30T15:13:58Z</time>
      </trkpt>
      <trkpt lat="45.40069" lon="5.96381">
        <ele>429</ele>
        <time>2014-10-30T15:14:03Z</time>
      </trkpt>
      <trkpt lat="45.40087" lon="5.96382">
        <ele>431</ele>
        <time>2014-10-30T15:14:07Z</time>
      </trkpt>
      <trkpt lat="45.40106" lon="5.96386">
        <ele>431</ele>
        <time>2014-10-30T15:14:11Z</time>
      </trkpt>
      <trkpt lat="45.40126" lon="5.96392">
        <ele>431</ele>
        <time>2014-10-30T15:14:15Z</time>
      </trkpt>
      <trkpt lat="45.40147" lon="5.96397">
        <ele>430</ele>
        <time>2014-10-30T15:14:19Z</time>
      </trkpt>
      <trkpt lat="45.40166" lon="5.96401">
        <ele>429</ele>
        <time>2014-10-30T15:14:23Z</time>
      </trkpt>
      <trkpt lat="45.40186" lon="5.96403">
        <ele>431</ele>
        <time>2014-10-30T15:14:27Z</time>
      </trkpt>
      <trkpt lat="45.40205" lon="5.96406">
        <ele>431</ele>
        <time>2014-10-30T15:14:31Z</time>
      </trkpt>
      <trkpt lat="45.40223" lon="5.96409">
        <ele>431</ele>
        <time>2014-10-30T15:14:35Z</time>
      </trkpt>
      <trkpt lat="45.40241" lon="5.96413">
        <ele>429</ele>
        <time>2014-10-30T15:14:39Z</time>
      </trkpt>
      <trkpt lat="45.40262" lon="5.96418">
        <ele>424</ele>
        <time>2014-10-30T15:14:44Z</time>
      </trkpt>
      <trkpt lat="45.40284" lon="5.96417">
        <ele>422</ele>
        <time>2014-10-30T15:14:48Z</time>
      </trkpt>
      <trkpt lat="45.40304" lon="5.9642">
        <ele>422</ele>
        <time>2014-10-30T15:14:52Z</time>
      </trkpt>
      <trkpt lat="45.40325" lon="5.96426">
        <ele>423</ele>
        <time>2014-10-30T15:14:56Z</time>
      </trkpt>
      <trkpt lat="45.40344" lon="5.96436">
        <ele>422</ele>
        <time>2014-10-30T15:15:00Z</time>
      </trkpt>
      <trkpt lat="45.40364" lon="5.96442">
        <ele>422</ele>
        <time>2014-10-30T15:15:04Z</time>
      </trkpt>
      <trkpt lat="45.40385" lon="5.96449">
        <ele>421</ele>
        <time>2014-10-30T15:15:08Z</time>
      </trkpt>
      <trkpt lat="45.40405" lon="5.96459">
        <ele>421</ele>
        <time>2014-10-30T15:15:12Z</time>
      </trkpt>
      <trkpt lat="45.40426" lon="5.9647">
        <ele>422</ele>
        <time>2014-10-30T15:15:16Z</time>
      </trkpt>
      <trkpt lat="45.40447" lon="5.9648">
        <ele>422</ele>
        <time>2014-10-30T15:15:20Z</time>
      </trkpt>
      <trkpt lat="45.40467" lon="5.96488">
        <ele>422</ele>
        <time>2014-10-30T15:15:24Z</time>
      </trkpt>
      <trkpt lat="45.40485" lon="5.96497">
        <ele>421</ele>
        <time>2014-10-30T15:15:28Z</time>
      </trkpt>
      <trkpt lat="45.40503" lon="5.96506">
        <ele>419</ele>
        <time>2014-10-30T15:15:32Z</time>
      </trkpt>
      <trkpt lat="45.4052" lon="5.96514">
        <ele>420</ele>
        <time>2014-10-30T15:15:36Z</time>
      </trkpt>
      <trkpt lat="45.4054" lon="5.96525">
        <ele>421</ele>
        <time>2014-10-30T15:15:41Z</time>
      </trkpt>
      <trkpt lat="45.40559" lon="5.96534">
        <ele>421</ele>
        <time>2014-10-30T15:15:46Z</time>
      </trkpt>
      <trkpt lat="45.40578" lon="5.96541">
        <ele>421</ele>
        <time>2014-10-30T15:15:51Z</time>
      </trkpt>
      <trkpt lat="45.40596" lon="5.9655">
        <ele>424</ele>
        <time>2014-10-30T15:15:56Z</time>
      </trkpt>
      <trkpt lat="45.40615" lon="5.96556">
        <ele>425</ele>
        <time>2014-10-30T15:16:01Z</time>
      </trkpt>
      <trkpt lat="45.40634" lon="5.96561">
        <ele>425</ele>
        <time>2014-10-30T15:16:06Z</time>
      </trkpt>
      <trkpt lat="45.40656" lon="5.9656">
        <ele>425</ele>
        <time>2014-10-30T15:16:11Z</time>
      </trkpt>
      <trkpt lat="45.40674" lon="5.96558">
        <ele>427</ele>
        <time>2014-10-30T15:16:15Z</time>
      </trkpt>
      <trkpt lat="45.40695" lon="5.96561">
        <ele>428</ele>
        <time>2014-10-30T15:16:19Z</time>
      </trkpt>
      <trkpt lat="45.40714" lon="5.96572">
        <ele>429</ele>
        <time>2014-10-30T15:16:23Z</time>
      </trkpt>
      <trkpt lat="45.40728" lon="5.96594">
        <ele>423</ele>
        <time>2014-10-30T15:16:27Z</time>
      </trkpt>
      <trkpt lat="45.40733" lon="5.96621">
        <ele>421</ele>
        <time>2014-10-30T15:16:31Z</time>
      </trkpt>
      <trkpt lat="45.4074" lon="5.96648">
        <ele>421</ele>
        <time>2014-10-30T15:16:35Z</time>
      </trkpt>
      <trkpt lat="45.4075" lon="5.9667">
        <ele>419</ele>
        <time>2014-10-30T15:16:38Z</time>
      </trkpt>
      <trkpt lat="45.40764" lon="5.9669">
        <ele>417</ele>
        <time>2014-10-30T15:16:41Z</time>
      </trkpt>
      <trkpt lat="45.40784" lon="5.96705">
        <ele>416</ele>
        <time>2014-10-30T15:16:44Z</time>
      </trkpt>
      <trkpt lat="45.40806" lon="5.96714">
        <ele>416</ele>
        <time>2014-10-30T15:16:47Z</time>
      </trkpt>
      <trkpt lat="45.40829" lon="5.96715">
        <ele>416</ele>
        <time>2014-10-30T15:16:50Z</time>
      </trkpt>
      <trkpt lat="45.40855" lon="5.96719">
        <ele>416</ele>
        <time>2014-10-30T15:16:53Z</time>
      </trkpt>
      <trkpt lat="45.40872" lon="5.96724">
        <ele>415</ele>
        <time>2014-10-30T15:16:55Z</time>
      </trkpt>
      <trkpt lat="45.4089" lon="5.96733">
        <ele>413</ele>
        <time>2014-10-30T15:16:57Z</time>
      </trkpt>
      <trkpt lat="45.40908" lon="5.96744">
        <ele>409</ele>
        <time>2014-10-30T15:16:59Z</time>
      </trkpt>
      <trkpt lat="45.40924" lon="5.96758">
        <ele>407</ele>
        <time>2014-10-30T15:17:01Z</time>
      </trkpt>
      <trkpt lat="45.40939" lon="5.96774">
        <ele>409</ele>
        <time>2014-10-30T15:17:03Z</time>
      </trkpt>
      <trkpt lat="45.40953" lon="5.9679">
        <ele>410</ele>
        <time>2014-10-30T15:17:05Z</time>
      </trkpt>
      <trkpt lat="45.40968" lon="5.96806">
        <ele>410</ele>
        <time>2014-10-30T15:17:07Z</time>
      </trkpt>
      <trkpt lat="45.40983" lon="5.96821">
        <ele>409</ele>
        <time>2014-10-30T15:17:09Z</time>
      </trkpt>
      <trkpt lat="45.40998" lon="5.96837">
        <ele>405</ele>
        <time>2014-10-30T15:17:11Z</time>
      </trkpt>
      <trkpt lat="45.41019" lon="5.9686">
        <ele>405</ele>
        <time>2014-10-30T15:17:14Z</time>
      </trkpt>
      <trkpt lat="45.41039" lon="5.96883">
        <ele>404</ele>
        <time>2014-10-30T15:17:17Z</time>
      </trkpt>
      <trkpt lat="45.4106" lon="5.96907">
        <ele>404</ele>
        <time>2014-10-30T15:17:20Z</time>
      </trkpt>
      <trkpt lat="45.4108" lon="5.96929">
        <ele>400</ele>
        <time>2014-10-30T15:17:23Z</time>
      </trkpt>
      <trkpt lat="45.411" lon="5.96951">
        <ele>400</ele>
        <time>2014-10-30T15:17:26Z</time>
      </trkpt>
      <trkpt lat="45.41121" lon="5.96973">
        <ele>399</ele>
        <time>2014-10-30T15:17:29Z</time>
      </trkpt>
      <trkpt lat="45.41141" lon="5.96995">
        <ele>398</ele>
        <time>2014-10-30T15:17:32Z</time>
      </trkpt>
      <trkpt lat="45.41162" lon="5.97017">
        <ele>394</ele>
        <time>2014-10-30T15:17:35Z</time>
      </trkpt>
      <trkpt lat="45.41183" lon="5.97038">
        <ele>393</ele>
        <time>2014-10-30T15:17:38Z</time>
      </trkpt>
      <trkpt lat="45.41204" lon="5.97054">
        <ele>392</ele>
        <time>2014-10-30T15:17:41Z</time>
      </trkpt>
      <trkpt lat="45.41226" lon="5.9707">
        <ele>392</ele>
        <time>2014-10-30T15:17:44Z</time>
      </trkpt>
      <trkpt lat="45.41245" lon="5.97084">
        <ele>389</ele>
        <time>2014-10-30T15:17:47Z</time>
      </trkpt>
      <trkpt lat="45.41262" lon="5.97098">
        <ele>389</ele>
        <time>2014-10-30T15:17:50Z</time>
      </trkpt>
      <trkpt lat="45.41279" lon="5.97111">
        <ele>388</ele>
        <time>2014-10-30T15:17:53Z</time>
      </trkpt>
      <trkpt lat="45.41294" lon="5.97124">
        <ele>388</ele>
        <time>2014-10-30T15:17:56Z</time>
      </trkpt>
      <trkpt lat="45.41315" lon="5.9714">
        <ele>388</ele>
        <time>2014-10-30T15:18:00Z</time>
      </trkpt>
      <trkpt lat="45.41335" lon="5.97155">
        <ele>390</ele>
        <time>2014-10-30T15:18:04Z</time>
      </trkpt>
      <trkpt lat="45.41355" lon="5.97172">
        <ele>388</ele>
        <time>2014-10-30T15:18:08Z</time>
      </trkpt>
      <trkpt lat="45.41374" lon="5.97186">
        <ele>388</ele>
        <time>2014-10-30T15:18:12Z</time>
      </trkpt>
      <trkpt lat="45.41391" lon="5.97198">
        <ele>388</ele>
        <time>2014-10-30T15:18:15Z</time>
      </trkpt>
      <trkpt lat="45.41408" lon="5.97211">
        <ele>387</ele>
        <time>2014-10-30T15:18:18Z</time>
      </trkpt>
      <trkpt lat="45.41425" lon="5.97224">
        <ele>389</ele>
        <time>2014-10-30T15:18:21Z</time>
      </trkpt>
      <trkpt lat="45.41443" lon="5.97238">
        <ele>389</ele>
        <time>2014-10-30T15:18:24Z</time>
      </trkpt>
      <trkpt lat="45.41462" lon="5.97252">
        <ele>387</ele>
        <time>2014-10-30T15:18:27Z</time>
      </trkpt>
      <trkpt lat="45.41481" lon="5.97268">
        <ele>387</ele>
        <time>2014-10-30T15:18:30Z</time>
      </trkpt>
      <trkpt lat="45.415" lon="5.97281">
        <ele>387</ele>
        <time>2014-10-30T15:18:33Z</time>
      </trkpt>
      <trkpt lat="45.41517" lon="5.97294">
        <ele>388</ele>
        <time>2014-10-30T15:18:36Z</time>
      </trkpt>
      <trkpt lat="45.41533" lon="5.97306">
        <ele>387</ele>
        <time>2014-10-30T15:18:39Z</time>
      </trkpt>
      <trkpt lat="45.41551" lon="5.9732">
        <ele>387</ele>
        <time>2014-10-30T15:18:42Z</time>
      </trkpt>
      <trkpt lat="45.41569" lon="5.97333">
        <ele>386</ele>
        <time>2014-10-30T15:18:45Z</time>
      </trkpt>
      <trkpt lat="45.41588" lon="5.97346">
        <ele>381</ele>
        <time>2014-10-30T15:18:48Z</time>
      </trkpt>
      <trkpt lat="45.4161" lon="5.97358">
        <ele>378</ele>
        <time>2014-10-30T15:18:51Z</time>
      </trkpt>
      <trkpt lat="45.41633" lon="5.97372">
        <ele>376</ele>
        <time>2014-10-30T15:18:54Z</time>
      </trkpt>
      <trkpt lat="45.41651" lon="5.97382">
        <ele>375</ele>
        <time>2014-10-30T15:18:56Z</time>
      </trkpt>
      <trkpt lat="45.41669" lon="5.9739">
        <ele>374</ele>
        <time>2014-10-30T15:18:58Z</time>
      </trkpt>
      <trkpt lat="45.41686" lon="5.97399">
        <ele>373</ele>
        <time>2014-10-30T15:19:00Z</time>
      </trkpt>
      <trkpt lat="45.41704" lon="5.9741">
        <ele>373</ele>
        <time>2014-10-30T15:19:02Z</time>
      </trkpt>
      <trkpt lat="45.41722" lon="5.97421">
        <ele>365</ele>
        <time>2014-10-30T15:19:04Z</time>
      </trkpt>
      <trkpt lat="45.4174" lon="5.97434">
        <ele>365</ele>
        <time>2014-10-30T15:19:06Z</time>
      </trkpt>
      <trkpt lat="45.4176" lon="5.97446">
        <ele>367</ele>
        <time>2014-10-30T15:19:08Z</time>
      </trkpt>
      <trkpt lat="45.4178" lon="5.97457">
        <ele>366</ele>
        <time>2014-10-30T15:19:10Z</time>
      </trkpt>
      <trkpt lat="45.41799" lon="5.97468">
        <ele>366</ele>
        <time>2014-10-30T15:19:12Z</time>
      </trkpt>
      <trkpt lat="45.41819" lon="5.97474">
        <ele>366</ele>
        <time>2014-10-30T15:19:14Z</time>
      </trkpt>
      <trkpt lat="45.41837" lon="5.9748">
        <ele>366</ele>
        <time>2014-10-30T15:19:16Z</time>
      </trkpt>
      <trkpt lat="45.41857" lon="5.97485">
        <ele>366</ele>
        <time>2014-10-30T15:19:18Z</time>
      </trkpt>
      <trkpt lat="45.41878" lon="5.97489">
        <ele>366</ele>
        <time>2014-10-30T15:19:20Z</time>
      </trkpt>
      <trkpt lat="45.41898" lon="5.97495">
        <ele>365</ele>
        <time>2014-10-30T15:19:22Z</time>
      </trkpt>
      <trkpt lat="45.41917" lon="5.97506">
        <ele>362</ele>
        <time>2014-10-30T15:19:24Z</time>
      </trkpt>
      <trkpt lat="45.41936" lon="5.97519">
        <ele>360</ele>
        <time>2014-10-30T15:19:26Z</time>
      </trkpt>
      <trkpt lat="45.41955" lon="5.97531">
        <ele>358</ele>
        <time>2014-10-30T15:19:28Z</time>
      </trkpt>
      <trkpt lat="45.41975" lon="5.9754">
        <ele>358</ele>
        <time>2014-10-30T15:19:30Z</time>
      </trkpt>
      <trkpt lat="45.41994" lon="5.97549">
        <ele>357</ele>
        <time>2014-10-30T15:19:32Z</time>
      </trkpt>
      <trkpt lat="45.42013" lon="5.97558">
        <ele>356</ele>
        <time>2014-10-30T15:19:34Z</time>
      </trkpt>
      <trkpt lat="45.42032" lon="5.97568">
        <ele>356</ele>
        <time>2014-10-30T15:19:36Z</time>
      </trkpt>
      <trkpt lat="45.4205" lon="5.97577">
        <ele>356</ele>
        <time>2014-10-30T15:19:38Z</time>
      </trkpt>
      <trkpt lat="45.42068" lon="5.97585">
        <ele>352</ele>
        <time>2014-10-30T15:19:40Z</time>
      </trkpt>
      <trkpt lat="45.42091" lon="5.97598">
        <ele>354</ele>
        <time>2014-10-30T15:19:43Z</time>
      </trkpt>
      <trkpt lat="45.42112" lon="5.97611">
        <ele>354</ele>
        <time>2014-10-30T15:19:46Z</time>
      </trkpt>
      <trkpt lat="45.42129" lon="5.97624">
        <ele>353</ele>
        <time>2014-10-30T15:19:49Z</time>
      </trkpt>
      <trkpt lat="45.42147" lon="5.97636">
        <ele>353</ele>
        <time>2014-10-30T15:19:52Z</time>
      </trkpt>
      <trkpt lat="45.42165" lon="5.97647">
        <ele>352</ele>
        <time>2014-10-30T15:19:55Z</time>
      </trkpt>
      <trkpt lat="45.42183" lon="5.97657">
        <ele>354</ele>
        <time>2014-10-30T15:19:58Z</time>
      </trkpt>
      <trkpt lat="45.42203" lon="5.97668">
        <ele>348</ele>
        <time>2014-10-30T15:20:01Z</time>
      </trkpt>
      <trkpt lat="45.42224" lon="5.97681">
        <ele>348</ele>
        <time>2014-10-30T15:20:04Z</time>
      </trkpt>
      <trkpt lat="45.42245" lon="5.97695">
        <ele>348</ele>
        <time>2014-10-30T15:20:07Z</time>
      </trkpt>
      <trkpt lat="45.42266" lon="5.97709">
        <ele>349</ele>
        <time>2014-10-30T15:20:10Z</time>
      </trkpt>
      <trkpt lat="45.42287" lon="5.97724">
        <ele>348</ele>
        <time>2014-10-30T15:20:13Z</time>
      </trkpt>
      <trkpt lat="45.42306" lon="5.97738">
        <ele>348</ele>
        <time>2014-10-30T15:20:16Z</time>
      </trkpt>
      <trkpt lat="45.42324" lon="5.97754">
        <ele>344</ele>
        <time>2014-10-30T15:20:19Z</time>
      </trkpt>
      <trkpt lat="45.42342" lon="5.97767">
        <ele>344</ele>
        <time>2014-10-30T15:20:22Z</time>
      </trkpt>
      <trkpt lat="45.4236" lon="5.97779">
        <ele>343</ele>
        <time>2014-10-30T15:20:25Z</time>
      </trkpt>
      <trkpt lat="45.42378" lon="5.9779">
        <ele>342</ele>
        <time>2014-10-30T15:20:28Z</time>
      </trkpt>
      <trkpt lat="45.424" lon="5.978">
        <ele>342</ele>
        <time>2014-10-30T15:20:31Z</time>
      </trkpt>
      <trkpt lat="45.42423" lon="5.97809">
        <ele>343</ele>
        <time>2014-10-30T15:20:34Z</time>
      </trkpt>
      <trkpt lat="45.42446" lon="5.9782">
        <ele>343</ele>
        <time>2014-10-30T15:20:37Z</time>
      </trkpt>
      <trkpt lat="45.4247" lon="5.97829">
        <ele>343</ele>
        <time>2014-10-30T15:20:40Z</time>
      </trkpt>
      <trkpt lat="45.42495" lon="5.97841">
        <ele>338</ele>
        <time>2014-10-30T15:20:43Z</time>
      </trkpt>
      <trkpt lat="45.42521" lon="5.97848">
        <ele>338</ele>
        <time>2014-10-30T15:20:46Z</time>
      </trkpt>
      <trkpt lat="45.42545" lon="5.97855">
        <ele>338</ele>
        <time>2014-10-30T15:20:49Z</time>
      </trkpt>
      <trkpt lat="45.42569" lon="5.97862">
        <ele>339</ele>
        <time>2014-10-30T15:20:52Z</time>
      </trkpt>
      <trkpt lat="45.42593" lon="5.97876">
        <ele>341</ele>
        <time>2014-10-30T15:20:55Z</time>
      </trkpt>
      <trkpt lat="45.42617" lon="5.9789">
        <ele>340</ele>
        <time>2014-10-30T15:20:58Z</time>
      </trkpt>
      <trkpt lat="45.42638" lon="5.97906">
        <ele>340</ele>
        <time>2014-10-30T15:21:01Z</time>
      </trkpt>
      <trkpt lat="45.4266" lon="5.97921">
        <ele>336</ele>
        <time>2014-10-30T15:21:04Z</time>
      </trkpt>
      <trkpt lat="45.42681" lon="5.97936">
        <ele>336</ele>
        <time>2014-10-30T15:21:07Z</time>
      </trkpt>
      <trkpt lat="45.42703" lon="5.97953">
        <ele>336</ele>
        <time>2014-10-30T15:21:10Z</time>
      </trkpt>
      <trkpt lat="45.42724" lon="5.97968">
        <ele>335</ele>
        <time>2014-10-30T15:21:13Z</time>
      </trkpt>
      <trkpt lat="45.42743" lon="5.97983">
        <ele>334</ele>
        <time>2014-10-30T15:21:16Z</time>
      </trkpt>
      <trkpt lat="45.42762" lon="5.97998">
        <ele>336</ele>
        <time>2014-10-30T15:21:19Z</time>
      </trkpt>
      <trkpt lat="45.42781" lon="5.98012">
        <ele>333</ele>
        <time>2014-10-30T15:21:22Z</time>
      </trkpt>
      <trkpt lat="45.428" lon="5.98025">
        <ele>333</ele>
        <time>2014-10-30T15:21:25Z</time>
      </trkpt>
      <trkpt lat="45.42817" lon="5.98041">
        <ele>333</ele>
        <time>2014-10-30T15:21:28Z</time>
      </trkpt>
      <trkpt lat="45.42832" lon="5.98056">
        <ele>332</ele>
        <time>2014-10-30T15:21:31Z</time>
      </trkpt>
      <trkpt lat="45.42848" lon="5.98071">
        <ele>333</ele>
        <time>2014-10-30T15:21:34Z</time>
      </trkpt>
      <trkpt lat="45.42866" lon="5.98087">
        <ele>331</ele>
        <time>2014-10-30T15:21:38Z</time>
      </trkpt>
      <trkpt lat="45.42884" lon="5.98103">
        <ele>331</ele>
        <time>2014-10-30T15:21:42Z</time>
      </trkpt>
      <trkpt lat="45.42901" lon="5.98119">
        <ele>331</ele>
        <time>2014-10-30T15:21:46Z</time>
      </trkpt>
      <trkpt lat="45.42919" lon="5.98131">
        <ele>331</ele>
        <time>2014-10-30T15:21:50Z</time>
      </trkpt>
      <trkpt lat="45.42937" lon="5.98143">
        <ele>331</ele>
        <time>2014-10-30T15:21:54Z</time>
      </trkpt>
      <trkpt lat="45.42954" lon="5.98151">
        <ele>330</ele>
        <time>2014-10-30T15:21:58Z</time>
      </trkpt>
      <trkpt lat="45.42972" lon="5.98156">
        <ele>330</ele>
        <time>2014-10-30T15:22:02Z</time>
      </trkpt>
      <trkpt lat="45.42994" lon="5.98157">
        <ele>329</ele>
        <time>2014-10-30T15:22:07Z</time>
      </trkpt>
      <trkpt lat="45.43012" lon="5.98156">
        <ele>329</ele>
        <time>2014-10-30T15:22:12Z</time>
      </trkpt>
      <trkpt lat="45.43031" lon="5.98155">
        <ele>330</ele>
        <time>2014-10-30T15:22:18Z</time>
      </trkpt>
      <trkpt lat="45.43024" lon="5.98179">
        <ele>329</ele>
        <time>2014-10-30T15:22:25Z</time>
      </trkpt>
      <trkpt lat="45.43009" lon="5.98203">
        <ele>329</ele>
        <time>2014-10-30T15:22:30Z</time>
      </trkpt>
      <trkpt lat="45.42994" lon="5.98228">
        <ele>329</ele>
        <time>2014-10-30T15:22:35Z</time>
      </trkpt>
      <trkpt lat="45.42982" lon="5.9825">
        <ele>329</ele>
        <time>2014-10-30T15:22:40Z</time>
      </trkpt>
      <trkpt lat="45.42969" lon="5.98271">
        <ele>330</ele>
        <time>2014-10-30T15:22:45Z</time>
      </trkpt>
      <trkpt lat="45.42955" lon="5.98291">
        <ele>330</ele>
        <time>2014-10-30T15:22:51Z</time>
      </trkpt>
      <trkpt lat="45.42938" lon="5.98311">
        <ele>330</ele>
        <time>2014-10-30T15:22:57Z</time>
      </trkpt>
      <trkpt lat="45.42929" lon="5.98332">
        <ele>330</ele>
        <time>2014-10-30T15:23:02Z</time>
      </trkpt>
      <trkpt lat="45.42923" lon="5.9836">
        <ele>330</ele>
        <time>2014-10-30T15:23:11Z</time>
      </trkpt>
      <trkpt lat="45.42911" lon="5.98382">
        <ele>329</ele>
        <time>2014-10-30T15:23:20Z</time>
      </trkpt>
      <trkpt lat="45.42913" lon="5.98409">
        <ele>330</ele>
        <time>2014-10-30T15:23:35Z</time>
      </trkpt>
    </trkseg>
  </trk>
</gpx>